[[{"header":{"parameterUnit":"m.s-1","parameterCategory":1,"la1":30.6,"la2":29.2853,"lo1":-89.7004,"lo2":-87.6739,"dx":0.0162,"dy":0.0183,"nx":112,"ny":82,"refTime":"2023-01-10T06:00:00:Z","depth":0,"parameterNumber":2,"parameterNumberName":"U-component_of_WINDS"},"data":[0.0,0.0,0.0,0.0,0.0,0.0,0.0,0.0,0.0,0.0,0.0,0.0,0.0,0.0,0.0,0.0,0.0,0.0,0.0,0.0,0.0,0.0,0.0,0.0,0.0,0.0,0.0,0.0,0.0,0.0,0.0,0.0,0.0,0.0,0.0,0.0,0.0,0.0,0.0,0.0,0.0,0.0,0.0,0.0,0.0,0.0,0.0,0.0,0.0,0.0,0.0,0.0,0.0,0.0,0.0,0.0,0.0,0.0,0.0,0.0,0.0,0.0,0.0,0.0,0.0,0.0,0.0,0.0,0.0,0.0,0.0,0.0,0.0,0.0,0.0,0.0,0.0,0.0,0.0,0.0,0.0,0.0,0.0,0.0,0.0,0.0,0.0,0.0,0.0,0.0,-3.947,-4.072,-4.2596,-4.3718,-4.3718,-4.378,-4.2663,-3.9909,0.0,0.0,0.0,0.0,0.0,0.0,0.0,0.0,0.0,0.0,0.0,0.0,0.0,0.0,0.0,0.0,0.0,0.0,0.0,0.0,0.0,0.0,0.0,0.0,0.0,0.0,0.0,0.0,0.0,0.0,0.0,0.0,0.0,0.0,0.0,0.0,0.0,0.0,0.0,0.0,0.0,0.0,0.0,0.0,0.0,0.0,0.0,0.0,0.0,0.0,0.0,0.0,0.0,0.0,0.0,0.0,0.0,0.0,0.0,0.0,0.0,0.0,0.0,0.0,0.0,0.0,0.0,0.0,0.0,0.0,0.0,0.0,0.0,0.0,0.0,0.0,0.0,0.0,0.0,0.0,0.0,0.0,0.0,0.0,0.0,0.0,0.0,0.0,0.0,0.0,0.0,0.0,0.0,0.0,0.0,0.0,0.0,0.0,0.0,0.0,0.0,0.0,0.0,0.0,-3.9754,-4.274,-4.3801,-4.4194,-4.4194,-4.4567,-4.3615,-4.0841,0.0,0.0,0.0,0.0,0.0,0.0,0.0,0.0,0.0,0.0,0.0,0.0,0.0,0.0,0.0,0.0,0.0,0.0,0.0,0.0,0.0,0.0,0.0,0.0,0.0,0.0,0.0,0.0,0.0,0.0,0.0,0.0,0.0,0.0,0.0,0.0,0.0,0.0,0.0,0.0,0.0,0.0,0.0,0.0,0.0,0.0,0.0,0.0,0.0,0.0,0.0,0.0,0.0,0.0,0.0,0.0,0.0,0.0,0.0,0.0,0.0,0.0,0.0,0.0,0.0,0.0,0.0,0.0,0.0,0.0,0.0,0.0,0.0,0.0,0.0,0.0,0.0,0.0,0.0,0.0,0.0,0.0,0.0,0.0,0.0,0.0,0.0,0.0,0.0,0.0,0.0,0.0,0.0,0.0,0.0,0.0,0.0,0.0,0.0,0.0,0.0,0.0,0.0,-3.9224,-4.1008,-4.3366,-4.4029,-4.4298,-4.4298,-4.4733,-4.3975,-4.1334,-4.2522,0.0,0.0,0.0,0.0,0.0,0.0,0.0,0.0,0.0,0.0,0.0,0.0,0.0,0.0,0.0,0.0,0.0,0.0,0.0,0.0,0.0,0.0,0.0,0.0,0.0,0.0,0.0,0.0,0.0,0.0,0.0,0.0,0.0,0.0,0.0,0.0,0.0,0.0,0.0,0.0,0.0,0.0,0.0,0.0,0.0,0.0,0.0,0.0,0.0,0.0,0.0,0.0,0.0,0.0,0.0,0.0,0.0,0.0,0.0,0.0,0.0,0.0,0.0,0.0,0.0,0.0,0.0,0.0,0.0,0.0,0.0,0.0,0.0,0.0,0.0,0.0,0.0,0.0,0.0,0.0,0.0,0.0,0.0,0.0,0.0,0.0,0.0,0.0,0.0,0.0,0.0,0.0,0.0,0.0,0.0,0.0,0.0,0.0,0.0,0.0,0.0,0.0,-4.1421,-4.2538,-4.3801,-4.4256,-4.4546,-4.4774,-4.5105,-4.4286,-4.1812,-4.2861,0.0,0.0,0.0,0.0,0.0,0.0,0.0,0.0,0.0,0.0,0.0,0.0,0.0,0.0,0.0,0.0,0.0,0.0,0.0,0.0,0.0,0.0,0.0,0.0,0.0,0.0,0.0,0.0,0.0,0.0,0.0,0.0,0.0,0.0,0.0,0.0,0.0,0.0,0.0,0.0,0.0,0.0,0.0,0.0,0.0,0.0,0.0,0.0,0.0,0.0,0.0,0.0,0.0,0.0,0.0,0.0,0.0,0.0,0.0,0.0,0.0,0.0,0.0,0.0,0.0,0.0,0.0,0.0,0.0,0.0,0.0,0.0,0.0,0.0,0.0,0.0,0.0,0.0,0.0,0.0,0.0,0.0,0.0,0.0,0.0,0.0,0.0,0.0,0.0,0.0,0.0,0.0,0.0,0.0,0.0,0.0,0.0,0.0,0.0,0.0,0.0,0.0,-4.1876,-4.3842,-4.4795,-4.4919,-4.5291,-4.614,-4.6244,-4.5084,-4.2479,-4.3708,0.0,0.0,0.0,0.0,0.0,0.0,0.0,0.0,0.0,0.0,0.0,0.0,0.0,0.0,0.0,0.0,0.0,0.0,0.0,0.0,0.0,0.0,0.0,0.0,0.0,0.0,0.0,0.0,0.0,0.0,0.0,0.0,0.0,0.0,0.0,0.0,0.0,0.0,0.0,0.0,0.0,0.0,0.0,0.0,0.0,0.0,0.0,0.0,0.0,0.0,0.0,0.0,0.0,0.0,0.0,0.0,0.0,0.0,0.0,0.0,0.0,0.0,0.0,0.0,0.0,0.0,0.0,0.0,0.0,0.0,0.0,0.0,0.0,0.0,0.0,0.0,0.0,0.0,0.0,0.0,0.0,0.0,0.0,0.0,0.0,0.0,0.0,0.0,0.0,0.0,0.0,0.0,0.0,0.0,0.0,0.0,0.0,0.0,0.0,0.0,0.0,0.0,-4.1586,-4.3118,-4.4029,-4.4898,-4.5561,-4.5912,-4.6699,-4.6052,-4.3446,0.0,0.0,0.0,0.0,0.0,0.0,0.0,0.0,0.0,0.0,0.0,0.0,0.0,0.0,0.0,0.0,0.0,0.0,0.0,0.0,0.0,0.0,0.0,0.0,0.0,0.0,0.0,0.0,0.0,0.0,0.0,0.0,0.0,0.0,0.0,0.0,0.0,0.0,0.0,0.0,0.0,0.0,0.0,0.0,0.0,0.0,0.0,0.0,0.0,0.0,0.0,0.0,0.0,0.0,0.0,0.0,0.0,0.0,0.0,0.0,0.0,0.0,0.0,0.0,0.0,0.0,0.0,0.0,0.0,0.0,0.0,0.0,0.0,0.0,0.0,0.0,0.0,0.0,0.0,0.0,0.0,0.0,0.0,0.0,0.0,0.0,0.0,0.0,0.0,0.0,0.0,0.0,0.0,0.0,0.0,0.0,0.0,0.0,0.0,0.0,0.0,0.0,-4.0261,-4.2249,-4.3739,-4.4215,-4.5126,-4.5747,-4.5892,-4.674,-4.6274,-4.3806,0.0,0.0,0.0,0.0,0.0,0.0,0.0,0.0,0.0,0.0,0.0,0.0,0.0,0.0,0.0,0.0,0.0,0.0,0.0,0.0,0.0,0.0,0.0,0.0,0.0,0.0,0.0,0.0,0.0,0.0,0.0,0.0,0.0,0.0,0.0,0.0,0.0,0.0,0.0,0.0,0.0,0.0,0.0,0.0,0.0,0.0,0.0,0.0,0.0,0.0,0.0,0.0,0.0,0.0,0.0,0.0,0.0,0.0,0.0,0.0,0.0,0.0,0.0,0.0,0.0,0.0,0.0,0.0,0.0,0.0,0.0,0.0,0.0,0.0,0.0,0.0,0.0,0.0,0.0,0.0,0.0,0.0,0.0,0.0,0.0,0.0,0.0,0.0,0.0,0.0,0.0,0.0,0.0,0.0,0.0,0.0,0.0,0.0,0.0,0.0,0.0,0.0,-4.0944,-4.407,-4.6161,-4.5726,-4.5685,-4.5871,-4.6306,-4.6347,-4.5346,0.0,0.0,0.0,0.0,0.0,0.0,0.0,0.0,0.0,0.0,0.0,0.0,0.0,0.0,0.0,0.0,0.0,0.0,0.0,0.0,0.0,0.0,0.0,0.0,0.0,0.0,0.0,0.0,0.0,0.0,0.0,0.0,0.0,0.0,0.0,0.0,0.0,0.0,0.0,0.0,0.0,0.0,0.0,0.0,0.0,0.0,0.0,0.0,0.0,0.0,0.0,0.0,0.0,0.0,0.0,0.0,0.0,0.0,0.0,0.0,0.0,0.0,0.0,0.0,0.0,0.0,0.0,0.0,0.0,0.0,0.0,0.0,0.0,0.0,0.0,0.0,0.0,0.0,0.0,0.0,0.0,0.0,0.0,0.0,0.0,0.0,0.0,0.0,0.0,0.0,0.0,0.0,0.0,0.0,0.0,0.0,0.0,0.0,0.0,0.0,0.0,0.0,0.0,-4.1338,-4.3718,-4.5354,-4.5209,-4.5768,-4.6202,-4.6326,-4.6927,-4.6441,-4.4292,0.0,0.0,0.0,0.0,0.0,0.0,0.0,0.0,0.0,0.0,0.0,0.0,0.0,0.0,0.0,0.0,0.0,0.0,0.0,0.0,0.0,0.0,0.0,0.0,0.0,0.0,0.0,0.0,0.0,0.0,0.0,0.0,0.0,0.0,0.0,0.0,0.0,0.0,0.0,0.0,0.0,0.0,0.0,0.0,0.0,0.0,0.0,0.0,0.0,0.0,0.0,0.0,0.0,0.0,0.0,0.0,0.0,0.0,0.0,0.0,0.0,0.0,0.0,0.0,0.0,0.0,0.0,0.0,0.0,0.0,0.0,0.0,0.0,0.0,0.0,0.0,0.0,0.0,0.0,0.0,0.0,0.0,0.0,0.0,0.0,0.0,0.0,0.0,0.0,0.0,0.0,0.0,0.0,0.0,0.0,0.0,0.0,0.0,0.0,0.0,0.0,0.0,-4.2042,-4.4277,-4.5747,-4.5561,-4.6016,-4.6347,-4.6509,-4.7171,-4.6867,-4.5382,0.0,0.0,0.0,0.0,0.0,0.0,0.0,0.0,0.0,0.0,0.0,0.0,0.0,0.0,0.0,0.0,0.0,0.0,0.0,0.0,0.0,0.0,0.0,0.0,0.0,0.0,0.0,0.0,0.0,0.0,0.0,0.0,0.0,0.0,0.0,0.0,0.0,0.0,0.0,0.0,0.0,0.0,0.0,0.0,0.0,0.0,0.0,0.0,0.0,0.0,0.0,0.0,0.0,0.0,0.0,0.0,0.0,0.0,0.0,0.0,0.0,0.0,0.0,0.0,0.0,0.0,0.0,0.0,0.0,0.0,0.0,0.0,0.0,0.0,0.0,0.0,0.0,0.0,0.0,0.0,0.0,0.0,0.0,0.0,0.0,0.0,0.0,0.0,0.0,0.0,0.0,0.0,0.0,0.0,0.0,0.0,0.0,0.0,0.0,0.0,0.0,0.0,-4.2849,-4.5209,-4.674,-4.6451,-4.6368,-4.655,-4.6957,-4.714,-4.687,-4.6266,0.0,0.0,0.0,0.0,0.0,0.0,0.0,0.0,0.0,0.0,0.0,0.0,0.0,0.0,0.0,0.0,0.0,0.0,0.0,0.0,0.0,0.0,0.0,0.0,0.0,0.0,0.0,0.0,0.0,0.0,0.0,0.0,0.0,0.0,0.0,0.0,0.0,0.0,0.0,0.0,0.0,0.0,0.0,0.0,0.0,0.0,0.0,0.0,0.0,0.0,0.0,0.0,0.0,0.0,0.0,0.0,0.0,0.0,0.0,0.0,-1.9559,-1.8778,0.0,0.0,0.0,0.0,0.0,0.0,0.0,0.0,0.0,0.0,0.0,0.0,0.0,0.0,0.0,0.0,0.0,0.0,0.0,0.0,0.0,0.0,0.0,0.0,0.0,0.0,0.0,0.0,0.0,0.0,0.0,0.0,0.0,0.0,0.0,0.0,0.0,0.0,0.0,0.0,-4.2807,-4.4381,-4.5809,-4.6782,-4.6575,-4.6637,-4.7506,-4.7898,-4.7806,-4.7252,-4.676,0.0,0.0,0.0,0.0,0.0,0.0,0.0,0.0,0.0,0.0,0.0,0.0,0.0,0.0,0.0,0.0,0.0,0.0,0.0,0.0,0.0,0.0,0.0,0.0,0.0,0.0,0.0,0.0,0.0,0.0,0.0,0.0,0.0,0.0,0.0,0.0,0.0,0.0,0.0,0.0,0.0,0.0,0.0,0.0,0.0,0.0,0.0,0.0,0.0,0.0,0.0,0.0,0.0,0.0,0.0,0.0,0.0,0.0,0.0,-2.0868,-2.0371,0.0,0.0,0.0,0.0,0.0,0.0,0.0,0.0,0.0,0.0,0.0,0.0,0.0,0.0,0.0,0.0,0.0,0.0,0.0,0.0,0.0,0.0,0.0,0.0,0.0,0.0,0.0,0.0,0.0,0.0,0.0,0.0,0.0,0.0,0.0,0.0,0.0,0.0,0.0,0.0,-4.3139,-4.465,-4.5995,-4.7254,-4.7129,-4.7438,-4.8624,-4.8874,-4.899,-4.8984,-4.8216,0.0,0.0,0.0,0.0,0.0,0.0,0.0,0.0,0.0,0.0,0.0,0.0,0.0,0.0,0.0,0.0,0.0,0.0,0.0,0.0,0.0,0.0,0.0,0.0,0.0,0.0,0.0,0.0,0.0,0.0,0.0,0.0,0.0,0.0,0.0,0.0,0.0,0.0,0.0,0.0,0.0,0.0,0.0,0.0,0.0,0.0,0.0,0.0,0.0,0.0,0.0,0.0,0.0,-2.0496,-2.0762,-2.0901,-2.1319,-2.1944,-2.2915,-2.2422,-2.2254,-2.2243,-2.1718,0.0,0.0,0.0,0.0,0.0,0.0,0.0,0.0,0.0,0.0,0.0,0.0,0.0,0.0,0.0,0.0,0.0,0.0,0.0,0.0,0.0,0.0,-3.9925,-4.002,-4.0975,-4.1421,-3.984,0.0,0.0,0.0,0.0,0.0,0.0,0.0,0.0,0.0,0.0,0.0,-4.3842,-4.5291,-4.6633,-4.7727,-4.7869,-4.8407,-4.9725,-4.9954,-5.0097,-5.0404,-4.9759,-4.9017,0.0,0.0,0.0,0.0,0.0,0.0,0.0,0.0,0.0,0.0,0.0,0.0,0.0,0.0,0.0,0.0,0.0,0.0,0.0,0.0,0.0,0.0,0.0,0.0,0.0,0.0,0.0,0.0,0.0,0.0,0.0,0.0,-0.9042,-0.8651,0.0,0.0,0.0,0.0,0.0,0.0,0.0,0.0,0.0,0.0,0.0,0.0,0.0,-1.8705,-2.0662,-2.0852,-2.1318,-2.1897,-2.2428,-2.2986,-2.329,-2.3745,-2.4124,-2.457,-2.4869,0.0,-2.4013,-2.3823,0.0,0.0,0.0,0.0,0.0,0.0,0.0,0.0,0.0,0.0,0.0,0.0,0.0,0.0,0.0,0.0,0.0,0.0,0.0,0.0,0.0,0.0,-4.2591,-4.3013,-4.3751,-4.4308,-4.3648,-4.1809,-3.9983,-3.9493,-3.9733,-3.9605,0.0,0.0,0.0,0.0,0.0,0.0,-4.5188,-4.5941,-4.6888,-4.8147,-4.8223,-4.8826,-5.0102,-5.0735,-5.0903,-5.0903,-5.0905,-5.0393,-4.9475,-4.8907,0.0,0.0,0.0,0.0,0.0,0.0,0.0,0.0,0.0,0.0,0.0,0.0,0.0,0.0,0.0,0.0,0.0,0.0,0.0,0.0,0.0,0.0,0.0,0.0,0.0,0.0,0.0,0.0,0.0,-0.9036,-0.8889,-0.8878,-0.8834,-0.8764,0.0,0.0,0.0,0.0,0.0,0.0,0.0,0.0,0.0,-1.9479,-2.0127,-2.1049,-2.2162,-2.2283,-2.2464,-2.2705,-2.2935,-2.3353,-2.3661,-2.4124,-2.4585,-2.4905,-2.5537,-2.5617,-2.5449,-2.4993,-2.4502,-2.4249,0.0,0.0,0.0,0.0,-2.5385,-2.6095,-2.9164,-3.1426,-3.2946,-3.3642,0.0,0.0,0.0,0.0,0.0,0.0,0.0,-3.9702,-4.1223,-4.2766,-4.3949,-4.4708,-4.5278,-4.5705,-4.5498,-4.4494,-4.3277,-4.1565,-4.1626,-4.1503,-3.9578,-4.0468,0.0,0.0,0.0,-4.4774,-4.5581,-4.6509,-4.7626,-4.9005,-4.9065,-4.963,-5.1032,-5.1455,-5.1455,-5.1455,-5.1427,-5.1179,-5.0458,-4.9716,-4.8689,0.0,0.0,0.0,0.0,0.0,0.0,0.0,0.0,0.0,0.0,0.0,0.0,0.0,0.0,0.0,0.0,0.0,0.0,0.0,0.0,0.0,0.0,0.0,0.0,0.0,0.0,0.0,0.0,-0.9268,-0.9242,-0.9253,-0.9815,-1.0155,0.0,0.0,0.0,0.0,0.0,0.0,-1.7663,-1.8663,-1.9745,-2.0995,-2.2035,-2.2645,-2.3043,-2.3116,-2.3188,-2.3249,-2.3321,-2.3695,-2.424,-2.4553,-2.5023,-2.5505,-2.6029,-2.6413,-2.656,-2.5825,-2.5783,-2.5965,-2.5079,-2.4958,-2.529,-2.67,-2.7289,-2.7762,-3.2058,-3.4316,-3.5379,-3.6773,-3.8006,-3.8926,-3.8086,0.0,0.0,0.0,0.0,-4.1191,-4.2476,-4.369,-4.4755,-4.5602,-4.6016,-4.6306,-4.6202,-4.6182,-4.5581,-4.3532,-4.3677,-4.3428,-4.1151,-4.2249,0.0,-4.2393,-4.4319,-4.5975,-4.6326,-4.7298,-4.8567,-4.9847,-5.0079,-5.0838,-5.2118,-5.2162,-5.2162,-5.2162,-5.2162,-5.2009,-5.1638,-5.0939,-5.0196,-4.9475,0.0,0.0,0.0,0.0,0.0,0.0,0.0,0.0,0.0,0.0,0.0,0.0,0.0,0.0,0.0,0.0,0.0,0.0,0.0,0.0,0.0,0.0,0.0,0.0,0.0,0.0,0.0,0.0,0.0,-0.9805,-1.2105,0.0,0.0,0.0,0.0,-1.622,-1.6712,-1.7898,-1.9927,-2.0231,-2.1277,-2.3212,-2.314,-2.3019,-2.3043,-2.3297,-2.3562,-2.3804,-2.4057,-2.48,-2.588,-2.588,-2.6371,-2.7175,-2.7188,-2.7201,-2.7201,-2.6867,-2.7499,-2.8613,-2.6895,-2.6989,-2.7891,-2.7325,-2.9374,-3.2505,-3.3748,-3.6767,-4.0104,-4.0277,-4.0257,-4.0488,-4.084,-4.041,0.0,0.0,-4.1679,-4.2166,-4.3799,-4.4623,-4.5123,-4.5504,-4.6016,-4.6244,-4.5809,-4.5726,-4.5685,-4.554,-4.554,-4.525,-4.4236,0.0,-4.5147,-4.5954,-4.6202,-4.6782,-4.8065,-4.8588,-4.9379,-5.0294,-5.1244,-5.214,-5.3058,-5.3145,-5.3145,-5.3145,-5.3145,-5.3123,-5.3101,-5.3058,-5.2381,-5.0983,-5.0917,0.0,0.0,0.0,0.0,0.0,0.0,0.0,0.0,0.0,0.0,0.0,0.0,0.0,0.0,0.0,0.0,0.0,0.0,0.0,0.0,0.0,0.0,0.0,0.0,0.0,0.0,0.0,0.0,-1.0821,-1.2656,0.0,-1.371,-1.6779,-1.8805,-1.8876,-2.0414,-2.166,-2.2418,-2.2507,-2.2941,-2.3949,-2.3864,-2.3888,-2.4057,-2.4154,-2.4425,-2.4849,-2.4936,-2.5363,-2.6436,-2.6436,-2.6764,-2.7268,-2.7268,-2.7375,-2.7535,-2.7428,-2.7527,-2.79,-2.727,-2.7295,-2.7941,-3.0415,-3.1822,-3.2858,-3.5932,-3.8308,-4.0292,-4.1422,-4.1738,-4.1777,-4.1933,-4.1973,-4.2031,-4.2801,-4.3359,-4.412,-4.5352,-4.6045,-4.6453,-4.6906,-4.7092,-4.7154,-4.701,-4.6968,-4.6968,-4.6968,-4.6513,-4.583,-4.4898,-4.6099,-4.6885,-4.6037,-4.7154,-4.8337,-4.886,-4.9175,-4.9892,-5.0717,-5.1377,-5.2041,-5.2708,-5.2752,-5.2752,-5.2752,-5.2468,-5.2424,-5.273,-5.2752,-5.2664,-5.2446,-5.2446,-5.1114,0.0,0.0,0.0,0.0,0.0,0.0,0.0,0.0,0.0,0.0,0.0,0.0,0.0,0.0,0.0,0.0,0.0,0.0,0.0,0.0,0.0,0.0,0.0,0.0,0.0,0.0,-1.1698,-1.1498,-1.3411,-1.49,-1.5139,-1.8426,-2.0748,-2.139,-2.2828,-2.3888,-2.3973,-2.3973,-2.4094,-2.4359,-2.4359,-2.4456,-2.4625,-2.4625,-2.4839,-2.5434,-2.5434,-2.5969,-2.6887,-2.6887,-2.7231,-2.7562,-2.7562,-2.7736,-2.8003,-2.8003,-2.8271,-2.8814,-2.862,-2.94,-3.0958,-3.3289,-3.4409,-3.5081,-3.8617,-4.0223,-4.0971,-4.2275,-4.2656,-4.2676,-4.2812,-4.3066,-4.3484,-4.3949,-4.4698,-4.5532,-4.6453,-4.6927,-4.732,-4.761,-4.7693,-4.7693,-4.7693,-4.7693,-4.7734,-4.7879,-4.732,-4.6616,-4.5995,-4.7279,-4.7962,-4.6782,-4.8003,-4.9126,-4.9174,-4.9553,-5.0294,-5.0974,-5.1766,-5.2454,-5.297,-5.2817,-5.2796,-5.297,-5.2381,-5.2249,-5.2708,-5.2424,-5.2402,-5.273,-5.2883,-5.1791,-4.9388,0.0,0.0,0.0,0.0,0.0,0.0,0.0,0.0,0.0,0.0,0.0,0.0,0.0,0.0,0.0,0.0,0.0,0.0,0.0,0.0,0.0,0.0,0.0,-1.244,-1.2331,-1.2282,-1.1665,-1.4246,-1.652,-1.7585,-1.9824,-2.2039,-2.368,-2.3852,-2.3973,-2.4226,-2.4238,-2.4371,-2.4637,-2.4637,-2.4637,-2.4649,-2.4649,-2.4948,-2.5707,-2.5707,-2.6361,-2.7487,-2.7487,-2.7825,-2.8163,-2.8163,-2.8337,-2.8617,-2.8617,-2.9954,-3.1837,-3.1051,-3.347,-3.7067,-3.5904,-3.7111,-3.9595,-4.1779,-4.248,-4.2558,-4.2969,-4.3125,-4.3223,-4.3613,-4.373,-4.3994,-4.4925,-4.5377,-4.5976,-4.6923,-4.738,-4.7713,-4.7713,-4.7734,-4.7734,-4.7734,-4.7734,-4.7858,-4.8314,-4.8024,-4.7734,-4.7734,-4.8107,-4.8417,-4.8417,-4.881,0.0,-4.91,-4.9933,-5.0592,-5.106,-5.239,-5.3385,-5.3866,-5.3473,-5.3407,-5.391,-5.3036,-5.273,-5.3211,-5.2359,-5.1878,-5.19,-5.2271,-5.2249,-5.1791,0.0,0.0,0.0,0.0,0.0,0.0,0.0,0.0,0.0,0.0,0.0,0.0,0.0,0.0,0.0,0.0,0.0,0.0,0.0,0.0,0.0,0.0,-1.3082,-1.2542,-1.2774,-1.3097,-1.2893,-1.5918,-1.7928,-1.8304,-2.1157,-2.3348,-2.368,-2.4021,-2.4154,-2.4226,-2.442,-2.4649,-2.4927,-2.4927,-2.5023,-2.5216,-2.5542,-2.5917,-2.65,-2.685,-2.7396,-2.7981,-2.8207,-2.8313,-2.8497,-2.8698,-2.8845,-2.8925,-2.8925,-3.0823,-3.3584,-3.2044,-3.3367,-3.5942,-3.7118,-3.9523,-4.2097,-4.3079,-4.3574,-4.3828,-4.3594,-4.3965,-4.4453,-4.4258,-4.4582,-4.5193,-4.5817,-4.636,-4.6943,-4.7729,-4.8189,-4.8272,-4.8603,-4.8686,-4.8686,-4.8686,-4.8686,-4.8728,-4.8852,-4.8769,-4.8686,-4.8686,-4.908,-4.939,-4.939,-4.9494,-5.0026,-5.0881,-5.0952,-5.1124,-5.1958,-5.2429,-5.2883,-5.3363,-5.297,-5.3058,-5.3888,-5.3363,-5.3232,-5.3713,-5.3495,-5.3516,-5.3866,-5.2621,-5.1922,0.0,0.0,0.0,0.0,0.0,0.0,0.0,0.0,0.0,0.0,0.0,0.0,0.0,0.0,0.0,0.0,0.0,0.0,0.0,0.0,0.0,0.0,-1.3528,-1.3404,-1.2833,-1.313,-1.3403,-1.3403,-1.5201,-1.6992,-1.8463,-2.0507,-2.2369,-2.3848,-2.4251,-2.4456,-2.4564,-2.4721,-2.4927,-2.5204,-2.5204,-2.5277,-2.5763,-2.5933,-2.6443,-2.7135,-2.7434,-2.7827,-2.835,-2.8657,-2.8791,-2.8804,-2.8965,-2.9447,-3.0427,-3.0713,-3.3075,0.0,0.0,0.0,0.0,0.0,-4.2193,-4.3691,-4.4121,-4.4433,-4.4609,-4.4355,-4.4609,-4.498,-4.4915,-4.5331,-4.5907,-4.6764,-4.7142,-4.7581,-4.8541,-4.8666,-4.8728,-4.8997,-4.9059,-4.9059,-4.9059,-4.9059,-4.9059,-4.9059,-4.9224,0.0,-4.9349,-4.9576,-4.9825,-5.0011,-5.0206,-5.0638,-5.1435,-5.157,-5.1917,-5.2432,-5.2799,-5.3211,-5.3495,-5.3058,0.0,0.0,0.0,-5.2948,-5.3036,-5.3036,0.0,0.0,0.0,0.0,0.0,0.0,0.0,0.0,-5.155,-5.1267,0.0,0.0,0.0,0.0,0.0,0.0,0.0,0.0,0.0,0.0,0.0,0.0,0.0,0.0,0.0,0.0,-1.3597,-1.3553,-1.3417,-1.3403,-1.3403,-1.3403,-1.3576,-1.5066,-1.8328,-1.9008,-2.0621,-2.3948,-2.4528,-2.4782,-2.5035,0.0,0.0,0.0,0.0,-2.5775,-2.6103,-2.6298,-2.6664,-2.7526,-2.7813,-2.83,-2.8671,-2.8951,-2.9085,-2.9098,-2.9326,-3.0525,-3.2179,-3.3541,-3.6289,-3.9651,-3.7064,-3.8786,-4.2797,-4.4407,-4.4785,-4.4531,-4.4902,0.0,0.0,-4.5039,-4.5098,-4.5327,-4.5628,-4.5817,-4.6256,-4.7488,-4.776,-4.8032,-4.8955,-4.9059,-4.9059,-4.9059,-4.9059,-4.9059,-4.9059,-4.91,-4.9142,-4.9142,-4.9514,-4.9845,-4.9908,-4.9908,-5.0052,-5.0446,-5.0839,-5.119,-5.1253,-5.2085,-5.2585,-5.2563,-5.3278,0.0,-5.3931,-5.3495,-5.3451,-5.3997,-5.3211,-5.2555,-5.214,-5.2118,-5.2315,-5.273,-5.273,-5.3363,-5.4652,-5.4652,-5.4652,-5.4587,-5.1594,-5.1114,0.0,0.0,0.0,0.0,0.0,0.0,0.0,0.0,0.0,0.0,0.0,0.0,0.0,0.0,0.0,-1.338,-1.3439,-1.3437,-1.3403,-1.3403,-1.3403,-1.3403,-1.4659,-1.656,-1.8707,-2.0392,-2.22,-2.4387,-2.4806,-2.4987,-2.5047,-2.5252,-2.5543,-2.5933,-2.5933,-2.6273,-2.6613,-2.7183,-2.7641,-2.7826,0.0,0.0,-2.8965,-2.9259,-2.9392,-2.9595,-3.1642,-3.2076,-3.1623,-3.5111,-3.846,-4.1341,-4.2155,-4.3046,-4.4087,-4.4791,-4.498,-4.4922,-4.5,-4.5254,-4.5488,-4.5137,-4.566,-4.6516,-4.6333,-4.6967,0.0,-4.8209,-4.8572,-4.8955,-4.9038,-4.9059,-4.9059,-4.9059,-4.9059,-4.9059,-4.9059,-4.9369,-4.9618,-4.9618,-4.999,-5.0404,-5.0777,-5.0839,-5.088,-5.0963,-5.1319,-5.1976,-5.2733,-5.2987,-5.3277,-5.3626,-5.3538,-5.3516,-5.391,-5.3495,-5.3582,-5.4456,-5.4346,-5.4194,-5.4106,-5.4106,-5.415,-5.4237,-5.4237,-5.4368,-5.4652,-5.4652,-5.4652,-5.463,-5.3997,-5.3888,0.0,0.0,0.0,0.0,0.0,0.0,0.0,0.0,0.0,0.0,0.0,-1.0313,0.0,0.0,-1.3672,-1.3487,-1.3492,-1.3593,-1.3526,-1.358,-1.3593,-1.3526,-1.4412,-1.5653,-1.7574,-1.9615,-2.1431,-2.3302,-2.4734,-2.5567,-2.5567,-2.5871,-2.6348,-2.6644,-2.6519,-2.6689,-2.7341,-2.7654,-2.8076,-2.8261,-2.8871,-2.9259,-2.9272,-2.9566,-3.0301,-3.1507,-3.3041,-3.4321,-3.5917,-3.944,-4.2051,-4.3989,-4.4472,-4.4659,-4.4718,-4.5336,-4.5527,-4.5371,-4.5586,-4.5801,-4.5957,-4.5742,-4.6304,-4.6967,-4.6922,-4.7672,-4.8372,-4.8716,-4.8887,-4.9059,-4.9059,-4.9059,-4.9059,-4.9059,-4.9245,-4.9411,-4.9411,-4.9763,-5.0094,-5.0094,-5.0446,-5.0839,-5.1067,-5.1294,-5.146,-5.146,-5.1977,-5.2597,-5.3209,-5.3749,-5.4127,-5.4303,-5.4084,-5.4041,-5.4281,-5.4084,-5.415,-5.463,-5.4652,-5.4652,-5.4652,-5.4652,-5.4652,-5.4652,-5.4652,-5.4652,-5.4652,-5.4652,-5.4652,-5.4652,-5.4652,-5.4652,0.0,0.0,0.0,0.0,0.0,0.0,0.0,0.0,-0.9735,-1.2443,-1.2908,-1.2889,-1.3561,-1.3728,-1.3693,-1.3614,-1.3722,-1.377,-1.3682,-1.377,-1.381,-1.3722,-1.3715,-1.4599,-1.6933,-1.8641,-2.0647,-2.2884,-2.4949,-2.6103,-2.6273,-2.6613,-2.6897,-2.7285,-2.7132,-2.7328,-2.8076,-2.8194,-2.8419,-2.8778,-2.9312,-2.9566,-2.9579,-2.9873,-3.118,-3.3546,-3.4545,-3.745,-4.1352,-4.3229,-4.4837,-4.6094,-4.5332,-4.5078,-4.5234,-4.5918,-4.6016,-4.584,-4.6191,-4.6308,-4.6308,-4.6483,-4.6832,-4.7181,-4.7701,-4.8199,-4.8544,-4.9059,-4.9059,-4.9059,-4.9059,-4.9142,-4.9204,-4.9204,-4.9556,-4.9887,-4.9887,-5.0239,-5.0549,-5.0549,-5.0922,-5.1212,-5.1129,-5.1501,-5.1791,-5.1972,-5.2692,-5.323,-5.323,-5.4034,-5.4521,-5.4521,-5.4521,-5.4521,-5.4521,-5.4521,-5.4521,-5.4521,-5.4434,-5.4456,-5.4652,-5.4565,-5.4565,-5.4652,-5.4652,-5.4652,-5.4652,-5.474,-5.4805,-5.4805,-5.4893,-5.4893,1.0067,0.5328,0.0,0.0158,-0.0,-0.0,0.0,0.0,-0.4221,-1.0458,-1.126,-1.1137,-1.3065,-1.3505,-1.3614,-1.3627,-1.3641,-1.3688,-1.3804,-1.3831,-1.3885,-1.4007,-1.4021,-1.5399,-1.8831,-1.9713,-2.1566,-2.5361,-2.5908,-2.6273,-2.6613,-2.6796,-2.6978,-2.7526,-2.7735,-2.805,-2.8604,-2.9125,-2.9392,-2.9392,-2.9713,-2.9873,-2.9873,-3.0181,-3.1735,-3.4082,-3.7339,-4.1071,-4.4888,-4.3597,-4.4046,-4.5703,-4.5215,-4.5254,-4.5625,-4.5703,-4.5957,-4.623,-4.6289,-4.6308,-4.6308,-4.6832,-4.7181,-4.7701,-4.8199,-4.8716,-4.9059,-4.9059,-4.9059,-4.9059,-4.9059,-4.9369,-4.968,-4.968,-5.0011,-5.0342,-5.0342,-5.0715,-5.1025,-5.1025,-5.1398,-5.1584,-5.117,-5.1501,-5.1972,-5.2312,-5.2872,-5.3409,-5.3744,-5.3929,-5.4019,-5.4019,-5.4019,-5.4019,-5.4019,-5.4019,-5.4019,-5.4019,-5.3626,-5.3757,-5.463,-5.4237,-5.4215,-5.4652,-5.4652,-5.4652,-5.4652,-5.5089,-5.5308,-5.5308,-5.5744,-5.5723,0.7969,0.0,0.0,0.0,-0.0,-0.0,-0.0,-0.0661,-0.2798,-0.8361,-0.9928,-1.0802,-1.3023,-1.3587,-1.3654,0.0,-1.3824,-1.3905,-1.3966,-1.4048,-1.4129,-1.4197,-1.4204,-1.4899,-1.6459,-1.8766,-2.0895,-2.2794,-2.5542,-2.7132,-2.7148,-2.763,-2.7905,-2.8076,-2.8023,-2.8326,-2.8858,-2.9098,-2.9312,-2.9486,-2.9953,-3.0181,-3.0181,-3.1889,-3.4967,-3.8906,-4.1566,-4.3921,-4.5881,-4.4415,-4.451,-4.5586,-4.4629,-4.4844,-4.5683,-4.5683,-4.5937,-4.6308,-4.6308,-4.6483,-4.6658,-4.7007,-4.7528,-4.8199,-4.8372,-4.8716,-4.9059,-4.9059,-4.9059,-4.9121,-4.939,-4.9618,-4.9825,-5.0073,-5.0487,-5.0818,-5.0818,-5.1191,-5.1522,-5.1522,-5.146,-5.1419,-5.1501,-5.1439,-5.166,-5.2829,-5.2818,-5.3088,-5.3722,-5.3886,-5.4041,-5.4325,-5.4368,-5.4368,-5.4368,-5.4368,-5.4368,-5.4368,-5.4172,-5.4237,-5.463,-5.4456,-5.4587,-5.5067,-5.5089,-5.522,-5.5504,-5.5701,-5.581,-5.581,-5.6028,-5.6138,0.6178,0.0,0.0,-0.0,-0.0,-0.0166,-0.0665,-0.1,-0.2506,-0.6731,-0.8277,-0.9666,-1.2301,-1.2834,-1.3049,-1.3707,-1.4,-1.4089,-1.4129,-1.4231,-1.4299,-1.4299,-1.4476,-1.4489,-1.4531,-1.819,-2.0965,-2.1669,-2.5675,-2.7813,-2.7787,-2.8313,-2.8564,-2.8484,-2.8497,-2.8684,-2.9032,-2.9205,-2.9392,-2.9606,-3.0114,-3.0536,-3.0731,-3.4126,-3.7892,-4.1675,-4.4234,-4.5667,-4.623,-4.5176,-4.5117,-4.5566,-4.4492,-4.4726,-4.5683,-4.5683,-4.5937,-4.6308,-4.6308,-4.6658,-4.7007,-4.7181,-4.7681,-4.8372,-4.8544,-4.8887,-4.9059,-4.9059,-4.9059,-4.9183,-4.9638,-4.9845,-5.0052,-5.0508,-5.0963,-5.1294,-5.1294,-5.1564,-5.1791,-5.1791,-5.1522,-5.1377,-5.1584,-5.1439,-5.1735,-5.2839,-5.2741,-5.2875,-5.4056,-5.4062,-5.4084,-5.4412,-5.4456,-5.4456,-5.4456,-5.4456,-5.4456,-5.4456,-5.4325,-5.4434,-5.4849,-5.4718,-5.4936,-5.557,-5.5592,-5.5766,-5.6116,-5.6247,-5.6312,-5.6312,-5.6443,-5.6684,0.0,0.0,-0.0,-0.0,-0.0,-0.0505,-0.2189,-0.2036,-0.2392,-0.5631,-0.6022,-0.6755,-1.0376,-1.1069,-1.1802,-1.3687,-1.4068,-1.4122,-1.4272,-1.4299,-1.4299,-1.4299,-1.4646,-1.5056,0.0,-1.8743,-2.2081,-2.4916,-2.6845,-2.8076,-2.8591,-2.8604,-2.847,-2.8163,-2.8991,-2.9312,-2.9045,-2.9606,-2.99,-2.99,-3.0207,-3.0718,-3.1276,-3.6702,-3.9368,-4.0067,-4.4454,-4.6289,-4.6269,-4.582,-4.5644,-4.5625,-4.5176,-4.5273,-4.5683,-4.5683,-4.5937,-4.6308,-4.6308,-4.6658,-4.7007,-4.7528,-4.8047,-4.8544,-4.8887,-4.9059,-4.9059,-4.9059,-4.9059,-4.9183,-4.9638,-5.0073,-5.0508,-5.0984,-5.1439,-5.1791,-5.1791,-5.1791,-5.1791,-5.1791,-5.1791,-5.1646,-5.1212,-5.1501,-5.1986,-5.2436,-5.2528,-5.3052,-5.441,-5.4237,-5.3953,-5.3953,-5.3953,-5.3953,-5.3953,-5.3953,-5.3953,-5.3953,-5.3516,-5.3888,-5.5308,-5.4914,-5.5111,-5.6072,-5.6094,-5.6094,-5.6116,-5.6553,-5.6771,-5.6793,-5.7252,-5.7492,0.0,0.0,-0.0,-0.0,-0.0,-0.0512,-0.2406,-0.2588,-0.3112,-0.5871,-0.592,-0.631,-0.8752,-1.0384,-1.1505,-1.2255,-1.3407,-1.4346,-1.4306,-1.438,-1.462,-1.4984,-1.5155,0.0,0.0,0.0,0.0,-2.3152,-2.6661,-2.8539,-2.8323,-2.8671,-2.8764,-2.8457,-2.8925,-2.9232,-2.9325,-2.9726,-3.002,-3.0221,-3.1069,-3.3398,-3.6838,-3.8712,-4.1244,-4.41,-4.528,-4.6055,-4.625,-4.5547,-4.541,-4.5625,-4.5195,-4.5293,-4.5683,-4.5683,-4.6111,-4.6832,-4.6832,-4.7007,-4.7528,-4.8027,-4.8544,-4.8887,-4.9059,-4.9059,-4.9121,-4.9431,-4.9514,-4.9701,-5.0466,-5.0756,-5.1005,-5.146,-5.1688,-5.1791,-5.1791,-5.1791,-5.1791,-5.1791,-5.1543,-5.1398,-5.1543,-5.1439,-5.184,-5.3199,-5.3722,-5.3994,-5.4194,-5.4609,-5.4893,-5.4893,-5.5176,-5.5242,-5.4914,-5.5198,-5.5242,-5.4914,-5.5045,-5.5351,-5.5854,-5.5701,-5.5919,-5.6553,-5.6553,-5.6727,-5.7055,-5.7208,-5.7273,-5.7295,-5.7448,-5.7514,0.9753,0.5169,-0.0,-0.0,-0.0,-0.0345,-0.2084,-0.2618,-0.3323,-0.4719,-0.4742,-0.5115,-0.7047,-0.9056,-1.0733,-1.1493,-1.3232,-1.4577,-1.4543,-1.475,-1.4951,-1.5312,-1.568,-1.6107,0.0,0.0,0.0,-2.2694,-2.6672,-2.8925,-2.8631,-2.8885,-2.8951,-2.8764,-2.9152,-2.9392,-2.9486,-2.9873,-3.0455,-3.1042,-3.1964,-3.4685,-3.8644,-3.9556,-4.1923,-4.5373,-4.5648,-4.6055,-4.6269,-4.5703,-4.5644,-4.5879,-4.5586,-4.5664,-4.5898,-4.5898,-4.652,-4.7225,-4.7066,-4.7354,-4.8047,-4.8372,-4.8716,-4.91,-4.9266,-4.9307,-4.9411,-4.9866,-4.999,-5.0156,-5.0922,-5.1108,-5.1232,-5.1688,-5.1791,-5.1791,-5.1791,-5.1791,-5.1791,-5.1791,-5.1564,-5.146,-5.175,-5.2048,-5.2554,-5.3857,-5.4813,-5.5067,-5.4761,-5.5264,-5.5635,-5.5635,-5.5919,-5.5985,-5.5679,-5.5941,-5.5985,-5.5657,-5.5941,-5.6181,-5.6356,-5.6356,-5.6574,-5.7055,-5.7055,-5.7208,-5.7514,-5.7514,-5.7514,-5.7514,-5.7514,-5.7623,0.867,0.4798,-0.0,-0.0,-0.0,-0.0348,-0.1219,-0.2107,-0.283,-0.2827,-0.2829,-0.3359,0.0,0.0,-0.9509,-1.1411,-1.3362,-1.4801,-1.4936,-1.5385,-1.5469,0.0,0.0,0.0,0.0,0.0,0.0,-2.3889,0.0,-2.9179,-2.9446,-2.9205,-2.9058,-2.9058,-2.9633,-2.9806,-2.9526,-3.0114,-3.1056,-3.1997,-3.3101,-3.4899,-3.7007,-3.9573,-4.1761,-4.3567,-4.5568,-4.6308,-4.6308,-4.6308,-4.6308,-4.6308,-4.6328,-4.6328,-4.6348,-4.6348,-4.6993,-4.7641,-4.7225,-4.7742,-4.8392,-4.8392,-4.8757,-4.9183,-4.9659,-4.9783,-4.9887,-5.0322,-5.0466,-5.057,-5.1025,-5.115,-5.1253,-5.1688,-5.1791,-5.1791,-5.1791,-5.1791,-5.1791,-5.1791,-5.1812,-5.1833,-5.1833,-5.2911,-5.4102,-5.457,-5.5388,-5.6138,-5.6116,-5.6138,-5.6138,-5.6116,-5.6138,-5.6138,-5.6072,-5.6094,-5.6116,-5.6116,-5.6138,-5.6356,-5.6815,-5.6815,-5.7033,-5.7514,-5.7492,-5.7492,-5.7514,-5.7514,-5.7536,-5.7557,-5.7557,-5.7841,0.375,0.1377,-0.0,-0.0,-0.1056,-0.194,-0.1601,-0.2142,-0.2849,-0.2804,-0.283,-0.3026,0.0,0.0,0.0,-0.9437,-1.2883,0.0,-1.535,-1.5964,0.0,-1.6743,0.0,-1.79,-1.9921,-2.2495,0.0,0.0,-2.808,-2.9312,-2.9165,-2.9285,-2.9366,-2.9366,-2.994,-3.0207,-3.014,-3.1083,-3.2115,-3.2863,-3.5063,-3.7296,-3.9573,-4.1761,-4.3745,-4.5568,-4.6114,-4.6308,-4.6308,-4.6308,-4.6308,-4.6328,-4.6641,-4.6777,-4.6816,-4.7485,-4.8215,-4.8651,-4.8884,-4.8972,-4.9056,-4.9403,-4.9576,-4.9659,-5.0115,-5.0259,-5.0342,-5.0798,-5.0943,-5.1046,-5.1501,-5.1626,-5.1646,-5.1771,-5.1791,-5.1791,-5.1791,-5.1791,-5.1791,-5.1791,-5.2081,-5.2309,-5.2309,-5.3232,-5.4245,-5.5081,-5.5699,-5.6143,-5.6159,-5.6422,-5.6487,-5.6159,-5.6422,-5.6334,-5.5635,-5.5897,-5.6116,-5.6116,-5.6443,-5.6837,-5.7317,-5.6989,-5.7033,-5.7514,-5.7164,-5.7164,-5.7514,-5.7514,-5.771,-5.8082,-5.8082,-5.8344,0.1741,-0.0,-0.0,-0.0,-0.1424,-0.2669,-0.2127,-0.248,-0.2816,-0.2757,-0.277,0.0,0.0,0.0,0.0,0.0,0.0,0.0,-1.6146,-1.6532,-1.6918,0.0,-1.7474,0.0,-2.1048,-2.3015,-2.4829,0.0,-2.8616,-2.9472,-2.9432,-2.9459,-2.9539,-2.9673,-3.0127,-3.067,-3.111,-3.1991,-3.3228,-3.4823,-3.6467,-3.8843,-4.1761,-4.2854,-4.4473,-4.6308,-4.6308,-4.6308,-4.6308,-4.6504,-4.6582,-4.6621,-4.7051,-4.7207,-4.7246,-4.8037,-4.8792,-4.9291,-4.9603,-4.9855,-4.9949,-5.0115,-5.0052,-5.0135,-5.0591,-5.0715,-5.0818,-5.1294,-5.1419,-5.1481,-5.1729,-5.1791,-5.1791,-5.1791,-5.1791,-5.1791,-5.1791,-5.1791,-5.1853,-5.206,-5.2474,-5.2868,-5.3054,-5.3839,-5.4731,-5.557,-5.6193,-5.6577,-5.6465,-5.664,-5.6618,-5.6159,-5.6356,-5.629,-5.5744,-5.5963,-5.6116,-5.6116,-5.6553,-5.6924,-5.7186,-5.7142,-5.7252,-5.7514,-5.747,-5.7579,-5.7863,-5.806,-5.83,-5.8584,-5.8584,-5.8824,0.1603,-0.0,-0.0,-0.0359,-0.1616,-0.2679,-0.2797,-0.2784,-0.2763,-0.2695,0.0,-0.2687,-0.2687,-0.5888,-0.8744,-0.977,0.0,-1.5931,-1.6875,-1.7342,-1.7445,-1.7468,-1.8208,-1.9575,-2.1827,-2.3498,-2.5468,-2.772,-2.8924,-2.9646,-2.99,-2.9673,-2.97,-3.002,-3.0327,-3.0912,-3.2025,-3.2757,-3.4344,-3.6822,-3.7927,-4.0118,-4.3389,-4.3745,-4.4668,-4.6308,-4.6367,-4.6348,-4.6348,-4.6816,-4.6992,-4.6973,-4.748,-4.7656,-4.7676,-4.8274,-4.9072,-4.9713,-4.9847,-5.0504,-5.1129,-5.0673,-5.0508,-5.0591,-5.1067,-5.1212,-5.1294,-5.1688,-5.1791,-5.1791,-5.1791,-5.1791,-5.1791,-5.1791,-5.1791,-5.1791,-5.1791,-5.1853,-5.2019,-5.2495,-5.295,-5.3385,-5.3778,-5.4632,-5.5549,-5.5974,-5.6789,-5.7339,-5.6858,-5.6793,-5.6618,-5.6159,-5.605,-5.6007,-5.6007,-5.5963,-5.5941,-5.6007,-5.6443,-5.6749,-5.688,-5.7295,-5.7579,-5.771,-5.8082,-5.8322,-5.8366,-5.8781,-5.8999,-5.9065,-5.9065,-5.9327,0.0352,-0.0,-0.0355,-0.1971,-0.1976,-0.1786,-0.2623,-0.2784,0.0,0.0,-0.2637,-0.2656,-0.2656,-0.4738,-0.7139,-0.9379,0.0,0.0,0.0,0.0,-1.8046,0.0,0.0,0.0,0.0,0.0,0.0,0.0,-2.9853,-2.986,-2.9913,-2.9873,-3.0087,-3.0621,-3.0929,-3.1423,-3.2326,-3.4534,-3.6036,-3.6822,-4.0662,-4.2676,-4.3389,-4.5021,-4.5939,-4.6328,-4.666,0.0,-4.6367,-4.7148,-4.7246,-4.7012,-4.7793,-4.8105,-4.8326,-4.9429,-4.9974,-5.0398,-5.1224,-5.1605,-5.1605,-5.115,-5.0984,-5.1087,-5.1543,-5.1688,-5.1708,-5.1771,-5.1791,-5.1791,-5.1791,-5.1791,-5.1791,-5.1791,-5.1791,-5.1791,-5.1791,-5.2102,-5.2516,-5.2971,-5.3427,-5.3758,-5.384,-5.4905,-5.5932,-5.6017,-5.6789,-5.7339,-5.6858,-5.6793,-5.6618,-5.6159,-5.5744,-5.5504,-5.5504,-5.5133,-5.5089,-5.5482,-5.5963,-5.6574,-5.7361,-5.747,-5.7907,-5.8693,-5.8431,-5.8475,-5.8846,-5.8934,-5.9174,-5.9567,-5.9567,-5.9829,-0.0,-0.0,-0.0532,-0.2328,-0.2515,-0.2315,-0.2584,0.0,0.0,0.0,-0.2581,-0.2607,-0.262,-0.4358,0.0,0.0,0.0,0.0,0.0,0.0,0.0,0.0,0.0,0.0,0.0,0.0,0.0,0.0,-3.0167,-2.998,-3.014,-3.0287,-3.0568,-3.1009,-3.1156,-3.1745,-3.2786,-3.4075,-3.5911,-3.8843,-4.0843,-4.3033,-4.5021,-4.5939,-4.6308,-4.6328,-4.6738,-4.6699,-4.6387,-4.7461,-4.7519,-4.7031,-4.8125,-4.8418,-4.8444,-4.9811,-5.0337,-5.0519,-5.1429,-5.1791,-5.1771,-5.1543,-5.146,-5.1522,-5.1729,-5.1791,-5.1791,-5.1791,-5.1791,-5.1791,-5.1791,-5.1791,-5.1791,-5.1791,-5.1978,-5.2164,-5.2164,-5.2702,-5.3261,-5.3489,-5.3903,-5.4213,-5.4591,-5.5114,-5.5655,-5.6029,-5.6392,-5.6618,-5.6116,-5.6072,-5.5985,-5.5766,-5.5526,-5.5395,-5.5395,-5.5613,-5.5875,-5.6094,-5.6837,-5.7448,-5.7907,-5.8147,-5.8497,-5.8955,-5.8999,-5.913,-5.9349,-5.9611,-5.9851,-6.0069,-6.0069,-6.02,-0.0,-0.0351,-0.088,-0.2313,-0.2676,-0.2825,-0.2709,-0.2683,0.0,0.0,-0.2533,-0.256,-0.2596,-0.4316,-0.645,0.0,0.0,0.0,0.0,0.0,0.0,0.0,0.0,0.0,0.0,0.0,0.0,0.0,-3.0327,-3.0181,-3.0354,-3.0702,-3.0996,-3.1223,-3.1289,-3.1987,-3.3163,-3.4089,-3.6467,-4.0481,-4.1471,-4.3463,-4.6308,-4.6387,-4.6445,-4.6465,-4.6894,-4.6836,-4.6523,-4.7715,-4.7754,-4.7168,-4.8281,-4.8574,-4.8561,-4.9831,-5.0337,-5.0519,-5.1429,-5.1791,-5.1791,-5.1791,-5.1791,-5.1791,-5.1791,-5.1791,-5.1791,-5.1791,-5.1791,-5.1791,-5.1791,-5.1791,-5.1833,-5.1936,-5.2226,-5.2536,-5.2743,-5.3261,-5.3737,-5.382,-5.4151,-5.4589,-5.5157,-5.5112,-5.5394,-5.6056,-5.6143,-5.6116,-5.5744,-5.5679,-5.5679,-5.5679,-5.5504,-5.5504,-5.581,-5.6422,-5.6837,-5.6946,-5.7798,-5.8322,-5.8431,-5.8868,-5.9174,-5.9283,-5.9654,-5.9851,-5.9851,-6.0244,-6.0419,-6.0419,-6.0419,-6.0419,-0.0,-0.1202,-0.2236,-0.1565,-0.2093,-0.2767,-0.2672,0.0,0.0,-0.2533,-0.2517,-0.2536,-0.2592,-0.4072,0.0,0.0,0.0,-1.3362,0.0,0.0,0.0,0.0,0.0,0.0,0.0,0.0,0.0,0.0,0.0,-3.0608,-3.0381,-3.0889,-3.1196,-3.1223,-3.149,-3.2205,-3.3163,-3.6622,-3.9192,-4.0498,-4.4491,-4.6307,-4.6308,-4.6699,-4.6875,-4.6894,-4.7324,-4.7266,0.0,-4.7832,-4.793,-4.7578,-4.8066,-4.8476,-4.8993,-4.9951,-5.0337,-5.0519,-5.1429,-5.1791,-5.1791,-5.1791,-5.1791,-5.1791,-5.1791,-5.1791,-5.1791,-5.1791,-5.1791,-5.1791,-5.1791,-5.1791,-5.1915,-5.2329,-5.2454,-5.2723,-5.3551,-5.3468,-5.3364,-5.3758,-5.3882,-5.4091,-5.4653,-5.4626,-5.501,-5.6013,-5.6403,-5.6706,-5.6684,-5.6662,-5.6662,-5.6662,-5.5897,-5.5919,-5.7208,-5.7011,-5.6989,-5.7426,-5.7972,-5.8475,-5.889,-5.937,-5.9829,-6.0288,-6.0332,-6.0353,-6.0353,-6.0397,-6.0419,-6.0419,-6.0419,-6.0419,-0.0,-0.137,-0.2574,-0.2254,-0.2435,-0.2759,-0.2668,0.0,0.0,-0.2533,-0.2529,-0.2872,-0.405,-0.4737,-0.6282,0.0,0.0,0.0,0.0,0.0,0.0,0.0,0.0,0.0,0.0,0.0,0.0,0.0,0.0,-3.0996,-3.0889,-3.1276,-3.149,-3.149,-3.1975,-3.296,-3.4995,-3.6822,-3.9192,-4.23,-4.3911,-4.5503,-4.668,-4.6601,-4.6699,-4.6933,-4.7109,-4.6953,0.0,-4.7754,-4.7656,-4.6914,-4.7851,-4.8164,-4.8307,-4.9491,-5.0116,-5.0519,-5.1429,-5.1791,-5.175,-5.1481,-5.1377,-5.1377,-5.1377,-5.1377,-5.1377,-5.1377,-5.1584,-5.1874,-5.2143,-5.2226,-5.2267,-5.2454,-5.2495,-5.2599,-5.295,-5.3116,-5.3323,-5.3758,-5.38,-5.409,-5.4548,-5.4514,-5.4904,-5.556,-5.5774,-5.605,-5.6356,-5.6378,-5.6487,-5.6771,-5.6727,-5.6902,-5.747,-5.8147,-5.8628,-5.8824,-5.9305,-5.9654,-5.9829,-6.0026,-6.0222,-6.0419,-6.0419,-6.0419,-6.0419,-6.0419,-6.0419,-6.0419,-6.0419,-6.0419,-0.0,-0.1192,-0.2389,-0.2589,-0.2757,-0.2727,0.0,0.0,0.0,-0.2529,-0.3012,-0.3687,-0.5024,-0.6224,-0.7781,0.0,0.0,-1.3774,0.0,0.0,0.0,0.0,0.0,0.0,0.0,0.0,0.0,0.0,0.0,-3.1263,-3.1356,-3.1557,-3.1664,-3.1664,-3.2232,-3.3511,-3.6081,-3.7191,-3.9606,-4.3554,-4.4108,-4.5363,-4.6933,-4.6758,-4.6836,-4.7129,-4.7129,-4.6953,0.0,-4.7519,-4.7305,-4.6582,-4.748,-4.7734,-4.7797,-4.9012,-4.9773,-5.0338,-5.1224,-5.1584,-5.1543,-5.1212,-5.0922,-5.0715,-5.0715,-5.0798,-5.0901,-5.0901,-5.1336,-5.1874,-5.2205,-5.2495,-5.2661,-5.2516,-5.2495,-5.2536,-5.2661,-5.2847,-5.3075,-5.3385,-5.3364,-5.3608,-5.4314,-5.4251,-5.4431,-5.5267,-5.5542,-5.5679,-5.5875,-5.6138,-5.6378,-5.6574,-5.7295,-5.7798,-5.7929,-5.889,-5.9611,-5.9895,-6.0244,-6.0419,-6.0419,-6.0419,-6.0419,-6.0419,-6.0419,-6.0419,-6.0419,-6.0419,-6.0419,-6.0419,-6.0419,-6.0419,-0.0,-0.0673,-0.1519,-0.256,-0.2692,-0.2647,0.0,0.0,0.0,-0.2521,-0.3959,-0.5123,-0.5347,-0.8182,-1.0585,-1.0704,0.0,0.0,0.0,0.0,0.0,0.0,0.0,0.0,0.0,0.0,0.0,0.0,0.0,0.0,-3.165,-3.1664,-3.1664,-3.1664,-3.2232,-3.3511,-3.6081,-3.8445,-4.1197,-4.3976,-4.6006,-4.6933,-4.6933,-4.7383,-4.7578,-4.7578,-4.7578,-4.7578,0.0,-4.7109,-4.6933,-4.6933,-4.6933,-4.7207,-4.7758,-4.8673,-4.9311,-4.9873,-5.0771,-5.1108,-5.1108,-5.1108,-5.0508,-4.9763,-4.9763,-5.0073,-5.0425,-5.0425,-5.1087,-5.1791,-5.1812,-5.2495,-5.3054,-5.2599,-5.2495,-5.2619,-5.3075,-5.2826,-5.2495,-5.2495,-5.2495,-5.2861,-5.3729,-5.3549,-5.3758,-5.5129,-5.581,-5.5941,-5.546,-5.6203,-5.6618,-5.6159,-5.7426,-5.8453,-5.8912,-5.8977,-5.9392,-6.0353,-6.0419,-6.0419,-6.0419,-6.0419,-6.0419,-6.0419,-6.0419,-6.0419,-6.0419,-6.0419,-6.0419,-6.0419,-6.0419,-6.0419,-0.1,-0.1506,-0.2354,-0.2679,-0.2661,-0.2637,-0.2597,0.0,0.0,-0.4132,-0.4806,-0.5991,-0.8508,-0.9927,-1.1208,-1.2514,-1.4013,0.0,0.0,0.0,0.0,0.0,0.0,0.0,0.0,0.0,0.0,0.0,0.0,0.0,-3.1664,-3.1664,-3.1664,-3.1664,-3.3887,-3.5896,-3.8079,-4.1084,-4.3848,-4.6006,-4.6869,-4.7519,-4.7793,-4.7656,-4.7578,-4.7558,-4.7266,-4.6973,-4.6719,-4.6875,-4.6758,-4.6523,-4.6816,-4.7012,-4.7307,-4.8213,-4.9049,-4.9833,-5.0401,-5.0839,-5.1005,-5.0384,-4.999,-4.9701,-4.939,-4.9597,-5.0094,-5.0715,-5.1564,-5.2267,-5.2267,-5.2495,-5.2681,-5.2536,-5.2247,-5.206,-5.2205,-5.2122,-5.2122,-5.2433,-5.2408,-5.2646,-5.3324,-5.3528,-5.3937,-5.477,-5.5346,-5.5679,-5.5854,-5.6138,-5.64,-5.6553,-5.6989,-5.7601,-5.8431,-5.9392,-6.0091,-6.0397,-6.0419,-6.0419,-6.0419,-6.0419,-6.0419,-6.0419,-6.0419,-6.0419,-6.0419,-6.0419,-6.0419,-6.0419,-6.0419,-6.0419,-0.1989,-0.2157,-0.266,-0.2664,-0.2639,0.0,0.0,0.0,0.0,-0.5734,-0.6755,-0.7969,-1.0356,-1.1305,-1.2087,-1.3526,-1.4462,0.0,0.0,0.0,0.0,0.0,0.0,0.0,0.0,0.0,0.0,0.0,0.0,0.0,-3.1664,-3.177,-3.2395,-3.3317,-3.5345,-3.7241,-3.9389,-4.2597,-4.5393,-4.7402,-4.7519,-4.7793,-4.8203,-4.793,-4.7734,-4.7558,-4.7285,-4.6933,0.0,-4.6641,-4.6543,-4.6328,-4.6601,-4.6699,-4.6875,-4.7754,-4.8586,-4.9328,-4.9929,-5.0363,-5.0508,-4.9949,-4.9763,-4.9742,-4.9618,-4.9659,-4.9949,-5.086,-5.1646,-5.2226,-5.2226,-5.2371,-5.2454,-5.2267,-5.1998,-5.1791,-5.1791,-5.1791,-5.1895,-5.2185,-5.218,-5.2416,-5.3071,-5.3421,-5.3873,-5.4532,-5.5085,-5.5439,-5.5548,-5.5897,-5.6159,-5.6247,-5.6749,-5.7317,-5.7951,-5.8999,-5.9764,-6.0135,-6.0157,-6.0244,-6.0419,-6.0419,-6.0419,-6.0419,-6.0419,-6.0419,-6.0419,-6.0419,-6.0419,-6.0419,-6.0419,-6.0528,0.0,-0.2626,-0.2617,-0.2836,-0.2784,-0.3205,-0.4849,0.0,0.0,0.0,0.0,-1.0561,-1.0846,-1.2301,-1.3569,-1.4081,-1.4419,0.0,0.0,0.0,0.0,0.0,0.0,0.0,0.0,0.0,0.0,0.0,0.0,0.0,-3.188,-3.2135,-3.3611,-3.6269,-3.6819,-3.8274,-4.0441,-4.348,-4.6121,-4.8203,-4.7851,-4.7871,-4.8262,-4.8262,-4.8027,0.0,-4.7617,-4.7363,-4.6894,-4.6504,-4.6328,-4.6308,-4.6308,-4.6308,-4.6483,-4.7354,-4.8003,-4.8541,-4.9374,-4.9721,-4.9763,-4.9763,-4.9783,-4.9887,-5.0342,-5.0177,-5.0032,-5.088,-5.1439,-5.1791,-5.1791,-5.2122,-5.2329,-5.1895,-5.1791,-5.1791,-5.1791,-5.1791,-5.1791,-5.1791,-5.1791,-5.2152,-5.3051,-5.323,-5.3587,-5.4475,-5.5045,-5.5176,-5.4761,-5.5504,-5.5919,-5.5526,-5.6684,-5.7492,-5.7514,-5.8016,-5.8715,-5.9633,-5.9698,-5.9917,-6.0397,-6.0419,-6.0419,-6.0419,-6.0419,-6.0419,-6.0419,-6.0419,-6.0419,-6.0419,-6.0463,-6.0703,-0.2572,0.0,-0.2925,-0.4205,-0.4495,-0.4939,0.0,-0.6919,-0.7381,-0.9213,-1.0121,0.0,0.0,-1.2966,-1.3604,-1.4216,0.0,0.0,0.0,0.0,0.0,0.0,0.0,0.0,0.0,0.0,0.0,0.0,0.0,-3.2504,-3.4216,-3.4492,-3.5881,-3.9053,-4.1151,-4.2359,-4.3058,-4.5994,-4.7722,-4.8203,-4.8457,-4.8613,-4.8711,-4.8711,-4.8476,-4.8066,-4.8066,-4.7637,-4.6914,-4.6816,-4.6601,-4.6308,-4.6308,-4.6308,-4.6483,-4.7354,-4.8003,-4.85,-4.9004,-4.9452,-4.9763,-4.9763,-4.999,-5.0342,-5.0818,-5.088,-5.0839,-5.1046,-5.1439,-5.1791,-5.1791,-5.1874,-5.1936,-5.1833,-5.1791,-5.1791,-5.1791,-5.1791,-5.1791,-5.1791,-5.2152,-5.2513,-5.3051,-5.3587,-5.3943,-5.4652,-5.4761,-5.4914,-5.5176,-5.5417,-5.5788,-5.64,-5.6771,-5.7121,-5.7492,-5.8322,-5.9065,-5.9654,-5.9698,-5.9917,-6.0397,-6.0419,-6.0419,-6.0419,-6.0419,-6.0419,-6.0419,-6.0419,-6.0419,-6.0441,-6.079,-6.1009,-0.348,-0.3676,-0.4029,-0.4987,-0.5762,-0.668,-0.8373,-0.8641,-0.9105,-1.0955,0.0,0.0,0.0,0.0,0.0,0.0,-1.6991,0.0,0.0,0.0,0.0,0.0,0.0,0.0,0.0,0.0,0.0,0.0,0.0,-3.3653,-3.5075,-3.6171,-3.8371,-4.1592,-4.3292,-4.4213,-4.4353,-4.724,-4.8496,-4.8516,-4.875,-4.8867,-4.8867,-4.8867,-4.8613,-4.8203,-4.8203,-4.7832,-4.7207,-4.7012,-4.6797,-4.6562,-4.6367,-4.6483,-4.6658,-4.7354,-4.8036,-4.8545,-4.897,-4.9369,-4.9825,-5.0239,-5.0549,-5.0818,-5.1294,-5.1419,-5.1419,-5.1419,-5.1605,-5.1791,-5.1791,-5.1791,-5.1791,-5.1791,-5.1791,-5.1791,-5.1791,-5.1791,-5.1791,-5.1791,-5.2152,-5.2671,-5.3051,-5.3587,-5.4186,-5.4958,-5.498,-5.5155,-5.5657,-5.5897,-5.6225,-5.6749,-5.6989,-5.723,-5.7514,-5.7994,-5.8519,-5.9021,-5.9043,-5.9261,-5.9742,-5.9982,-6.0091,-6.0091,-6.0091,-6.0091,-6.0091,-6.0091,-6.02,-6.0441,-6.0681,-6.0899,-0.4714,-0.5554,-0.6097,-0.5966,-0.7061,-0.8609,-1.0166,-1.0392,-1.082,0.0,0.0,0.0,0.0,-1.5347,0.0,0.0,0.0,0.0,0.0,0.0,0.0,0.0,0.0,0.0,0.0,0.0,0.0,0.0,0.0,-3.5,-3.5643,-3.7899,-4.0895,-4.407,-4.4652,-4.5038,-4.5567,-4.7883,-4.8867,-4.8867,-4.8867,-4.8867,-4.8867,-4.8867,-4.8652,-4.8301,0.0,0.0,-4.7637,-4.7129,-4.6933,-4.6894,-4.6465,-4.6658,-4.7007,-4.7528,-4.8047,-4.8544,-4.897,-4.9473,-4.999,-5.0839,-5.117,-5.1294,-5.1688,-5.1791,-5.1791,-5.1791,-5.1791,-5.1791,-5.1791,-5.1791,-5.1791,-5.1791,-5.1791,-5.1791,-5.1791,-5.1791,-5.1791,-5.1791,-5.2152,-5.2713,-5.3136,-5.3694,-5.438,-5.5417,-5.5504,-5.5679,-5.6159,-5.6553,-5.6815,-5.6902,-5.7273,-5.7514,-5.7514,-5.7514,-5.771,-5.8147,-5.8235,-5.8519,-5.9065,-5.9414,-5.9633,-5.9698,-5.9633,-5.9633,-5.9698,-5.9698,-5.9982,-6.0528,-6.0528,-6.0768,-0.5076,-0.7424,-0.9769,-0.9341,-0.9724,-1.044,-1.181,-1.2205,-1.2198,0.0,0.0,0.0,0.0,-1.402,-1.4578,0.0,0.0,0.0,0.0,0.0,0.0,0.0,0.0,0.0,0.0,0.0,0.0,0.0,0.0,-3.5787,-3.771,-4.0778,-4.3643,-4.6167,-4.7155,-4.7736,-4.8273,-4.8663,-4.8867,-4.8867,-4.8867,-4.8867,-4.8867,-4.8867,-4.8828,-4.873,0.0,-4.8164,-4.8047,-4.7246,-4.6933,-4.6894,-4.6465,-4.6658,-4.7007,-4.7528,-4.8047,-4.8585,-4.9341,-4.9949,-5.0404,-5.0943,-5.1377,-5.1708,-5.1791,-5.1791,-5.1791,-5.1791,-5.1791,-5.1791,-5.1791,-5.1791,-5.1791,-5.1791,-5.1791,-5.1791,-5.1791,-5.1791,-5.1791,-5.1791,-5.2513,-5.3178,-5.374,-5.4547,-5.5439,-5.5919,-5.6007,-5.6159,-5.664,-5.6749,-5.6946,-5.7361,-5.747,-5.7514,-5.7514,-5.7514,-5.7557,-5.7645,-5.8038,-5.8671,-5.9545,-5.9261,-5.9261,-5.9698,-5.9283,-5.9283,-5.9698,-5.9698,-6.0157,-6.1009,-6.1009,-6.1271,-0.7248,-0.9143,-1.0728,-1.1519,-1.1894,-1.2282,-1.2976,-1.3112,-1.3064,0.0,0.0,0.0,0.0,0.0,-1.9525,-2.3634,0.0,0.0,0.0,0.0,0.0,0.0,0.0,0.0,0.0,0.0,0.0,0.0,0.0,0.0,-3.9924,-4.2513,-4.4875,-4.6762,-4.7366,-4.7964,-4.8516,-4.873,-4.8867,-4.8867,-4.8867,-4.8867,-4.8867,-4.8867,-4.8867,-4.8828,0.0,-4.834,-4.8476,-4.7383,-4.707,-4.7226,-4.6914,-4.7007,-4.7528,-4.822,-4.8544,-4.8949,-4.9597,-5.0052,-5.0487,-5.0963,-5.1419,-5.1791,-5.1791,-5.1791,-5.1791,-5.1791,-5.1791,-5.1791,-5.1791,-5.1791,-5.1791,-5.1791,-5.1791,-5.1791,-5.1791,-5.1791,-5.1791,-5.1791,-5.2701,-5.3655,-5.3868,-5.4849,-5.5941,-5.64,-5.6487,-5.6662,-5.7121,-5.7186,-5.7273,-5.7492,-5.7514,-5.7514,-5.7514,-5.7514,-5.7514,-5.7514,-5.7754,-5.8191,-5.8912,-5.8453,-5.8431,-5.8912,-5.8955,-5.9086,-5.9305,-5.9567,-6.0048,-6.0747,-6.0747,-6.0856,-0.9216,-1.0476,-1.1284,-1.2582,0.0,0.0,0.0,-1.3573,-1.3485,-1.3356,0.0,0.0,0.0,0.0,0.0,0.0,0.0,0.0,0.0,0.0,0.0,0.0,0.0,0.0,0.0,0.0,0.0,0.0,0.0,0.0,-4.0909,-4.3506,-4.5611,-4.6838,-4.7443,-4.7896,-4.8359,-4.8691,-4.8867,-4.8867,-4.8867,-4.8867,-4.8867,-4.8867,-4.8867,-4.8828,-4.8398,-4.8398,-4.8613,-4.7422,-4.7129,-4.7363,-4.7129,-4.7354,-4.8047,-4.8716,-4.9059,-4.9142,-4.9721,-5.0135,-5.0508,-5.1087,-5.1522,-5.1791,-5.1791,-5.1791,-5.1791,-5.1791,-5.1791,-5.1791,-5.1791,-5.1791,-5.1791,-5.1791,-5.1791,-5.1791,-5.1791,-5.1791,-5.1833,-5.1936,-5.2953,-5.3974,-5.4187,-5.528,-5.6422,-5.6902,-5.6968,-5.7099,-5.747,-5.7514,-5.7514,-5.7514,-5.7514,-5.7514,-5.7514,-5.7514,-5.7514,-5.7514,-5.7514,-5.7754,-5.8256,-5.7907,-5.7929,-5.8431,-5.8781,-5.9021,-5.913,-5.9501,-6.0004,-6.0572,-6.0463,-6.0484,-0.9976,-1.1203,-1.2588,-1.2745,-1.2881,0.0,-1.3532,-1.341,-1.3315,-1.3709,-1.4263,0.0,0.0,0.0,0.0,0.0,0.0,0.0,0.0,0.0,0.0,0.0,0.0,0.0,0.0,0.0,0.0,0.0,0.0,0.0,-3.8526,-4.3233,-4.6276,-4.6857,-4.7625,-4.8398,-4.8808,-4.8848,-4.8867,-4.8867,-4.8867,-4.8867,-4.8867,-4.8867,-4.8867,-4.8828,-4.8398,-4.8223,-4.8183,-4.7285,-4.6953,-4.6933,-4.701,-4.7508,-4.8372,-4.8887,-4.9059,-4.9183,-5.0073,-5.0404,-5.057,-5.146,-5.1771,-5.1791,-5.1791,-5.1791,-5.1791,-5.1791,-5.1791,-5.1791,-5.1791,-5.1791,-5.1791,-5.1791,-5.1791,-5.1791,-5.1791,-5.1791,-5.1936,-5.2371,-5.3163,-5.4187,-5.5059,-5.5991,-5.6924,-5.7405,-5.747,-5.7492,-5.7514,-5.7514,-5.7514,-5.7514,-5.7514,-5.7514,-5.7514,-5.7514,-5.7514,-5.7514,-5.7514,-5.7754,-5.8256,-5.8256,-5.8453,-5.8912,-5.8955,-5.9196,-5.9633,-5.9676,-6.0157,-6.1052,-6.0615,-6.0659,-1.1121,-1.2076,-1.2732,-1.2732,-1.2915,0.0,0.0,-1.3817,-1.3919,-1.4089,-1.4743,-1.6055,0.0,0.0,0.0,0.0,0.0,0.0,0.0,0.0,0.0,0.0,0.0,0.0,0.0,0.0,0.0,0.0,0.0,0.0,-4.0481,-4.3,-4.5156,-4.6811,-4.7671,-4.8281,-4.8457,-4.873,-4.8867,-4.8867,-4.8867,-4.8867,-4.8848,-4.8574,-4.8457,-4.8418,-4.7715,-4.7558,-4.7754,-4.6894,-4.6875,-4.7425,-4.7668,-4.8199,-4.8887,-4.9059,-4.9245,-4.9535,-4.9887,-5.0197,-5.0529,-5.117,-5.1377,-5.1419,-5.1708,-5.1791,-5.1791,-5.1791,-5.1791,-5.1791,-5.1791,-5.1791,-5.1791,-5.1791,-5.1791,-5.1791,-5.1791,-5.2019,-5.245,-5.2819,-5.3851,-5.4889,-5.5643,-5.6685,-5.7317,-5.7492,-5.7514,-5.7514,-5.7514,-5.7514,-5.7514,-5.7514,-5.7798,-5.7994,-5.7994,-5.8256,-5.8431,-5.8431,-5.7863,-5.7754,-5.8256,-5.8278,-5.8497,-5.8955,-5.9261,-5.9501,-5.9698,-6.0004,-6.0332,-6.0681,-6.0506,-6.0528,-1.2046,-1.2542,-1.2752,-1.2847,0.0,0.0,-1.3858,-1.4109,-1.4306,-1.4771,-1.5469,-1.7063,-2.0941,0.0,0.0,0.0,0.0,0.0,0.0,0.0,0.0,0.0,0.0,0.0,0.0,0.0,0.0,0.0,0.0,0.0,0.0,-4.2494,-4.4429,-4.7129,-4.7832,-4.8281,-4.8418,-4.8711,-4.8867,-4.8867,-4.8867,-4.8867,-4.8848,-4.8398,-4.8203,-4.8164,-4.7441,-4.7226,-4.7324,-4.6738,-4.6953,-4.7754,-4.8149,-4.8716,-4.9059,-4.9059,-4.9369,-4.9783,-4.9928,-5.0259,-5.0715,-5.117,-5.1336,-5.1377,-5.1708,-5.1791,-5.1791,-5.1791,-5.1791,-5.1833,-5.1978,-5.1915,-5.1791,-5.1791,-5.1915,-5.2019,-5.2019,-5.2392,-5.2927,-5.3604,-5.452,-5.5565,-5.6272,-5.6946,-5.7514,-5.7514,-5.7667,-5.7754,-5.7754,-5.7885,-5.7972,-5.7972,-5.8278,-5.8497,-5.8497,-5.8781,-5.8977,-5.8977,-5.8344,-5.8147,-5.8475,-5.865,-5.8868,-5.9196,-5.9676,-5.9917,-5.9917,-6.0266,-6.0419,-6.0419,-6.0419,-6.0419,-1.2494,-1.261,-1.2807,0.0,0.0,0.0,-1.4129,-1.4183,-1.4503,-1.5967,-1.6221,-1.7936,-2.3672,-2.4009,0.0,0.0,0.0,0.0,0.0,0.0,0.0,0.0,0.0,0.0,0.0,0.0,0.0,0.0,0.0,0.0,0.0,-4.1751,-4.4559,-4.7578,-4.7988,-4.8418,-4.8848,-4.8848,-4.8848,-4.8848,-4.8848,-4.8848,-4.8828,-4.8398,-4.8203,-4.8164,-4.7754,-4.7324,-4.6914,-4.6914,-4.7208,-4.7701,-4.8199,-4.8716,-4.9059,-4.9059,-4.9369,-4.9825,-5.0259,-5.0715,-5.1191,-5.1646,-5.1791,-5.1791,-5.1791,-5.1791,-5.1791,-5.1791,-5.1812,-5.1915,-5.2371,-5.2164,-5.1812,-5.1812,-5.2164,-5.2495,-5.2495,-5.2868,-5.3509,-5.4506,-5.4964,-5.5671,-5.6703,-5.7163,-5.7514,-5.7514,-5.7951,-5.8278,-5.83,-5.8693,-5.8977,-5.8977,-5.8977,-5.8977,-5.8977,-5.8977,-5.8977,-5.8977,-5.8977,-5.8977,-5.8977,-5.9436,-5.9698,-5.9698,-6.0179,-6.0419,-6.0419,-6.0419,-6.0419,-6.0419,-6.0419,-6.0419,-1.2033,-1.2522,0.0,-1.2888,0.0,0.0,0.0,-1.4694,0.0,0.0,-2.1683,-2.4106,-2.4779,0.0,0.0,0.0,0.0,0.0,0.0,0.0,0.0,0.0,0.0,0.0,0.0,0.0,0.0,0.0,0.0,0.0,0.0,-4.1419,-4.405,-4.7826,-4.8437,-4.873,-4.8867,-4.8555,-4.8398,-4.8398,-4.8105,-4.8105,-4.8379,-4.7949,-4.7598,-4.7285,-4.6855,-4.6601,-4.6484,-4.7185,-4.7802,-4.8199,-4.8716,-4.9059,-4.9059,-4.9059,-4.9556,-5.0239,-5.0363,-5.0715,-5.1191,-5.1646,-5.1584,-5.1377,-5.1708,-5.1791,-5.1791,-5.1791,-5.204,-5.2309,-5.2454,-5.264,-5.2764,-5.2764,-5.2868,-5.2971,-5.2971,-5.3323,-5.3862,-5.4921,-5.5238,-5.568,-5.7141,-5.7163,-5.7163,-5.7536,-5.7951,-5.8409,-5.8715,-5.889,-5.8977,-5.8977,-5.9283,-5.948,-5.948,-5.9785,-5.9982,-5.9982,-5.9982,-5.9829,-5.9501,-5.9611,-5.9851,-6.02,-6.0353,-6.0419,-6.0419,-6.0419,-6.0419,-6.0419,-6.0419,-6.0419,-1.2657,-1.3159,0.0,-1.362,-1.429,-1.5369,-1.6826,0.0,0.0,0.0,0.0,-2.6561,-2.7452,0.0,0.0,0.0,0.0,0.0,0.0,0.0,0.0,0.0,0.0,0.0,0.0,0.0,0.0,0.0,0.0,0.0,0.0,-4.0866,-4.3492,-4.6884,-4.8245,-4.8769,-4.8594,-4.834,-4.8125,-4.7949,-4.7695,-4.7617,-4.7695,-4.7441,-4.7187,-4.6914,-4.6484,-4.6483,-4.6658,-4.7354,-4.8047,-4.8372,-4.8887,-4.9059,-4.908,-4.9266,-4.9804,-5.0446,-5.0632,-5.1005,-5.1439,-5.1708,-5.1605,-5.1439,-5.1708,-5.1791,-5.1833,-5.2019,-5.2267,-5.2578,-5.293,-5.324,-5.3406,-5.322,-5.3323,-5.3447,-5.3447,-5.3799,-5.4298,-5.5051,-5.5283,-5.5724,-5.7236,-5.7257,-5.7322,-5.806,-5.8519,-5.9021,-5.948,-5.9545,-5.9545,-5.9545,-5.9807,-5.9982,-5.9982,-6.0244,-6.0419,-6.0419,-6.0419,-6.0288,-6.0004,-5.9982,-6.0135,-6.0419,-6.0419,-6.0419,-6.0419,-6.0419,-6.0419,-6.0419,-6.0419,-6.0419,-1.3783,0.0,0.0,-1.4808,-1.5583,0.0,-2.002,-2.1234,-2.2934,-2.6731,0.0,0.0,0.0,0.0,0.0,0.0,0.0,0.0,0.0,0.0,0.0,0.0,0.0,0.0,0.0,0.0,0.0,0.0,0.0,0.0,0.0,-4.0171,-4.297,-4.5187,-4.7634,-4.8594,-4.8164,-4.8105,-4.7891,-4.7519,-4.748,-4.7266,-4.6875,-4.6914,-4.6914,-4.6855,-4.6465,-4.6658,-4.7181,-4.7528,-4.8027,-4.8544,-4.8887,-4.91,-4.9183,-4.9597,-5.0073,-5.0549,-5.0963,-5.1419,-5.1791,-5.1791,-5.1791,-5.1791,-5.1791,-5.1833,-5.1957,-5.2371,-5.2557,-5.2806,-5.3633,-5.3882,-5.3799,-5.3406,-5.3613,-5.3903,-5.3903,-5.4234,-5.4735,-5.5156,-5.5367,-5.5683,-5.7289,-5.7565,-5.7928,-5.8955,-5.9414,-5.9873,-6.0353,-6.0419,-6.0419,-6.0419,-6.0419,-6.0419,-6.0419,-6.0419,-6.0419,-6.0419,-6.0419,-6.0419,-6.0419,-6.0419,-6.0419,-6.0419,-6.0419,-6.0419,-6.0419,-6.0419,-6.0419,-6.0419,-6.0419,-6.0419,0.0,-1.3553,0.0,0.0,-1.7397,-2.0778,-2.5007,-2.6307,-2.6874,-2.7298,0.0,0.0,0.0,0.0,0.0,0.0,0.0,0.0,0.0,0.0,0.0,0.0,0.0,0.0,0.0,0.0,0.0,0.0,0.0,0.0,-3.8292,-4.0724,-4.3029,-4.5187,-4.7163,-4.8144,-4.7715,-4.7363,-4.7148,-4.707,-4.6738,-4.6523,-4.6445,-4.6777,-4.6738,-4.6426,-4.6697,-4.7181,-4.7528,-4.8027,-4.8544,-4.8887,-4.9059,-4.9287,-4.9618,-4.9721,-5.0259,-5.0984,-5.1067,-5.1419,-5.1791,-5.1791,-5.1791,-5.1791,-5.1791,-5.206,-5.2371,-5.2474,-5.3013,-5.3592,-5.3799,-5.411,-5.4358,-5.4275,-5.4317,-5.4379,-5.4379,-5.4461,-5.4838,-5.5596,-5.5446,-5.5763,-5.7762,-5.7656,-5.7806,-5.9265,-5.9633,-5.9873,-6.0353,-6.0419,-6.0419,-6.0419,-6.0419,-6.0419,-6.0419,-6.0419,-6.0419,-6.0419,-6.0419,-6.0419,-6.0419,-6.0419,-6.0419,-6.0419,-6.0419,-6.0419,-6.0419,-6.0419,-6.0419,-6.0419,-6.0419,-6.0419,0.0,0.0,0.0,-1.7001,0.0,-2.2373,-2.6915,-2.8343,-2.8686,0.0,0.0,0.0,0.0,0.0,0.0,0.0,0.0,0.0,0.0,0.0,0.0,0.0,0.0,0.0,0.0,0.0,0.0,0.0,0.0,-3.5925,-3.7348,-3.961,-4.1798,-4.3679,-4.576,-4.6964,-4.7266,-4.7051,-4.6816,-4.6621,-4.6406,-4.6308,-4.6308,-4.6523,-4.6679,-4.6658,-4.705,-4.7534,-4.8047,-4.8596,-4.8921,-4.9059,-4.9059,-4.9349,-4.9783,-4.999,-5.0508,-5.115,-5.1357,-5.1605,-5.1791,-5.1791,-5.1791,-5.1853,-5.206,-5.2309,-5.2578,-5.3013,-5.3489,-5.3903,-5.411,-5.4358,-5.4544,-5.4544,-5.4544,-5.4544,-5.4544,-5.4689,-5.4917,-5.555,-5.5758,-5.6437,-5.787,-5.8536,-5.9161,-6.0004,-6.0048,-6.0135,-6.0397,-6.0419,-6.0419,-6.0419,-6.0419,-6.0419,-6.0419,-6.0419,-6.0419,-6.0419,-6.0419,-6.0419,-6.0419,-6.0419,-6.0419,-6.0419,-6.0419,-6.0419,-6.0419,-6.0419,-6.0419,-6.0419,-6.0419,-6.0419,0.0,0.0,0.0,0.0,0.0,0.0,-2.8117,0.0,0.0,0.0,0.0,0.0,0.0,0.0,0.0,0.0,0.0,0.0,0.0,0.0,0.0,0.0,0.0,0.0,0.0,0.0,0.0,0.0,0.0,-3.5558,-3.6085,-3.8009,-4.0073,-4.1885,-4.3963,-4.568,-4.6933,-4.7012,-4.6836,-4.6406,-4.6328,-4.6308,-4.6308,-4.6308,-4.6658,-4.7026,-4.7579,-4.8043,-4.8392,-4.9036,-4.9168,-4.9183,-4.9183,-4.9514,-5.0032,-5.0322,-5.0756,-5.1294,-5.1667,-5.1791,-5.1791,-5.1791,-5.1791,-5.1895,-5.235,-5.2557,-5.2785,-5.3613,-5.3903,-5.4048,-5.4441,-5.4544,-5.4544,-5.4544,-5.4544,-5.4565,-5.4627,-5.4938,-5.5227,-5.5393,-5.6307,-5.7309,-5.8166,-5.929,-6.0332,-6.0419,-6.0419,-6.0419,-6.0419,-6.0419,-6.0419,-6.0419,-6.0419,-6.0419,-6.0419,-6.0419,-6.0419,-6.0419,-6.0419,-6.0419,-6.0419,-6.0419,-6.0419,-6.0419,-6.0419,-6.0419,-6.0419,-6.0419,-6.0419,-6.0419,-6.0419,-6.0419,0.0,0.0,0.0,0.0,0.0,0.0,0.0,0.0,0.0,0.0,0.0,0.0,0.0,0.0,0.0,0.0,0.0,0.0,0.0,0.0,0.0,0.0,0.0,0.0,0.0,0.0,0.0,0.0,-3.5866,-3.6027,-3.6114,-3.8009,-3.9959,-4.1527,-4.3736,-4.5381,-4.6933,-4.7305,-4.7266,-4.6836,-4.6484,-4.6308,-4.6308,-4.6658,-4.7007,-4.7007,-4.7414,-4.7915,-4.8392,-4.9382,-4.9721,-4.9659,-4.9659,-5.0177,-5.088,-5.0549,-5.0963,-5.1729,-5.1791,-5.1791,-5.1791,-5.1791,-5.1791,-5.1895,-5.235,-5.2764,-5.3199,-5.3696,-5.413,-5.4461,-5.4524,-5.4544,-5.4544,-5.4544,-5.4544,-5.4648,-5.502,-5.5145,-5.5414,-5.6221,-5.7214,-5.8166,-5.8655,-5.9247,-5.9938,-6.0353,-6.0419,-6.0419,-6.0419,-6.0419,-6.0419,-6.0419,-6.0419,-6.0419,-6.0419,-6.0419,-6.0419,-6.0419,-6.0419,-6.0419,-6.0419,-6.0419,-6.0419,-6.0419,-6.0419,-6.0419,-6.0419,-6.0419,-6.0419,-6.0419,-6.0419,-6.0419,0.0,0.0,0.0,0.0,0.0,0.0,0.0,0.0,0.0,0.0,0.0,0.0,0.0,0.0,0.0,0.0,0.0,0.0,0.0,0.0,0.0,0.0,0.0,0.0,0.0,0.0,0.0,0.0,-3.6144,-3.6202,-3.6378,-3.7343,-3.852,-4.0067,-4.2107,-4.3992,-4.5611,-4.6922,-4.7363,-4.6933,-4.6504,-4.6308,-4.6308,-4.6832,-4.7181,-4.7374,-4.8137,-4.8617,-4.8949,-4.9825,-4.997,-4.9783,-5.0032,-5.0529,-5.1087,-5.088,-5.1232,-5.1791,-5.1791,-5.1791,-5.1791,-5.1791,-5.1978,-5.2267,-5.2743,-5.3199,-5.3654,-5.411,-5.4379,-5.4544,-5.4544,-5.4544,-5.4544,-5.4544,-5.4731,-5.4958,-5.5145,-5.5186,-5.5565,-5.6815,-5.733,-5.8062,-5.9139,-5.9442,-5.9851,-6.0353,-6.0419,-6.0419,-6.0419,-6.0419,-6.0419,-6.0419,-6.0419,-6.0419,-6.0419,-6.0419,-6.0419,-6.0419,-6.0419,-6.0419,-6.0419,-6.0419,-6.0419,-6.0419,-6.0419,-6.0419,-6.0419,-6.0419,-6.0419,-6.0419,-6.0419,-6.0419,0.0,0.0,0.0,0.0,0.0,0.0,0.0,0.0,0.0,0.0,0.0,0.0,0.0,0.0,0.0,0.0,0.0,0.0,0.0,0.0,0.0,0.0,0.0,0.0,0.0,0.0,0.0,0.0,-3.6378,-3.6348,-3.6597,-3.6524,-3.7283,-3.8846,-4.0339,-4.2038,-4.3686,-4.5725,-4.6748,-4.709,-4.6738,-4.6483,-4.6483,-4.7181,-4.7528,-4.7895,-4.8566,-4.9024,-4.9142,-5.0052,-5.0218,-4.997,-5.0425,-5.088,-5.1274,-5.115,-5.1398,-5.1791,-5.1791,-5.1791,-5.1791,-5.1791,-5.2122,-5.2578,-5.3054,-5.3489,-5.3944,-5.4399,-5.4544,-5.4544,-5.4544,-5.4544,-5.4544,-5.4544,-5.4793,-5.5124,-5.5455,-5.5538,-5.5856,-5.7094,-5.7461,-5.7977,-5.9355,-5.9657,-5.9895,-6.0506,-6.0506,-6.0419,-6.0419,-6.0419,-6.0419,-6.0419,-6.0419,-6.0419,-6.0419,-6.0419,-6.0419,-6.0419,-6.0419,-6.0419,-6.0419,-6.0419,-6.0419,-6.0419,-6.0419,-6.0419,-6.0419,-6.0419,-6.0419,-6.0419,-6.0419,-6.0419,0.0,0.0,0.0,0.0,0.0,0.0,0.0,0.0,0.0,0.0,0.0,0.0,0.0,0.0,0.0,0.0,0.0,0.0,0.0,0.0,0.0,0.0,0.0,0.0,0.0,0.0,0.0,0.0,-3.6583,-3.6583,-3.6597,-3.6305,-3.6937,-3.8482,-3.8845,-3.9593,-4.1247,-4.3271,-4.5299,-4.7539,-4.7228,-4.7007,-4.7007,-4.7854,-4.8372,-4.8372,-4.8392,-4.8736,-4.9142,-5.0052,-5.0404,-5.0425,-5.0901,-5.1357,-5.1708,-5.1274,-5.1398,-5.1791,-5.1791,-5.1791,-5.1791,-5.1791,-5.2122,-5.2578,-5.3054,-5.3489,-5.3944,-5.4399,-5.4544,-5.4544,-5.4544,-5.4544,-5.4544,-5.4544,-5.4565,-5.4917,-5.6221,-5.649,-5.6614,-5.707,-5.7592,-5.8378,-5.9293,-5.9702,-6.0004,-6.0943,-6.0703,-6.0419,-6.0419,-6.0419,-6.0419,-6.0419,-6.0419,-6.0419,-6.0419,-6.0419,-6.0419,-6.0419,-6.0419,-6.0419,-6.0419,-6.0419,-6.0419,-6.0419,-6.0419,-6.0419,-6.0419,-6.0419,-6.0419,-6.0419,-6.0419,-6.0419,0.0,0.0,0.0,0.0,0.0,0.0,0.0,0.0,0.0,0.0,0.0,0.0,0.0,0.0,0.0,0.0,0.0,0.0,0.0,0.0,0.0,0.0,0.0,0.0,0.0,0.0,0.0,0.0,0.0,-3.6597,-3.6597,-3.629,-3.6445,-3.6892,-3.8181,-3.9691,-4.1608,-4.1901,-4.2761,-4.4033,-4.4379,-4.5021,-4.5568,-4.7161,-4.8199,-4.8372,-4.8716,-4.8887,-4.9142,-5.0052,-5.0425,-5.0487,-5.1253,-5.1646,-5.1791,-5.1605,-5.1667,-5.1791,-5.1791,-5.1791,-5.1791,-5.1791,-5.2309,-5.2971,-5.3137,-5.3696,-5.4317,-5.4482,-5.4544,-5.4544,-5.4544,-5.4544,-5.4606,-5.4896,-5.4958,-5.5248,-5.6324,-5.6573,-5.6708,-5.7151,-5.7822,-5.851,-5.9764,-6.0202,-6.0375,-6.1009,-6.0725,-6.0419,-6.0419,-6.0419,-6.0419,-6.0419,-6.0681,-6.0856,-6.0856,-6.1162,-6.1205,-6.0878,-6.1162,-6.1052,-6.0441,-6.1009,-6.1183,-6.0878,-6.1183,-6.1031,-6.0419,-6.0725,-6.0703,-6.0441,-6.1052,-6.1162,-1.5193,0.0,0.0,0.0,0.0,0.0,0.0,0.0,0.0,0.0,0.0,0.0,0.0,0.0,0.0,0.0,0.0,0.0,0.0,0.0,0.0,0.0,0.0,0.0,0.0,0.0,0.0,0.0,0.0,0.0,-3.6451,-3.6231,-3.6012,-3.5807,-3.6792,-3.8338,-4.0527,-4.0327,-4.0743,-4.1596,-4.3394,-4.4277,-4.4826,-4.7141,-4.8392,-4.8716,-4.8887,-4.9059,-4.9142,-5.0052,-5.0425,-5.0508,-5.1439,-5.1791,-5.1791,-5.1791,-5.1791,-5.1791,-5.1791,-5.1791,-5.1833,-5.1978,-5.2557,-5.322,-5.3364,-5.3944,-5.4544,-5.4544,-5.4544,-5.4544,-5.4544,-5.4544,-5.4606,-5.4896,-5.5082,-5.5393,-5.6159,-5.6646,-5.7101,-5.7521,-5.8144,-5.8963,-6.0396,-6.0441,-6.0637,-6.1271,-6.0965,-6.0594,-6.0441,-6.0703,-6.0834,-6.0659,-6.1074,-6.1358,-6.1358,-6.1664,-6.1708,-6.138,-6.1664,-6.1555,-6.0921,-6.1511,-6.1686,-6.1358,-6.1664,-6.1533,-6.0899,-6.1205,-6.1183,-6.0921,-6.1533,-6.1751,0.0,0.0,0.0,0.0,0.0,0.0,0.0,0.0,0.0,0.0,0.0,0.0,0.0,0.0,0.0,0.0,0.0,0.0,0.0,0.0,0.0,0.0,0.0,0.0,0.0,0.0,0.0,0.0,-3.6597,-3.6451,-3.6129,-3.61,-3.5792,-3.5163,-3.4856,-3.5765,-3.8116,-3.8136,-3.9041,-4.1012,-4.3911,-4.5159,-4.4788,-4.7814,-4.9059,-4.9059,-4.9059,-4.9059,-4.9142,-5.0032,-5.0425,-5.0529,-5.1439,-5.1791,-5.1791,-5.1791,-5.1791,-5.1791,-5.1791,-5.1791,-5.1874,-5.235,-5.2806,-5.3261,-5.3716,-5.4172,-5.4544,-5.4544,-5.4544,-5.4544,-5.4544,-5.4544,-5.4544,-5.4544,-5.4896,-5.5331,-5.5786,-5.6655,-5.7508,-5.7948,-5.8846,-5.9937,-6.0885,-6.0679,-6.0768,-6.173,-6.1424,-6.0921,-6.0506,-6.1249,-6.1642,-6.1183,-6.1555,-6.1861,-6.1861,-6.1882,-6.1904,-6.1861,-6.1882,-6.1861,-6.1839,-6.1861,-6.1882,-6.1861,-6.1882,-6.1882,-6.1882,-6.1861,-6.1861,-6.1839,-6.1861,-6.2123,-1.3221,0.0,0.0,0.0,0.0,0.0,0.0,0.0,0.0,0.0,0.0,0.0,0.0,0.0,0.0,0.0,0.0,0.0,0.0,0.0,0.0,0.0,0.0,0.0,0.0,0.0,0.0,0.0,-3.6392,-3.6217,-3.6114,-3.5675,-3.5236,-3.4841,-3.4753,-3.4926,-3.575,-3.566,-3.639,-3.7565,-4.0894,-4.2818,-4.3923,-4.7121,-4.8716,-4.9059,-4.9059,-4.9059,-4.9121,-4.9701,-5.0322,-5.0943,-5.1191,-5.1501,-5.1791,-5.1791,-5.1791,-5.1791,-5.1791,-5.1791,-5.1874,-5.235,-5.2806,-5.3261,-5.3716,-5.4172,-5.4544,-5.4544,-5.4544,-5.4544,-5.4544,-5.4544,-5.4606,-5.4938,-5.5352,-5.6002,-5.6871,-5.7726,-5.8479,-5.8606,-5.9477,-6.0502,-6.133,-6.1138,-6.114,-6.1751,-6.114,-6.0681,-6.0899,-6.114,-6.138,-6.162,-6.2079,-6.2385,-6.2385,-6.2691,-6.2734,-6.2407,-6.2691,-6.256,-6.1861,-6.2516,-6.2734,-6.2407,-6.2712,-6.2887,-6.2887,-6.2538,-6.221,-6.1861,-6.2232,-6.2647,-1.3609,-1.3874,-1.4099,-1.4432,0.0,0.0,0.0,0.0,0.0,0.0,0.0,0.0,0.0,0.0,0.0,0.0,0.0,0.0,0.0,0.0,0.0,0.0,0.0,0.0,0.0,0.0,0.0,-3.6597,-3.6305,-3.5997,-3.5749,-3.5251,-3.4885,-3.471,-3.471,-3.471,-3.471,-3.5069,-3.5428,-3.5972,-4.0118,-4.2102,-4.212,-4.6579,-4.8351,-4.7986,-4.8716,-4.9059,-4.908,-4.9349,-5.0011,-5.086,-5.1253,-5.1564,-5.1791,-5.1791,-5.1791,-5.1791,-5.1791,-5.1791,-5.1915,-5.2578,-5.2971,-5.3302,-5.3944,-5.4317,-5.4544,-5.4544,-5.4544,-5.4544,-5.4544,-5.4668,-5.4834,-5.4896,-5.5414,-5.6147,-5.7004,-5.7817,-5.8591,-5.898,-5.9829,-6.0635,-6.1708,-6.1271,-6.1052,-6.173,-6.1358,-6.1031,-6.1096,-6.1642,-6.2057,-6.2145,-6.2581,-6.2887,-6.2887,-6.3127,-6.3171,-6.2887,-6.3127,-6.3018,-6.245,-6.2975,-6.3149,-6.2887,-6.3149,-6.328,-6.328,-6.3018,-6.2734,-6.2472,-6.2756,-6.3018,-1.4083,-1.4205,-1.4318,-1.4781,-1.6002,0.0,-2.1728,-2.4421,0.0,0.0,0.0,0.0,0.0,0.0,0.0,0.0,0.0,0.0,0.0,0.0,0.0,0.0,0.0,0.0,0.0,-3.6597,-3.6583,-3.6553,-3.6217,-3.5749,-3.5163,-3.4856,-3.471,-3.471,-3.4695,-3.4695,-3.471,-3.5615,-3.5987,-3.56,-4.0679,-4.1941,-4.0135,-4.5842,-4.7641,-4.6366,-4.7946,-4.8805,-4.8997,-4.91,-4.9638,-5.0508,-5.1315,-5.1708,-5.1791,-5.1791,-5.1791,-5.1791,-5.1791,-5.1833,-5.2019,-5.2909,-5.322,-5.3406,-5.4275,-5.4544,-5.4544,-5.4544,-5.4544,-5.4544,-5.4544,-5.4855,-5.5082,-5.4689,-5.5289,-5.6147,-5.6731,-5.7673,-5.851,-5.9549,-6.0071,-6.079,-6.1686,-6.1096,-6.0834,-6.1773,-6.1817,-6.1642,-6.1314,-6.2407,-6.3062,-6.2712,-6.304,-6.328,-6.328,-6.328,-6.328,-6.328,-6.328,-6.328,-6.328,-6.328,-6.328,-6.328,-6.328,-6.328,-6.328,-6.328,-6.328,-6.328,-6.328,-6.328,-1.4239,-1.4383,-1.4375,-1.4343,-1.6571,0.0,-1.9435,-2.2078,0.0,0.0,0.0,0.0,0.0,0.0,0.0,0.0,0.0,0.0,0.0,0.0,0.0,0.0,0.0,0.0,0.0,-3.6597,-3.6495,-3.6231,-3.5675,-3.5192,-3.4812,-3.4739,-3.471,-3.471,-3.5054,-3.5054,-3.471,-3.5615,-3.6173,-3.6173,-3.9059,-4.0515,-4.0515,-4.3193,-4.514,-4.6172,-4.6205,-4.7098,-4.8562,-4.9307,-4.9928,-5.0446,-5.0611,-5.115,-5.1791,-5.1791,-5.1791,-5.1791,-5.1791,-5.204,-5.2454,-5.2992,-5.3427,-5.382,-5.4358,-5.4544,-5.4544,-5.4544,-5.4544,-5.4544,-5.4544,-5.4855,-5.5165,-5.5082,-5.6154,-5.7214,-5.7779,-5.8553,-5.9506,-6.0202,-6.0725,-6.1162,-6.173,-6.1358,-6.1314,-6.2297,-6.1751,-6.1511,-6.221,-6.256,-6.2844,-6.3106,-6.3215,-6.328,-6.328,-6.328,-6.328,-6.328,-6.328,-6.328,-6.328,-6.328,-6.328,-6.328,-6.328,-6.328,-6.328,-6.328,-6.328,-6.328,-6.328,-6.328,-1.4462,-1.457,-1.4695,-1.5485,-1.7351,0.0,0.0,0.0,0.0,0.0,0.0,0.0,0.0,0.0,0.0,0.0,0.0,0.0,0.0,0.0,0.0,0.0,0.0,0.0,0.0,-3.6451,-3.6158,-3.5675,-3.5339,-3.5031,-3.4724,-3.471,-3.471,-3.471,-3.5241,-3.5226,-3.5054,-3.5987,-3.6545,-3.6545,-3.9076,-3.9805,-3.9275,-4.2138,-4.3371,-4.353,-4.5086,-4.6418,-4.7511,-4.9106,-5.0011,-5.0466,-5.0922,-5.1398,-5.1791,-5.1791,-5.1791,-5.1791,-5.1791,-5.2102,-5.2578,-5.3033,-5.3489,-5.3944,-5.4399,-5.4544,-5.4544,-5.4544,-5.4544,-5.4586,-5.4793,-5.5186,-5.5538,-5.5538,-5.6613,-5.7831,-5.797,-5.8899,-5.9831,-6.0223,-6.0987,-6.1555,-6.1795,-6.1424,-6.1446,-6.245,-6.2166,-6.2035,-6.2538,-6.28,-6.3018,-6.3259,-6.328,-6.328,-6.328,-6.328,-6.328,-6.328,-6.328,-6.328,-6.328,-6.328,-6.328,-6.328,-6.328,-6.328,-6.328,-6.328,-6.328,-6.328,-6.328,-6.328,-1.4716,-1.4933,-1.5496,-1.6796,-1.8275,-2.0005,0.0,0.0,0.0,0.0,0.0,0.0,0.0,0.0,0.0,0.0,0.0,0.0,0.0,0.0,0.0,0.0,0.0,0.0,0.0,-3.5792,-3.5456,-3.5178,-3.4871,-3.4695,-3.471,-3.471,-3.471,-3.4882,-3.5241,-3.56,-3.56,-3.6545,-3.6915,-3.6915,-3.8909,-3.9092,-3.7855,-4.0894,-4.1779,-4.1238,-4.4165,-4.5939,-4.6947,-4.9015,-4.9836,-4.9957,-5.1156,-5.1729,-5.1791,-5.1791,-5.1791,-5.1791,-5.1791,-5.2164,-5.2681,-5.3054,-5.3551,-5.4048,-5.442,-5.4544,-5.4544,-5.4544,-5.4544,-5.4627,-5.5082,-5.5538,-5.5869,-5.6064,-5.7164,-5.8105,-5.8229,-5.9094,-5.9831,-6.0223,-6.1118,-6.173,-6.1817,-6.1598,-6.1708,-6.2581,-6.2647,-6.2625,-6.2712,-6.3062,-6.328,-6.328,-6.328,-6.328,-6.328,-6.328,-6.328,-6.328,-6.328,-6.328,-6.328,-6.328,-6.328,-6.328,-6.328,-6.328,-6.328,-6.328,-6.328,-6.328,-6.328,-6.328,-1.5146,-1.6137,-1.7019,-1.6974,-1.9276,-2.1329,-2.0991,0.0,-2.3541,-2.3434,0.0,0.0,0.0,0.0,0.0,0.0,0.0,0.0,0.0,0.0,0.0,0.0,0.0,0.0,0.0,0.0,-3.4007,-3.5075,-3.3846,-3.3524,-3.4651,-3.471,-3.4882,-3.5226,-3.5786,-3.6173,-3.6173,-3.7116,-3.7285,-3.6915,-3.7655,-3.7855,-3.7671,-3.8208,-4.0004,-4.3015,-4.3004,-4.5338,-4.8736,-4.9556,-4.8919,-4.7898,-5.025,-5.1439,-5.1791,-5.1791,-5.1791,-5.1791,-5.1791,-5.2371,-5.3116,-5.3157,-5.3758,-5.4461,-5.4524,-5.4544,-5.4544,-5.4544,-5.4544,-5.4627,-5.5082,-5.5538,-5.6064,-5.6453,-5.7753,-5.8697,-5.8815,-5.968,-6.0419,-6.0419,-6.0834,-6.1336,-6.1773,-6.2166,-6.2603,-6.3127,-6.2865,-6.2734,-6.3149,-6.3237,-6.328,-6.328,-6.328,-6.328,-6.328,-6.328,-6.328,-6.328,-6.328,-6.328,-6.328,-6.328,-6.328,-6.328,-6.328,-6.328,-6.328,-6.328,-6.328,-6.328,-6.328,-6.328,0.0,0.0,-1.6995,-1.8039,-1.9714,-2.1197,-2.2011,-2.2671,-2.3073,-2.3126,0.0,0.0,0.0,0.0,0.0,0.0,0.0,0.0,0.0,0.0,0.0,0.0,0.0,0.0,0.0,0.0,0.0,0.0,0.0,-3.3334,-3.4636,-3.471,-3.4882,-3.5413,-3.5972,-3.6359,-3.6545,-3.7301,-3.7671,-3.7285,-3.7671,-3.7671,-3.7671,-3.7671,-3.8575,-4.0169,-4.1081,-4.2766,-4.4969,-4.7504,-4.7637,-4.6776,-5.0136,-5.0882,-5.0297,-5.1429,-5.1791,-5.1791,-5.1791,-5.2412,-5.3261,-5.3799,-5.4234,-5.4544,-5.4544,-5.4544,-5.4544,-5.4544,-5.4544,-5.4689,-5.5393,-5.5919,-5.6599,-5.7319,-5.8331,-5.9177,-5.9376,-5.9876,-6.0419,-6.0419,-6.1031,-6.162,-6.1795,-6.2254,-6.2756,-6.3215,-6.3106,-6.3062,-6.3259,-6.328,-6.328,-6.328,-6.328,-6.328,-6.328,-6.328,-6.328,-6.328,-6.328,-6.328,-6.328,-6.328,-6.328,-6.328,-6.328,-6.328,-6.328,-6.328,-6.328,-6.328,-6.328,-6.328,-1.5337,0.0,0.0,0.0,0.0,-2.0995,-2.2808,-2.3153,-2.318,-2.3407,-2.3394,0.0,0.0,0.0,0.0,0.0,0.0,0.0,0.0,0.0,0.0,0.0,0.0,0.0,0.0,0.0,0.0,0.0,0.0,0.0,-3.4622,-3.471,-3.4882,-3.5413,-3.5972,-3.6359,-3.6915,-3.7486,-3.7671,-3.7671,-3.7671,-3.7671,-3.7671,-3.7671,-3.8023,-3.8575,-3.9923,-4.1395,-4.2742,-4.5606,-4.6073,-4.5415,-4.8789,-4.8895,-4.7303,-5.0479,-5.1306,-5.1025,-5.1466,-5.2309,-5.3323,-5.4234,-5.4544,-5.4544,-5.4544,-5.4544,-5.4544,-5.4544,-5.4544,-5.4751,-5.5641,-5.6259,-5.6878,-5.7999,-5.9023,-5.9613,-5.9831,-6.0223,-6.0223,-5.981,-6.0985,-6.166,-6.1216,-6.2161,-6.2887,-6.3237,-6.328,-6.328,-6.328,-6.328,-6.328,-6.328,-6.328,-6.328,-6.328,-6.328,-6.328,-6.328,-6.328,-6.328,-6.328,-6.328,-6.328,-6.328,-6.328,-6.328,-6.328,-6.328,-6.328,-6.328,-6.328,-6.328,0.0,0.0,0.0,-1.9046,0.0,0.0,0.0,-2.3327,-2.3741,-2.3754,-2.4195,-2.4489,-2.4222,-2.4182,-2.4102,-2.3834,0.0,0.0,0.0,0.0,0.0,0.0,0.0,0.0,0.0,0.0,0.0,0.0,0.0,0.0,-3.4563,-3.471,-3.4882,-3.5413,-3.5972,-3.6359,-3.6915,-3.7486,-3.7671,-3.7671,-3.7671,-3.7671,-3.7671,-3.7671,-3.8742,-4.0368,-4.0726,-4.2372,-4.46,-4.4985,-4.4285,-4.3158,-4.5227,-4.4598,-4.3134,-4.889,-5.0116,-4.9098,-5.0535,-5.204,-5.3323,-5.4234,-5.4544,-5.4544,-5.4544,-5.4544,-5.4544,-5.4544,-5.4544,-5.4751,-5.5641,-5.6259,-5.7073,-5.8394,-5.922,-5.9831,-6.0223,-6.0419,-6.0006,-5.8387,-6.0147,-6.1216,-5.9782,-6.1587,-6.3259,-6.328,-6.328,-6.328,-6.328,-6.328,-6.328,-6.328,-6.328,-6.328,-6.328,-6.328,-6.328,-6.328,-6.328,-6.328,-6.328,-6.328,-6.328,-6.328,-6.328,-6.328,-6.328,-6.328,-6.328,-6.328,-6.328,-6.328,0.0,0.0,-1.9103,-2.0038,0.0,0.0,0.0,0.0,0.0,-2.3768,-2.4075,-2.4382,-2.4476,-2.4329,-2.4235,-2.4329,-2.4342,0.0,0.0,0.0,0.0,0.0,0.0,0.0,0.0,0.0,0.0,0.0,0.0,0.0,0.0,-3.471,-3.4882,-3.5413,-3.5972,-3.6359,-3.6915,-3.7486,-3.7671,-3.7671,-3.7671,-3.7671,-3.7687,-3.7909,-3.8376,-3.8933,-3.9291,-4.001,-4.1096,-4.2518,-4.2243,-4.1078,-4.4471,-4.3467,-4.071,-4.5538,-4.6941,-4.6596,-4.7854,-5.0476,-5.3137,-5.265,-5.2547,-5.274,-5.4142,-5.3548,-5.274,-5.4142,-5.4544,-5.456,-5.4862,-5.6064,-5.7267,-5.7583,-5.9001,-6.0223,-6.0419,-6.0419,-6.0223,-5.9613,-6.0787,-6.1639,-6.1015,-6.2219,-6.328,-6.328,-6.328,-6.328,-6.328,-6.328,-6.328,-6.328,-6.328,-6.328,-6.328,-6.328,-6.328,-6.328,-6.328,-6.328,-6.328,-6.328,-6.328,-6.328,-6.328,-6.328,-6.328,-6.328,-6.328,-6.328,-6.328,-6.328,-1.8022,-1.8541,0.0,-2.0172,-2.1108,0.0,-2.2891,0.0,-2.4863,0.0,-2.4836,-2.5104,-2.6026,-2.5358,0.0,0.0,-2.4905,0.0,0.0,0.0,0.0,0.0,0.0,0.0,0.0,0.0,0.0,0.0,0.0,0.0,0.0,0.0,-3.5054,-3.5413,-3.6173,-3.6545,-3.6915,-3.7486,-3.7671,-3.7671,-3.7671,-3.7671,-3.7687,-3.7909,-3.8084,-3.8211,-3.8545,-3.8894,-3.9228,-4.0667,-4.0672,-4.0141,-4.2584,-4.1706,-3.9594,-4.3484,-4.4966,-4.5132,-4.636,-4.8615,-5.0992,-5.0475,-5.0355,-5.055,-5.1948,-5.1948,-5.1735,-5.2932,-5.3862,-5.4168,-5.4315,-5.5189,-5.6479,-5.7008,-5.8387,-5.9613,-6.0223,-6.0419,-6.0223,-5.9613,-6.0787,-6.1639,-6.1015,-6.2219,-6.328,-6.328,-6.328,-6.328,-6.328,-6.328,-6.328,-6.328,-6.328,-6.328,-6.328,-6.328,-6.328,-6.328,-6.328,-6.328,-6.328,-6.328,-6.328,-6.328,-6.328,-6.328,-6.328,-6.328,-6.328,-6.328,-6.328,-6.328]},{"header":{"parameterUnit":"m.s-1","parameterCategory":1,"la1":30.6,"la2":29.2853,"lo1":-89.7004,"lo2":-87.6739,"dx":0.0162,"dy":0.0183,"nx":112,"ny":82,"refTime":"2023-01-10T06:00:00:Z","depth":0,"parameterNumber":3,"parameterNumberName":"V-component_of_WINDS"},"data":[0.0,0.0,0.0,0.0,0.0,0.0,0.0,0.0,0.0,0.0,0.0,0.0,0.0,0.0,0.0,0.0,0.0,0.0,0.0,0.0,0.0,0.0,0.0,0.0,0.0,0.0,0.0,0.0,0.0,0.0,0.0,0.0,0.0,0.0,0.0,0.0,0.0,0.0,0.0,0.0,0.0,0.0,0.0,0.0,0.0,0.0,0.0,0.0,0.0,0.0,0.0,0.0,0.0,0.0,0.0,0.0,0.0,0.0,0.0,0.0,0.0,0.0,0.0,0.0,0.0,0.0,0.0,0.0,0.0,0.0,0.0,0.0,0.0,0.0,0.0,0.0,0.0,0.0,0.0,0.0,0.0,0.0,0.0,0.0,0.0,0.0,0.0,0.0,0.0,0.0,-6.4095,-6.6124,-6.85,-6.9964,-6.9964,-7.0063,-6.8274,-6.3868,0.0,0.0,0.0,0.0,0.0,0.0,0.0,0.0,0.0,0.0,0.0,0.0,0.0,0.0,0.0,0.0,0.0,0.0,0.0,0.0,0.0,0.0,0.0,0.0,0.0,0.0,0.0,0.0,0.0,0.0,0.0,0.0,0.0,0.0,0.0,0.0,0.0,0.0,0.0,0.0,0.0,0.0,0.0,0.0,0.0,0.0,0.0,0.0,0.0,0.0,0.0,0.0,0.0,0.0,0.0,0.0,0.0,0.0,0.0,0.0,0.0,0.0,0.0,0.0,0.0,0.0,0.0,0.0,0.0,0.0,0.0,0.0,0.0,0.0,0.0,0.0,0.0,0.0,0.0,0.0,0.0,0.0,0.0,0.0,0.0,0.0,0.0,0.0,0.0,0.0,0.0,0.0,0.0,0.0,0.0,0.0,0.0,0.0,0.0,0.0,0.0,0.0,0.0,0.0,-6.4241,-6.8732,-7.0096,-7.0726,-7.0726,-7.1322,-6.9798,-6.5359,0.0,0.0,0.0,0.0,0.0,0.0,0.0,0.0,0.0,0.0,0.0,0.0,0.0,0.0,0.0,0.0,0.0,0.0,0.0,0.0,0.0,0.0,0.0,0.0,0.0,0.0,0.0,0.0,0.0,0.0,0.0,0.0,0.0,0.0,0.0,0.0,0.0,0.0,0.0,0.0,0.0,0.0,0.0,0.0,0.0,0.0,0.0,0.0,0.0,0.0,0.0,0.0,0.0,0.0,0.0,0.0,0.0,0.0,0.0,0.0,0.0,0.0,0.0,0.0,0.0,0.0,0.0,0.0,0.0,0.0,0.0,0.0,0.0,0.0,0.0,0.0,0.0,0.0,0.0,0.0,0.0,0.0,0.0,0.0,0.0,0.0,0.0,0.0,0.0,0.0,0.0,0.0,0.0,0.0,0.0,0.0,0.0,0.0,0.0,0.0,0.0,0.0,0.0,-6.3696,-6.5946,-6.9401,-7.0461,-7.0891,-7.0891,-7.1587,-7.0034,-6.5511,-6.3339,0.0,0.0,0.0,0.0,0.0,0.0,0.0,0.0,0.0,0.0,0.0,0.0,0.0,0.0,0.0,0.0,0.0,0.0,0.0,0.0,0.0,0.0,0.0,0.0,0.0,0.0,0.0,0.0,0.0,0.0,0.0,0.0,0.0,0.0,0.0,0.0,0.0,0.0,0.0,0.0,0.0,0.0,0.0,0.0,0.0,0.0,0.0,0.0,0.0,0.0,0.0,0.0,0.0,0.0,0.0,0.0,0.0,0.0,0.0,0.0,0.0,0.0,0.0,0.0,0.0,0.0,0.0,0.0,0.0,0.0,0.0,0.0,0.0,0.0,0.0,0.0,0.0,0.0,0.0,0.0,0.0,0.0,0.0,0.0,0.0,0.0,0.0,0.0,0.0,0.0,0.0,0.0,0.0,0.0,0.0,0.0,0.0,0.0,0.0,0.0,0.0,0.0,-6.6287,-6.8076,-7.0096,-7.0825,-7.1289,-7.1653,-7.2183,-7.053,-6.5948,-6.4756,0.0,0.0,0.0,0.0,0.0,0.0,0.0,0.0,0.0,0.0,0.0,0.0,0.0,0.0,0.0,0.0,0.0,0.0,0.0,0.0,0.0,0.0,0.0,0.0,0.0,0.0,0.0,0.0,0.0,0.0,0.0,0.0,0.0,0.0,0.0,0.0,0.0,0.0,0.0,0.0,0.0,0.0,0.0,0.0,0.0,0.0,0.0,0.0,0.0,0.0,0.0,0.0,0.0,0.0,0.0,0.0,0.0,0.0,0.0,0.0,0.0,0.0,0.0,0.0,0.0,0.0,0.0,0.0,0.0,0.0,0.0,0.0,0.0,0.0,0.0,0.0,0.0,0.0,0.0,0.0,0.0,0.0,0.0,0.0,0.0,0.0,0.0,0.0,0.0,0.0,0.0,0.0,0.0,0.0,0.0,0.0,0.0,0.0,0.0,0.0,0.0,0.0,-6.7016,-7.0163,-7.1686,-7.1885,-7.2481,-7.384,-7.4005,-7.215,-6.7652,-6.635,0.0,0.0,0.0,0.0,0.0,0.0,0.0,0.0,0.0,0.0,0.0,0.0,0.0,0.0,0.0,0.0,0.0,0.0,0.0,0.0,0.0,0.0,0.0,0.0,0.0,0.0,0.0,0.0,0.0,0.0,0.0,0.0,0.0,0.0,0.0,0.0,0.0,0.0,0.0,0.0,0.0,0.0,0.0,0.0,0.0,0.0,0.0,0.0,0.0,0.0,0.0,0.0,0.0,0.0,0.0,0.0,0.0,0.0,0.0,0.0,0.0,0.0,0.0,0.0,0.0,0.0,0.0,0.0,0.0,0.0,0.0,0.0,0.0,0.0,0.0,0.0,0.0,0.0,0.0,0.0,0.0,0.0,0.0,0.0,0.0,0.0,0.0,0.0,0.0,0.0,0.0,0.0,0.0,0.0,0.0,0.0,0.0,0.0,0.0,0.0,0.0,0.0,-6.6552,-6.9003,-7.0461,-7.1852,-7.2912,-7.3475,-7.4734,-7.3342,-6.8196,0.0,0.0,0.0,0.0,0.0,0.0,0.0,0.0,0.0,0.0,0.0,0.0,0.0,0.0,0.0,0.0,0.0,0.0,0.0,0.0,0.0,0.0,0.0,0.0,0.0,0.0,0.0,0.0,0.0,0.0,0.0,0.0,0.0,0.0,0.0,0.0,0.0,0.0,0.0,0.0,0.0,0.0,0.0,0.0,0.0,0.0,0.0,0.0,0.0,0.0,0.0,0.0,0.0,0.0,0.0,0.0,0.0,0.0,0.0,0.0,0.0,0.0,0.0,0.0,0.0,0.0,0.0,0.0,0.0,0.0,0.0,0.0,0.0,0.0,0.0,0.0,0.0,0.0,0.0,0.0,0.0,0.0,0.0,0.0,0.0,0.0,0.0,0.0,0.0,0.0,0.0,0.0,0.0,0.0,0.0,0.0,0.0,0.0,0.0,0.0,0.0,0.0,-6.4432,-6.7612,-6.9997,-7.0759,-7.2216,-7.321,-7.3442,-7.48,-7.334,-6.8104,0.0,0.0,0.0,0.0,0.0,0.0,0.0,0.0,0.0,0.0,0.0,0.0,0.0,0.0,0.0,0.0,0.0,0.0,0.0,0.0,0.0,0.0,0.0,0.0,0.0,0.0,0.0,0.0,0.0,0.0,0.0,0.0,0.0,0.0,0.0,0.0,0.0,0.0,0.0,0.0,0.0,0.0,0.0,0.0,0.0,0.0,0.0,0.0,0.0,0.0,0.0,0.0,0.0,0.0,0.0,0.0,0.0,0.0,0.0,0.0,0.0,0.0,0.0,0.0,0.0,0.0,0.0,0.0,0.0,0.0,0.0,0.0,0.0,0.0,0.0,0.0,0.0,0.0,0.0,0.0,0.0,0.0,0.0,0.0,0.0,0.0,0.0,0.0,0.0,0.0,0.0,0.0,0.0,0.0,0.0,0.0,0.0,0.0,0.0,0.0,0.0,0.0,-6.5525,-7.0527,-7.3873,-7.3177,-7.3111,-7.3409,-7.4105,-7.4171,-7.2217,0.0,0.0,0.0,0.0,0.0,0.0,0.0,0.0,0.0,0.0,0.0,0.0,0.0,0.0,0.0,0.0,0.0,0.0,0.0,0.0,0.0,0.0,0.0,0.0,0.0,0.0,0.0,0.0,0.0,0.0,0.0,0.0,0.0,0.0,0.0,0.0,0.0,0.0,0.0,0.0,0.0,0.0,0.0,0.0,0.0,0.0,0.0,0.0,0.0,0.0,0.0,0.0,0.0,0.0,0.0,0.0,0.0,0.0,0.0,0.0,0.0,0.0,0.0,0.0,0.0,0.0,0.0,0.0,0.0,0.0,0.0,0.0,0.0,0.0,0.0,0.0,0.0,0.0,0.0,0.0,0.0,0.0,0.0,0.0,0.0,0.0,0.0,0.0,0.0,0.0,0.0,0.0,0.0,0.0,0.0,0.0,0.0,0.0,0.0,0.0,0.0,0.0,0.0,-6.6154,-6.9964,-7.2581,-7.2349,-7.3243,-7.3939,-7.4138,-7.5098,-7.3605,-6.886,0.0,0.0,0.0,0.0,0.0,0.0,0.0,0.0,0.0,0.0,0.0,0.0,0.0,0.0,0.0,0.0,0.0,0.0,0.0,0.0,0.0,0.0,0.0,0.0,0.0,0.0,0.0,0.0,0.0,0.0,0.0,0.0,0.0,0.0,0.0,0.0,0.0,0.0,0.0,0.0,0.0,0.0,0.0,0.0,0.0,0.0,0.0,0.0,0.0,0.0,0.0,0.0,0.0,0.0,0.0,0.0,0.0,0.0,0.0,0.0,0.0,0.0,0.0,0.0,0.0,0.0,0.0,0.0,0.0,0.0,0.0,0.0,0.0,0.0,0.0,0.0,0.0,0.0,0.0,0.0,0.0,0.0,0.0,0.0,0.0,0.0,0.0,0.0,0.0,0.0,0.0,0.0,0.0,0.0,0.0,0.0,0.0,0.0,0.0,0.0,0.0,0.0,-6.7281,-7.0858,-7.321,-7.2912,-7.3641,-7.4171,-7.407,-7.4761,-7.3566,-6.955,0.0,0.0,0.0,0.0,0.0,0.0,0.0,0.0,0.0,0.0,0.0,0.0,0.0,0.0,0.0,0.0,0.0,0.0,0.0,0.0,0.0,0.0,0.0,0.0,0.0,0.0,0.0,0.0,0.0,0.0,0.0,0.0,0.0,0.0,0.0,0.0,0.0,0.0,0.0,0.0,0.0,0.0,0.0,0.0,0.0,0.0,0.0,0.0,0.0,0.0,0.0,0.0,0.0,0.0,0.0,0.0,0.0,0.0,0.0,0.0,0.0,0.0,0.0,0.0,0.0,0.0,0.0,0.0,0.0,0.0,0.0,0.0,0.0,0.0,0.0,0.0,0.0,0.0,0.0,0.0,0.0,0.0,0.0,0.0,0.0,0.0,0.0,0.0,0.0,0.0,0.0,0.0,0.0,0.0,0.0,0.0,0.0,0.0,0.0,0.0,0.0,0.0,-6.8572,-7.2349,-7.48,-7.4337,-7.4204,-7.4136,-7.4064,-7.3994,-7.2868,-7.0232,0.0,0.0,0.0,0.0,0.0,0.0,0.0,0.0,0.0,0.0,0.0,0.0,0.0,0.0,0.0,0.0,0.0,0.0,0.0,0.0,0.0,0.0,0.0,0.0,0.0,0.0,0.0,0.0,0.0,0.0,0.0,0.0,0.0,0.0,0.0,0.0,0.0,0.0,0.0,0.0,0.0,0.0,0.0,0.0,0.0,0.0,0.0,0.0,0.0,0.0,0.0,0.0,0.0,0.0,0.0,0.0,0.0,0.0,0.0,0.0,-5.8455,-5.6121,0.0,0.0,0.0,0.0,0.0,0.0,0.0,0.0,0.0,0.0,0.0,0.0,0.0,0.0,0.0,0.0,0.0,0.0,0.0,0.0,0.0,0.0,0.0,0.0,0.0,0.0,0.0,0.0,0.0,0.0,0.0,0.0,0.0,0.0,0.0,0.0,0.0,0.0,0.0,0.0,-6.8506,-7.1024,-7.331,-7.4867,-7.4535,-7.4635,-7.5658,-7.5549,-7.4681,-7.2761,-7.0982,0.0,0.0,0.0,0.0,0.0,0.0,0.0,0.0,0.0,0.0,0.0,0.0,0.0,0.0,0.0,0.0,0.0,0.0,0.0,0.0,0.0,0.0,0.0,0.0,0.0,0.0,0.0,0.0,0.0,0.0,0.0,0.0,0.0,0.0,0.0,0.0,0.0,0.0,0.0,0.0,0.0,0.0,0.0,0.0,0.0,0.0,0.0,0.0,0.0,0.0,0.0,0.0,0.0,0.0,0.0,0.0,0.0,0.0,0.0,-6.1476,-5.9583,0.0,0.0,0.0,0.0,0.0,0.0,0.0,0.0,0.0,0.0,0.0,0.0,0.0,0.0,0.0,0.0,0.0,0.0,0.0,0.0,0.0,0.0,0.0,0.0,0.0,0.0,0.0,0.0,0.0,0.0,0.0,0.0,0.0,0.0,0.0,0.0,0.0,0.0,0.0,0.0,-6.9036,-7.1455,-7.3608,-7.4893,-7.4695,-7.4823,-7.5595,-7.562,-7.5079,-7.4007,-7.2502,0.0,0.0,0.0,0.0,0.0,0.0,0.0,0.0,0.0,0.0,0.0,0.0,0.0,0.0,0.0,0.0,0.0,0.0,0.0,0.0,0.0,0.0,0.0,0.0,0.0,0.0,0.0,0.0,0.0,0.0,0.0,0.0,0.0,0.0,0.0,0.0,0.0,0.0,0.0,0.0,0.0,0.0,0.0,0.0,0.0,0.0,0.0,0.0,0.0,0.0,0.0,0.0,0.0,-6.3082,-6.3899,-6.3854,-6.3715,-6.5112,-6.7506,-6.466,-6.3726,-6.4143,-6.263,0.0,0.0,0.0,0.0,0.0,0.0,0.0,0.0,0.0,0.0,0.0,0.0,0.0,0.0,0.0,0.0,0.0,0.0,0.0,0.0,0.0,0.0,-6.7107,-6.6276,-6.7525,-6.8259,-6.5654,0.0,0.0,0.0,0.0,0.0,0.0,0.0,0.0,0.0,0.0,0.0,-7.0163,-7.2481,-7.4268,-7.4917,-7.4779,-7.4898,-7.5484,-7.5473,-7.5331,-7.508,-7.3771,-7.267,0.0,0.0,0.0,0.0,0.0,0.0,0.0,0.0,0.0,0.0,0.0,0.0,0.0,0.0,0.0,0.0,0.0,0.0,0.0,0.0,0.0,0.0,0.0,0.0,0.0,0.0,0.0,0.0,0.0,0.0,0.0,0.0,-6.05,-6.0596,0.0,0.0,0.0,0.0,0.0,0.0,0.0,0.0,0.0,0.0,0.0,0.0,0.0,-6.3147,-6.4547,-6.5142,-6.61,-6.7391,-6.9026,-6.9706,-6.9605,-6.9451,-6.9569,-6.9868,-6.9265,0.0,-6.8283,-6.7274,0.0,0.0,0.0,0.0,0.0,0.0,0.0,0.0,0.0,0.0,0.0,0.0,0.0,0.0,0.0,0.0,0.0,0.0,0.0,0.0,0.0,0.0,-7.0884,-7.0537,-7.1047,-7.1253,-7.0192,-6.7563,-6.5247,-6.4447,-6.4208,-6.369,0.0,0.0,0.0,0.0,0.0,0.0,-7.2316,-7.2812,-7.3599,-7.5576,-7.4971,-7.5185,-7.7151,-7.7017,-7.6906,-7.6906,-7.5826,-7.471,-7.335,-7.2508,0.0,0.0,0.0,0.0,0.0,0.0,0.0,0.0,0.0,0.0,0.0,0.0,0.0,0.0,0.0,0.0,0.0,0.0,0.0,0.0,0.0,0.0,0.0,0.0,0.0,0.0,0.0,0.0,0.0,-6.0461,-6.2259,-6.3168,-6.2859,-6.2356,0.0,0.0,0.0,0.0,0.0,0.0,0.0,0.0,0.0,-6.6828,-6.635,-6.676,-6.8208,-6.858,-6.9137,-6.988,-7.0586,-7.0819,-7.0717,-7.056,-7.0401,-7.033,-7.0643,-7.0863,-7.0882,-6.9137,-6.7777,-6.6623,0.0,0.0,0.0,0.0,-6.4858,-6.4996,-6.6674,-6.6633,-6.572,-6.4971,0.0,0.0,0.0,0.0,0.0,0.0,0.0,-6.7738,-6.9289,-7.0824,-7.2071,-7.2247,-7.2812,-7.3144,-7.2813,-7.1552,-6.9595,-6.6841,-6.6941,-6.6419,-6.3338,-6.4763,0.0,0.0,0.0,-7.1653,-7.2945,-7.407,-7.512,-7.6186,-7.5915,-7.606,-7.7102,-7.7008,-7.7008,-7.7008,-7.6604,-7.5876,-7.4808,-7.3706,-7.2184,0.0,0.0,0.0,0.0,0.0,0.0,0.0,0.0,0.0,0.0,0.0,0.0,0.0,0.0,0.0,0.0,0.0,0.0,0.0,0.0,0.0,0.0,0.0,0.0,0.0,0.0,0.0,0.0,-6.2954,-6.4734,-6.5837,-6.5677,-6.5032,0.0,0.0,0.0,0.0,0.0,0.0,-6.83,-6.7871,-6.8297,-6.976,-6.9357,-6.9694,-7.092,-7.1143,-7.1366,-7.1552,-7.1775,-7.1858,-7.1923,-7.1817,-7.1655,-7.1526,-7.2002,-7.2569,-7.2973,-7.0954,-6.9888,-6.9445,-6.844,-6.7652,-6.7195,-6.7782,-6.7969,-6.8283,-7.0344,-7.0359,-6.9436,-6.8797,-6.8213,-6.7421,-6.5967,0.0,0.0,0.0,0.0,-6.9581,-7.1043,-7.1999,-7.2677,-7.2978,-7.3641,-7.4105,-7.3939,-7.3906,-7.2945,-6.9666,-6.9898,-6.95,-6.5856,-6.7612,0.0,-6.7844,-7.0924,-7.3575,-7.4138,-7.5327,-7.6235,-7.6758,-7.6747,-7.6809,-7.7269,-7.7333,-7.7333,-7.7333,-7.7333,-7.7107,-7.6556,-7.552,-7.4419,-7.335,0.0,0.0,0.0,0.0,0.0,0.0,0.0,0.0,0.0,0.0,0.0,0.0,0.0,0.0,0.0,0.0,0.0,0.0,0.0,0.0,0.0,0.0,0.0,0.0,0.0,0.0,0.0,0.0,0.0,-6.8678,-6.954,0.0,0.0,0.0,0.0,-6.8215,-6.8297,-6.9207,-7.125,-7.0555,-7.0696,-7.1974,-7.1218,-7.0846,-7.092,-7.1701,-7.2518,-7.3261,-7.4041,-7.4661,-7.5161,-7.5161,-7.499,-7.4661,-7.4698,-7.4735,-7.4735,-7.3817,-7.2582,-7.1267,-7.1933,-7.077,-6.9032,-7.1185,-7.0915,-6.9708,-7.1152,-7.1006,-7.0168,-7.0114,-7.008,-7.0128,-7.0737,-6.9992,0.0,0.0,-7.1469,-7.1228,-7.3256,-7.3536,-7.3275,-7.3177,-7.3641,-7.4005,-7.331,-7.3177,-7.3111,-7.2879,-7.2879,-7.2415,-7.0792,0.0,-7.225,-7.3541,-7.3939,-7.4867,-7.692,-7.6267,-7.6037,-7.7446,-7.7055,-7.7301,-7.8661,-7.8791,-7.8791,-7.8791,-7.8791,-7.8758,-7.8726,-7.8661,-7.7657,-7.5585,-7.5488,0.0,0.0,0.0,0.0,0.0,0.0,0.0,0.0,0.0,0.0,0.0,0.0,0.0,0.0,0.0,0.0,0.0,0.0,0.0,0.0,0.0,0.0,0.0,0.0,0.0,0.0,0.0,0.0,-7.0305,-7.0871,0.0,-6.9719,-6.9889,-7.018,-7.0445,-7.1193,-7.1967,-7.2757,-7.2484,-7.2758,-7.3707,-7.3447,-7.3521,-7.4041,-7.4338,-7.462,-7.4809,-7.5068,-7.5255,-7.5174,-7.5174,-7.5058,-7.4918,-7.4918,-7.5212,-7.5652,-7.5359,-7.4615,-7.3642,-7.3919,-7.3493,-7.279,-7.2978,-7.3186,-7.3369,-7.3265,-7.3199,-7.3064,-7.2474,-7.2293,-7.236,-7.2631,-7.2699,-7.28,-7.3392,-7.3609,-7.3793,-7.4738,-7.4772,-7.4703,-7.5065,-7.5363,-7.5463,-7.5231,-7.5165,-7.5165,-7.5165,-7.4436,-7.3343,-7.1852,-7.3773,-7.5032,-7.3674,-7.5463,-7.6981,-7.7066,-7.719,-7.7194,-7.7356,-7.7623,-7.7885,-7.8143,-7.8208,-7.8208,-7.8208,-7.7787,-7.7722,-7.8175,-7.8208,-7.8078,-7.7754,-7.7754,-7.5779,0.0,0.0,0.0,0.0,0.0,0.0,0.0,0.0,0.0,0.0,0.0,0.0,0.0,0.0,0.0,0.0,0.0,0.0,0.0,0.0,0.0,0.0,0.0,0.0,0.0,0.0,-7.1827,-7.1582,-7.2361,-7.2428,-7.1221,-7.1895,-7.2357,-7.2211,-7.2957,-7.3521,-7.3781,-7.3781,-7.4153,-7.497,-7.497,-7.5267,-7.5787,-7.5787,-7.5882,-7.6014,-7.6014,-7.5957,-7.5927,-7.5927,-7.5845,-7.5726,-7.5726,-7.6203,-7.6937,-7.6937,-7.6631,-7.6053,-7.5541,-7.5115,-7.474,-7.4331,-7.4638,-7.523,-7.4183,-7.4081,-7.4295,-7.3966,-7.3883,-7.3916,-7.4153,-7.4593,-7.4938,-7.4984,-7.5131,-7.5405,-7.5805,-7.5834,-7.5728,-7.6192,-7.6324,-7.6324,-7.6324,-7.6324,-7.639,-7.6622,-7.5728,-7.4602,-7.3608,-7.5662,-7.6755,-7.4867,-7.6821,-7.8238,-7.7561,-7.7783,-7.7818,-7.7748,-7.8209,-7.8502,-7.8532,-7.8305,-7.8273,-7.8532,-7.7657,-7.7463,-7.8143,-7.7722,-7.769,-7.8175,-7.8402,-7.6783,-7.3221,0.0,0.0,0.0,0.0,0.0,0.0,0.0,0.0,0.0,0.0,0.0,0.0,0.0,0.0,0.0,0.0,0.0,0.0,0.0,0.0,0.0,0.0,0.0,-7.1464,-7.2712,-7.3393,-7.2624,-7.4152,-7.4519,-7.2548,-7.3344,-7.3811,-7.3424,-7.341,-7.3781,-7.4561,-7.4598,-7.5007,-7.5824,-7.5824,-7.5824,-7.5861,-7.5861,-7.6216,-7.6829,-7.6829,-7.7103,-7.762,-7.762,-7.75,-7.7378,-7.7378,-7.7855,-7.8626,-7.8626,-7.8544,-7.8307,-7.6855,-7.5619,-7.4752,-7.5274,-7.5253,-7.4861,-7.3844,-7.3578,-7.3713,-7.4424,-7.4695,-7.4864,-7.554,-7.5743,-7.5817,-7.6267,-7.6272,-7.6141,-7.6571,-7.6565,-7.6357,-7.6357,-7.639,-7.639,-7.639,-7.639,-7.6589,-7.7318,-7.6854,-7.639,-7.639,-7.6987,-7.7484,-7.7484,-7.8113,0.0,-7.8577,-7.8004,-7.7904,-7.8625,-7.8779,-7.9147,-7.9859,-7.9277,-7.9179,-7.9924,-7.8629,-7.8175,-7.8888,-7.7625,-7.6912,-7.6945,-7.7495,-7.7463,-7.6783,0.0,0.0,0.0,0.0,0.0,0.0,0.0,0.0,0.0,0.0,0.0,0.0,0.0,0.0,0.0,0.0,0.0,0.0,0.0,0.0,0.0,0.0,-7.3255,-7.2993,-7.434,-7.5236,-7.5033,-7.4889,-7.4675,-7.4101,-7.3784,-7.349,-7.3424,-7.393,-7.4338,-7.4561,-7.5156,-7.5861,-7.6716,-7.6716,-7.7013,-7.7608,-7.746,-7.7459,-7.7509,-7.743,-7.7363,-7.7402,-7.8027,-7.8321,-7.8295,-7.8846,-7.925,-7.947,-7.947,-7.8753,-7.7701,-7.7842,-7.7199,-7.6207,-7.5685,-7.512,-7.4786,-7.4992,-7.5473,-7.5912,-7.5506,-7.6149,-7.6995,-7.6657,-7.683,-7.7107,-7.7011,-7.6776,-7.6604,-7.7129,-7.7119,-7.7252,-7.7782,-7.7914,-7.7914,-7.7914,-7.7914,-7.798,-7.8179,-7.8047,-7.7914,-7.7914,-7.8544,-7.9041,-7.9041,-7.9206,-7.9287,-7.9484,-7.8835,-7.835,-7.8129,-7.8096,-7.8402,-7.9115,-7.8532,-7.8661,-7.9892,-7.9115,-7.892,-7.9633,-7.9309,-7.9341,-7.9859,-7.8014,-7.6977,0.0,0.0,0.0,0.0,0.0,0.0,0.0,0.0,0.0,0.0,0.0,0.0,0.0,0.0,0.0,0.0,0.0,0.0,0.0,0.0,0.0,0.0,-7.3889,-7.5062,-7.4686,-7.5428,-7.6015,-7.6015,-7.5556,-7.5094,-7.4745,-7.4576,-7.4324,-7.3945,-7.4635,-7.5267,-7.5601,-7.6084,-7.6716,-7.757,-7.757,-7.7793,-7.8127,-7.8071,-7.79,-7.7703,-7.8012,-7.8039,-7.7892,-7.8736,-7.9103,-7.914,-7.958,-7.9819,-7.9785,-8.0011,-7.936,0.0,0.0,0.0,0.0,0.0,-7.6119,-7.5676,-7.642,-7.6961,-7.7266,-7.6826,-7.7266,-7.7908,-7.7405,-7.7343,-7.7547,-7.7445,-7.7307,-7.7267,-7.7682,-7.7881,-7.798,-7.8411,-7.8511,-7.8511,-7.8511,-7.8511,-7.8511,-7.8511,-7.8776,0.0,-7.8974,-7.9339,-7.9736,-8.0034,-7.9958,-7.987,-7.9964,-7.9411,-7.8811,-7.847,-7.8647,-7.8888,-7.9309,-7.8661,0.0,0.0,0.0,-7.8499,-7.8629,-7.8629,0.0,0.0,0.0,0.0,0.0,0.0,0.0,0.0,-7.6427,-7.6006,0.0,0.0,0.0,0.0,0.0,0.0,0.0,0.0,0.0,0.0,0.0,0.0,0.0,0.0,0.0,0.0,-7.6139,-7.6861,-7.6092,-7.6015,-7.6015,-7.6015,-7.6024,-7.5742,-7.4899,-7.5535,-7.5638,-7.4815,-7.549,-7.627,-7.705,0.0,0.0,0.0,0.0,-7.8165,-7.8014,-7.8031,-7.799,-7.7731,-7.8541,-7.8823,-7.8772,-7.9543,-7.991,-7.9947,-8.003,-8.0041,-8.0148,-8.0478,-8.0092,-7.9094,-7.7707,-7.6949,-7.6812,-7.7697,-7.757,-7.713,-7.7773,0.0,0.0,-7.801,-7.8111,-7.8114,-7.7848,-7.7782,-7.7749,-7.7874,-7.7936,-7.7998,-7.8345,-7.8511,-7.8511,-7.8511,-7.8511,-7.8511,-7.8511,-7.8577,-7.8643,-7.8643,-7.9239,-7.9769,-7.9869,-7.9869,-8.0101,-8.073,-8.0575,-8.0353,-8.0451,-7.9822,-7.9447,-7.9414,-7.9736,0.0,-7.9957,-7.9309,-7.9244,-8.0054,-7.8888,-7.7916,-7.7301,-7.7269,-7.756,-7.8175,-7.8175,-7.9115,-8.1025,-8.1025,-8.1025,-8.0928,-7.6491,-7.5779,0.0,0.0,0.0,0.0,0.0,0.0,0.0,0.0,0.0,0.0,0.0,0.0,0.0,0.0,0.0,-7.3995,-7.5255,-7.6207,-7.6015,-7.6015,-7.6015,-7.6015,-7.63,-7.627,-7.5731,-7.6104,-7.6166,-7.5618,-7.6344,-7.6902,-7.7087,-7.7719,-7.8035,-7.8071,-7.8071,-7.7957,-7.7842,-7.8389,-7.8601,-7.8578,0.0,0.0,-7.958,-8.0388,-8.0755,-8.0764,-8.1368,-8.1954,-8.2381,-8.1722,-8.0633,-7.9415,-7.8454,-7.8058,-7.7924,-7.7972,-7.7908,-7.7807,-7.7942,-7.8382,-7.8788,-7.8179,-7.8688,-7.9365,-7.8657,-7.8553,0.0,-7.8669,-7.8491,-7.8345,-7.8477,-7.8511,-7.8511,-7.8511,-7.8511,-7.8511,-7.8511,-7.9007,-7.9405,-7.9405,-8.0001,-8.0664,-8.126,-8.1359,-8.1426,-8.1558,-8.1335,-8.1195,-8.1591,-8.0819,-8.0113,-7.9879,-7.9374,-7.9341,-7.9924,-7.9309,-7.9438,-8.0734,-8.0572,-8.0345,-8.0216,-8.0216,-8.028,-8.041,-8.041,-8.0604,-8.1025,-8.1025,-8.1025,-8.0993,-8.0054,-7.9892,0.0,0.0,0.0,0.0,0.0,0.0,0.0,0.0,0.0,0.0,0.0,-7.2236,0.0,0.0,-7.561,-7.5524,-7.6515,-7.7092,-7.6707,-7.7015,-7.7092,-7.6707,-7.6824,-7.6939,-7.6884,-7.7235,-7.7278,-7.6817,-7.727,-7.7534,-7.7534,-7.7886,-7.8179,-7.8491,-7.8122,-7.8064,-7.8293,-7.8638,-7.8738,-7.8713,-7.9863,-8.0388,-8.0424,-8.1232,-8.1586,-8.1547,-8.178,-8.1845,-8.1627,-8.0419,-7.9925,-7.9768,-7.8604,-7.8138,-7.8239,-7.8921,-7.8855,-7.8585,-7.8957,-7.9329,-7.96,-7.9228,-7.9398,-7.9734,-7.9262,-7.895,-7.8936,-7.8724,-7.8617,-7.8511,-7.8511,-7.8511,-7.8511,-7.8511,-7.8809,-7.9074,-7.9074,-7.9637,-8.0167,-8.0167,-8.073,-8.1359,-8.1724,-8.2088,-8.2353,-8.2353,-8.1982,-8.1771,-8.1934,-8.1206,-8.0625,-8.0507,-8.0183,-8.0119,-8.0475,-8.0183,-8.028,-8.0993,-8.1025,-8.1025,-8.1025,-8.1025,-8.1025,-8.1025,-8.1025,-8.1025,-8.1025,-8.1025,-8.1025,-8.1025,-8.1025,-8.1025,0.0,0.0,0.0,0.0,0.0,0.0,0.0,0.0,-7.1528,-7.2415,-7.3206,-7.4043,-7.4994,-7.5917,-7.6677,-7.7207,-7.7823,-7.8092,-7.7592,-7.8092,-7.8323,-7.7823,-7.7784,-7.7822,-7.7987,-7.84,-7.8421,-7.7879,-7.794,-7.8014,-7.7957,-7.7842,-7.8116,-7.8684,-7.8242,-7.8256,-7.8738,-7.9069,-7.9154,-7.9066,-8.0534,-8.1232,-8.1269,-8.2076,-8.2299,-8.1997,-8.1878,-8.1236,-8.0289,-7.9205,-7.925,-7.9837,-7.8517,-7.8077,-7.8348,-7.9532,-7.9701,-7.9397,-8.0006,-8.0209,-8.0209,-8.0107,-7.9904,-7.9699,-7.9388,-7.9041,-7.883,-7.8511,-7.8511,-7.8511,-7.8511,-7.8643,-7.8742,-7.8742,-7.9306,-7.9836,-7.9836,-8.0399,-8.0896,-8.0896,-8.1492,-8.1956,-8.1823,-8.2419,-8.2883,-8.277,-8.2313,-8.1967,-8.1967,-8.1251,-8.0831,-8.0831,-8.0831,-8.0831,-8.0831,-8.0831,-8.0831,-8.0831,-8.0701,-8.0734,-8.1025,-8.0896,-8.0896,-8.1025,-8.1025,-8.1025,-8.1025,-8.1155,-8.1252,-8.1252,-8.1382,-8.1382,-6.943,-6.964,0.0,-7.2343,-7.2226,-7.25,0.0,0.0,-7.4333,-7.5608,-7.648,-7.6814,-7.6034,-7.6592,-7.7207,-7.7284,-7.7361,-7.763,-7.8284,-7.8438,-7.8746,-7.9438,-7.9515,-7.922,-7.8435,-7.9064,-7.9105,-7.8053,-7.7997,-7.7957,-7.7842,-7.782,-7.7799,-7.7731,-7.832,-7.8664,-7.8589,-8.0021,-8.0755,-8.0755,-8.1636,-8.2076,-8.2076,-8.292,-8.2673,-8.1776,-8.1932,-8.1484,-8.0565,-8.0295,-7.9871,-7.916,-7.8314,-7.8382,-7.9025,-7.916,-7.96,-8.0073,-8.0175,-8.0209,-8.0209,-7.9904,-7.9699,-7.9388,-7.9041,-7.8724,-7.8511,-7.8511,-7.8511,-7.8511,-7.8511,-7.9007,-7.9504,-7.9504,-8.0034,-8.0564,-8.0564,-8.1161,-8.1658,-8.1658,-8.2254,-8.2552,-8.1889,-8.2419,-8.277,-8.251,-8.2198,-8.185,-8.1584,-8.0711,-8.0086,-8.0086,-8.0086,-8.0086,-8.0086,-8.0086,-8.0086,-8.0086,-7.9503,-7.9698,-8.0993,-8.041,-8.0378,-8.1025,-8.1025,-8.1025,-8.1025,-8.1673,-8.1997,-8.1997,-8.2644,-8.2612,-7.2768,0.0,0.0,0.0,-7.4531,-7.4648,-7.6055,-7.5739,-7.5417,-7.634,-7.6704,-7.6862,-7.6794,-7.7053,-7.7438,0.0,-7.84,-7.8861,-7.9208,-7.9669,-8.0131,-8.0516,-8.0554,-8.0389,-8.0004,-7.9695,-7.9366,-7.8841,-7.8611,-7.8242,-7.774,-7.8025,-7.8259,-7.8198,-7.8051,-7.8357,-7.9286,-7.9947,-8.0534,-8.1012,-8.2296,-8.292,-8.292,-8.3074,-8.2378,-8.1113,-8.0706,-8.0474,-8.0274,-7.8905,-7.8672,-7.8957,-7.7299,-7.7671,-7.9126,-7.9126,-7.9566,-8.0209,-8.0209,-8.0107,-8.0006,-7.9801,-7.9492,-7.9041,-7.8936,-7.8724,-7.8511,-7.8511,-7.8511,-7.861,-7.9041,-7.9405,-7.9736,-8.0134,-8.0796,-8.1326,-8.1326,-8.1923,-8.2453,-8.2453,-8.2353,-8.2287,-8.2419,-8.232,-8.2274,-8.2133,-8.1722,-8.136,-8.1551,-8.0646,-8.0119,-8.054,-8.0604,-8.0604,-8.0604,-8.0604,-8.0604,-8.0604,-8.0313,-8.041,-8.0993,-8.0734,-8.0928,-8.1641,-8.1673,-8.1867,-8.2288,-8.258,-8.2742,-8.2742,-8.3065,-8.3227,-7.4353,0.0,0.0,-7.5664,-7.6094,-7.625,-7.6247,-7.636,-7.656,-7.6933,-7.7135,-7.7328,-7.7665,-7.7737,-7.7978,-7.8738,-7.94,-7.99,-8.0131,-8.0708,-8.1093,-8.1093,-8.1061,-8.1138,-8.1369,-8.0389,-7.963,-7.9482,-7.9019,-7.8541,-7.7928,-7.8321,-7.8479,-7.8259,-7.8295,-7.8809,-7.9764,-8.0241,-8.0755,-8.1342,-8.2737,-8.3331,-8.3301,-8.2899,-8.2194,-8.1353,-8.0213,-7.9901,-8.0073,-7.8247,-7.8145,-7.8923,-7.7063,-7.7468,-7.9126,-7.9126,-7.9566,-8.0209,-8.0209,-8.0006,-7.9801,-7.9699,-7.9355,-7.8936,-7.883,-7.8617,-7.8511,-7.8511,-7.8511,-7.8709,-7.9438,-7.9769,-8.0101,-8.0829,-8.1558,-8.2088,-8.2088,-8.2519,-8.2883,-8.2883,-8.2453,-8.2221,-8.2552,-8.232,-8.1996,-8.1755,-8.1213,-8.1033,-8.1284,-8.0528,-8.0183,-8.0669,-8.0734,-8.0734,-8.0734,-8.0734,-8.0734,-8.0734,-8.054,-8.0701,-8.1317,-8.1122,-8.1446,-8.2385,-8.2418,-8.2677,-8.3195,-8.3389,-8.3486,-8.3486,-8.3681,-8.4037,0.0,0.0,-7.4805,-7.5664,-7.6523,-7.7147,-7.7156,-7.7747,-7.8284,-7.8078,-7.8715,-7.9204,-7.8812,-7.8757,-7.8967,-7.9653,-7.9785,-8.0092,-8.0939,-8.1093,-8.1093,-8.1093,-8.0991,-8.1234,0.0,-8.1185,-8.0301,-7.963,-7.9083,-7.8738,-7.8552,-7.8589,-7.8222,-7.7378,-7.9653,-8.0534,-7.98,-8.1342,-8.215,-8.215,-8.2994,-8.3264,-8.3098,-8.2433,-8.2537,-8.3068,-8.1029,-8.0175,-8.0141,-7.9363,-7.9058,-7.9025,-7.8247,-7.8416,-7.9126,-7.9126,-7.9566,-8.0209,-8.0209,-8.0006,-7.9801,-7.9492,-7.9179,-7.883,-7.8617,-7.8511,-7.8511,-7.8511,-7.8511,-7.8709,-7.9438,-8.0134,-8.0829,-8.1591,-8.232,-8.2883,-8.2883,-8.2883,-8.2883,-8.2883,-8.2883,-8.2651,-8.1956,-8.2419,-8.2392,-8.1131,-8.0886,-8.0917,-8.1047,-8.041,-7.9989,-7.9989,-7.9989,-7.9989,-7.9989,-7.9989,-7.9989,-7.9989,-7.9341,-7.9892,-8.1997,-8.1414,-8.1705,-8.313,-8.3163,-8.3163,-8.3195,-8.3843,-8.4167,-8.4199,-8.4879,-8.5235,0.0,0.0,-7.582,-7.7265,-7.7851,-7.8201,-7.8752,-7.9059,-7.9197,-7.9001,-7.9663,-8.0182,-7.9913,-8.0229,-8.0589,-8.0794,-8.1205,-8.1362,-8.1131,-8.1554,-8.1869,-8.1843,-8.1771,0.0,0.0,0.0,0.0,-8.008,-7.9681,-7.8945,-7.7818,-7.8772,-7.9029,-7.8185,-7.947,-8.0314,-8.0571,-8.1672,-8.248,-8.303,-8.4217,-8.4246,-8.3227,-8.3019,-8.2272,-8.1222,-8.0032,-7.9769,-8.0107,-7.8889,-7.8653,-7.9025,-7.828,-7.845,-7.9126,-7.9126,-7.9465,-7.9904,-7.9904,-7.9801,-7.9492,-7.9146,-7.883,-7.8617,-7.8511,-7.8511,-7.861,-7.9107,-7.9239,-7.9537,-8.0763,-8.1227,-8.1624,-8.2353,-8.2718,-8.2883,-8.2883,-8.2883,-8.2883,-8.2883,-8.2486,-8.2254,-8.2486,-8.232,-8.2161,-8.2312,-8.1551,-8.0808,-8.0345,-8.0961,-8.1382,-8.1382,-8.1802,-8.19,-8.1414,-8.1835,-8.19,-8.1414,-8.1608,-8.2062,-8.2806,-8.258,-8.2904,-8.3843,-8.3843,-8.4102,-8.4588,-8.4814,-8.4911,-8.4944,-8.517,-8.5268,-7.5348,-7.6309,-7.7187,-7.8594,-7.8945,-7.9062,-7.9582,-7.9957,-8.0126,-8.0017,-8.0407,-8.0736,-8.0551,-8.1058,-8.1523,-8.1774,-8.2381,-8.267,-8.2477,-8.2599,-8.2682,-8.2616,-8.2587,-8.2863,0.0,0.0,0.0,-8.1144,-8.0295,-7.947,-7.8662,-7.936,-7.9543,-7.9029,-8.0094,-8.0755,-8.1012,-8.2076,-8.3111,-8.4144,-8.4926,-8.4781,-8.3826,-8.3399,-8.2279,-8.0607,-7.9867,-7.9769,-8.0141,-7.916,-7.9058,-7.9464,-7.8957,-7.9092,-7.9498,-7.9498,-7.977,-8.0172,-7.9902,-7.9596,-7.9179,-7.8936,-7.8724,-7.8577,-7.8842,-7.8908,-7.9074,-7.9802,-8.0001,-8.0266,-8.1492,-8.179,-8.1989,-8.2718,-8.2883,-8.2883,-8.2883,-8.2883,-8.2883,-8.2883,-8.2519,-8.2353,-8.2817,-8.2491,-8.2494,-8.3329,-8.2422,-8.1641,-8.1187,-8.1932,-8.2483,-8.2483,-8.2904,-8.3001,-8.2547,-8.2936,-8.3001,-8.2515,-8.2936,-8.3292,-8.3551,-8.3551,-8.3875,-8.4588,-8.4588,-8.4814,-8.5268,-8.5268,-8.5268,-8.5268,-8.5268,-8.543,-7.7603,-7.8447,-7.875,-7.957,-7.9765,-7.9765,-7.9834,-8.048,-8.1044,-8.0966,-8.1005,-8.0985,0.0,0.0,-8.1871,-8.2496,-8.3191,-8.3939,-8.4709,-8.4033,-8.3461,0.0,0.0,0.0,0.0,0.0,0.0,-8.2631,0.0,-8.0167,-8.0901,-8.0241,-7.9837,-7.9837,-8.1415,-8.1893,-8.1122,-8.2737,-8.418,-8.5581,-8.5118,-8.4777,-8.4604,-8.3434,-8.2405,-8.1509,-8.0542,-8.0209,-8.0209,-8.0209,-8.0209,-8.0209,-8.0242,-8.0242,-8.0276,-8.0276,-8.0579,-8.0879,-8.0172,-7.9455,-7.8969,-7.8969,-7.879,-7.8709,-7.9471,-7.967,-7.9836,-8.0531,-8.0763,-8.0929,-8.1658,-8.1856,-8.2022,-8.2718,-8.2883,-8.2883,-8.2883,-8.2883,-8.2883,-8.2883,-8.2916,-8.295,-8.295,-8.3054,-8.331,-8.4031,-8.3682,-8.3227,-8.3195,-8.3227,-8.3227,-8.3195,-8.3227,-8.3227,-8.313,-8.3163,-8.3195,-8.3195,-8.3227,-8.3551,-8.4231,-8.4231,-8.4555,-8.5268,-8.5235,-8.5235,-8.5268,-8.5268,-8.53,-8.5332,-8.5332,-8.5753,-7.8074,-7.8894,-7.9609,-8.0469,-8.0657,-8.0836,-8.1508,-8.1808,-8.1591,-8.0302,-8.1044,-8.1545,0.0,0.0,0.0,-8.2823,-8.3702,0.0,-8.3841,-8.4084,0.0,-8.4171,0.0,-8.4212,-8.46,-8.3952,0.0,0.0,-8.1551,-8.0534,-8.0131,-8.0461,-8.0681,-8.0681,-8.226,-8.2994,-8.281,-8.4254,-8.5328,-8.6173,-8.5174,-8.4263,-8.3434,-8.2405,-8.1413,-8.0542,-8.0276,-8.0209,-8.0209,-8.0209,-8.0209,-8.0242,-8.0784,-8.1021,-8.1088,-8.1423,-8.1447,-8.137,-8.0956,-8.0308,-7.9661,-7.9447,-7.9339,-7.9471,-8.02,-8.0432,-8.0564,-8.1293,-8.1525,-8.1691,-8.2419,-8.2618,-8.2651,-8.285,-8.2883,-8.2883,-8.2883,-8.2883,-8.2883,-8.2883,-8.3347,-8.3711,-8.3711,-8.3961,-8.4334,-8.4817,-8.4552,-8.4024,-8.326,-8.3648,-8.3746,-8.326,-8.3648,-8.3519,-8.2483,-8.2871,-8.3195,-8.3195,-8.3681,-8.4264,-8.4976,-8.449,-8.4555,-8.5268,-8.4749,-8.4749,-8.5268,-8.5268,-8.5559,-8.611,-8.611,-8.6498,-7.9786,-8.0508,-8.0976,-8.1445,-8.1589,-8.1519,-8.1222,-8.1173,-8.0654,-7.8936,-7.9326,0.0,0.0,0.0,0.0,0.0,0.0,0.0,-8.5043,-8.5049,-8.5052,0.0,-8.494,0.0,-8.5212,-8.4419,-8.3822,0.0,-8.1944,-8.0975,-8.0865,-8.0938,-8.1158,-8.1525,-8.2774,-8.3698,-8.4327,-8.4999,-8.5446,-8.5652,-8.488,-8.3777,-8.2405,-8.1886,-8.1063,-8.0209,-8.0209,-8.0209,-8.0209,-8.0547,-8.0682,-8.075,-8.1494,-8.1765,-8.1832,-8.196,-8.2013,-8.2033,-8.1342,-8.0959,-8.0717,-8.02,-8.0101,-8.0233,-8.0962,-8.1161,-8.1326,-8.2088,-8.2287,-8.2386,-8.2784,-8.2883,-8.2883,-8.2883,-8.2883,-8.2883,-8.2883,-8.2883,-8.2983,-8.3314,-8.3976,-8.4606,-8.4904,-8.4918,-8.5089,-8.557,-8.5303,-8.4673,-8.3713,-8.3972,-8.394,-8.326,-8.3551,-8.3454,-8.2644,-8.2968,-8.3195,-8.3195,-8.3843,-8.4393,-8.4782,-8.4717,-8.4879,-8.5268,-8.5203,-8.5365,-8.5786,-8.6077,-8.6433,-8.6854,-8.6854,-8.7211,-8.1625,-8.2148,-8.2148,-8.2265,-8.2289,-8.1831,-8.0107,-7.9717,-7.9131,-7.7179,0.0,-7.6945,-7.6945,-7.9234,-8.1485,-8.2549,0.0,-8.5958,-8.6812,-8.6202,-8.5743,-8.5858,-8.5664,-8.5643,-8.5943,-8.4732,-8.3956,-8.4063,-8.225,-8.1452,-8.215,-8.1525,-8.1599,-8.248,-8.3324,-8.4358,-8.5654,-8.5335,-8.5004,-8.4685,-8.4195,-8.3174,-8.1603,-8.1413,-8.1,-8.0209,-8.031,-8.0276,-8.0276,-8.1088,-8.1393,-8.1359,-8.2238,-8.2543,-8.2577,-8.2364,-8.2483,-8.2737,-8.1742,-8.1614,-8.1823,-8.1094,-8.0829,-8.0962,-8.1724,-8.1956,-8.2088,-8.2718,-8.2883,-8.2883,-8.2883,-8.2883,-8.2883,-8.2883,-8.2883,-8.2883,-8.2883,-8.2983,-8.3248,-8.401,-8.4738,-8.5434,-8.6063,-8.5756,-8.5538,-8.6193,-8.5799,-8.5009,-8.4296,-8.4199,-8.394,-8.326,-8.3098,-8.3033,-8.3033,-8.2968,-8.2936,-8.3033,-8.3681,-8.4134,-8.4328,-8.4944,-8.5365,-8.5559,-8.611,-8.6466,-8.6531,-8.7146,-8.747,-8.7567,-8.7567,-8.7955,-8.0741,-8.1211,-8.1405,-8.2125,-8.232,-8.1855,-8.0113,-7.9717,0.0,0.0,-7.5501,-7.6047,-7.6047,-7.7472,-7.9602,-8.2319,0.0,0.0,0.0,0.0,-8.5818,0.0,0.0,0.0,0.0,0.0,0.0,0.0,-8.2582,-8.2039,-8.2186,-8.2076,-8.2663,-8.4132,-8.4976,-8.5752,-8.6459,-8.5475,-8.4895,-8.4685,-8.2909,-8.1979,-8.1603,-8.0804,-8.0376,-8.0242,-8.0818,0.0,-8.031,-8.1663,-8.1832,-8.1426,-8.278,-8.3321,-8.3283,-8.3497,-8.3582,-8.3464,-8.2776,-8.2585,-8.2585,-8.1856,-8.1591,-8.1757,-8.2486,-8.2718,-8.2751,-8.285,-8.2883,-8.2883,-8.2883,-8.2883,-8.2883,-8.2883,-8.2883,-8.2883,-8.2883,-8.338,-8.4043,-8.4771,-8.55,-8.603,-8.6163,-8.6184,-8.6127,-8.6258,-8.5799,-8.5009,-8.4296,-8.4199,-8.394,-8.326,-8.2644,-8.2288,-8.2288,-8.1738,-8.1673,-8.2256,-8.2968,-8.3875,-8.5041,-8.5203,-8.5851,-8.7016,-8.6628,-8.6693,-8.7243,-8.7373,-8.7729,-8.8312,-8.8312,-8.87,-8.0664,-8.1015,-8.1209,-8.2076,-8.2305,-8.1608,-7.8942,0.0,0.0,0.0,-7.39,-7.4642,-7.5032,-7.6751,0.0,0.0,0.0,0.0,0.0,0.0,0.0,0.0,0.0,0.0,0.0,0.0,0.0,0.0,-8.2884,-8.237,-8.281,-8.3214,-8.3985,-8.5196,-8.56,-8.605,-8.6536,-8.5953,-8.5117,-8.3777,-8.282,-8.1792,-8.0804,-8.0376,-8.0209,-8.0242,-8.0953,-8.0885,-8.0344,-8.2205,-8.2306,-8.146,-8.3355,-8.3862,-8.3486,-8.3725,-8.3775,-8.3665,-8.3108,-8.2883,-8.285,-8.2486,-8.2353,-8.2453,-8.2784,-8.2883,-8.2883,-8.2883,-8.2883,-8.2883,-8.2883,-8.2883,-8.2883,-8.2883,-8.3181,-8.348,-8.348,-8.4341,-8.5235,-8.56,-8.6262,-8.6759,-8.6522,-8.6097,-8.5701,-8.5458,-8.4797,-8.394,-8.3195,-8.313,-8.3001,-8.2677,-8.2321,-8.2126,-8.2126,-8.245,-8.2839,-8.3163,-8.4264,-8.517,-8.5851,-8.6207,-8.6725,-8.7405,-8.747,-8.7664,-8.7988,-8.8376,-8.8733,-8.9057,-8.9057,-8.9251,-8.0234,-8.0468,-8.0659,-8.153,-8.1753,-8.0888,-7.757,-7.6828,0.0,0.0,-7.2534,-7.3315,-7.433,-7.601,-7.7623,0.0,0.0,0.0,0.0,0.0,0.0,0.0,0.0,0.0,0.0,0.0,0.0,0.0,-8.3324,-8.292,-8.3398,-8.4352,-8.5159,-8.5783,-8.5967,-8.6127,-8.6392,-8.5989,-8.488,-8.2998,-8.2726,-8.1741,-8.0209,-8.0344,-8.0445,-8.0479,-8.1224,-8.1122,-8.0581,-8.2644,-8.2712,-8.1697,-8.3625,-8.4133,-8.3689,-8.3758,-8.3775,-8.3665,-8.3108,-8.2883,-8.2883,-8.2883,-8.2883,-8.2883,-8.2883,-8.2883,-8.2883,-8.2883,-8.2883,-8.2883,-8.2883,-8.2883,-8.295,-8.3115,-8.3579,-8.4076,-8.4407,-8.5235,-8.5997,-8.613,-8.666,-8.6938,-8.6579,-8.5681,-8.4893,-8.4691,-8.4024,-8.3195,-8.2644,-8.2547,-8.2547,-8.2547,-8.2288,-8.2288,-8.2742,-8.3648,-8.4264,-8.4426,-8.5689,-8.6466,-8.6628,-8.7275,-8.7729,-8.7891,-8.8441,-8.8733,-8.8733,-8.9316,-8.9575,-8.9575,-8.9575,-8.9575,-7.8476,-7.8702,-7.8835,-7.9711,-7.9933,-7.9248,-7.6516,0.0,0.0,-7.2534,-7.2065,-7.2612,-7.4212,-7.4576,0.0,0.0,0.0,-8.0935,0.0,0.0,0.0,0.0,0.0,0.0,0.0,0.0,0.0,0.0,0.0,-8.4095,-8.3471,-8.4866,-8.571,-8.5783,-8.6518,-8.6712,-8.6392,-8.4729,-8.3571,-8.3033,-8.1943,-8.102,-8.0209,-8.0885,-8.119,-8.1224,-8.1968,-8.1866,0.0,-8.2847,-8.3016,-8.2408,-8.3253,-8.3964,-8.4432,-8.396,-8.3775,-8.3665,-8.3108,-8.2883,-8.2883,-8.2883,-8.2883,-8.2883,-8.2883,-8.2883,-8.2883,-8.2883,-8.2883,-8.2883,-8.2883,-8.2883,-8.3082,-8.3745,-8.3943,-8.4374,-8.5699,-8.5567,-8.5401,-8.603,-8.6229,-8.6144,-8.5789,-8.4925,-8.4304,-8.4626,-8.4413,-8.4069,-8.4037,-8.4005,-8.4005,-8.4005,-8.2871,-8.2904,-8.4814,-8.4523,-8.449,-8.5138,-8.5948,-8.6693,-8.7308,-8.802,-8.87,-8.938,-8.9445,-8.9478,-8.9478,-8.9542,-8.9575,-8.9575,-8.9575,-8.9575,-7.8242,-7.8464,-7.863,-7.946,-7.9689,-7.9014,-7.6399,0.0,0.0,-7.2534,-7.2417,-7.3107,-7.4186,-7.4772,-7.5599,0.0,0.0,0.0,0.0,0.0,0.0,0.0,0.0,0.0,0.0,0.0,0.0,0.0,0.0,-8.5159,-8.4866,-8.593,-8.6518,-8.6518,-8.6673,-8.6428,-8.554,-8.4685,-8.3571,-8.213,-8.1723,-8.1251,-8.0851,-8.0716,-8.0885,-8.1291,-8.1596,-8.1325,0.0,-8.2712,-8.2543,-8.1257,-8.2881,-8.3422,-8.325,-8.3188,-8.3406,-8.3665,-8.3108,-8.2883,-8.2817,-8.2386,-8.2221,-8.2221,-8.2221,-8.2221,-8.2221,-8.2221,-8.2552,-8.3016,-8.3446,-8.3579,-8.3645,-8.3943,-8.401,-8.4175,-8.4738,-8.5003,-8.5335,-8.603,-8.5681,-8.5314,-8.5624,-8.4346,-8.3345,-8.3942,-8.3472,-8.3098,-8.3551,-8.3584,-8.3746,-8.4167,-8.4102,-8.4361,-8.5203,-8.6207,-8.6919,-8.7211,-8.7923,-8.8441,-8.87,-8.8992,-8.9283,-8.9575,-8.9575,-8.9575,-8.9575,-8.9575,-8.9575,-8.9575,-8.9575,-8.9575,-7.789,-7.8077,-7.8206,-7.9098,-7.8936,-7.8077,0.0,0.0,0.0,-7.2417,-7.2633,-7.3423,-7.4166,-7.4898,-7.5616,0.0,0.0,-7.9122,0.0,0.0,0.0,0.0,0.0,0.0,0.0,0.0,0.0,0.0,0.0,-8.5894,-8.6151,-8.6701,-8.6995,-8.6995,-8.6786,-8.6174,-8.5003,-8.4523,-8.3505,-8.1914,-8.1661,-8.1418,-8.1291,-8.0987,-8.1122,-8.1629,-8.1629,-8.1325,0.0,-8.2306,-8.1934,-8.0682,-8.2238,-8.2678,-8.2371,-8.2382,-8.2837,-8.3364,-8.2776,-8.2552,-8.2486,-8.1956,-8.1492,-8.1161,-8.1161,-8.1293,-8.1459,-8.1459,-8.2154,-8.3016,-8.3546,-8.401,-8.4275,-8.4043,-8.401,-8.4076,-8.4275,-8.4573,-8.4937,-8.5434,-8.4987,-8.4555,-8.4847,-8.3539,-8.2628,-8.3105,-8.2733,-8.2547,-8.2839,-8.3227,-8.3584,-8.3875,-8.4944,-8.5689,-8.5883,-8.7308,-8.8376,-8.8797,-8.9316,-8.9575,-8.9575,-8.9575,-8.9575,-8.9575,-8.9575,-8.9575,-8.9575,-8.9575,-8.9575,-8.9575,-8.9575,-8.9575,-7.6992,-7.7145,-7.7329,-7.82,-7.7101,-7.5813,0.0,0.0,0.0,-7.2182,-7.2509,-7.3258,-7.4143,-7.4709,-7.5314,-7.6165,0.0,0.0,0.0,0.0,0.0,0.0,0.0,0.0,0.0,0.0,0.0,0.0,0.0,0.0,-8.6958,-8.6995,-8.6995,-8.6995,-8.6786,-8.6174,-8.5003,-8.3874,-8.3081,-8.2707,-8.173,-8.1291,-8.1291,-8.2069,-8.2408,-8.2408,-8.2408,-8.2408,0.0,-8.1596,-8.1291,-8.1291,-8.1291,-8.1765,-8.2304,-8.1811,-8.2067,-8.2594,-8.2046,-8.179,-8.179,-8.179,-8.0829,-7.9637,-7.9637,-8.0134,-8.0697,-8.0697,-8.1757,-8.2883,-8.2916,-8.401,-8.4904,-8.4175,-8.401,-8.4208,-8.4937,-8.454,-8.401,-8.401,-8.401,-8.378,-8.3133,-8.2458,-8.1995,-8.2117,-8.2742,-8.2936,-8.2223,-8.3325,-8.394,-8.326,-8.5138,-8.666,-8.734,-8.7437,-8.8053,-8.9478,-8.9575,-8.9575,-8.9575,-8.9575,-8.9575,-8.9575,-8.9575,-8.9575,-8.9575,-8.9575,-8.9575,-8.9575,-8.9575,-8.9575,-7.64,-7.6704,-7.7034,-7.6711,-7.6203,-7.5501,-7.4369,0.0,0.0,-7.2773,-7.3319,-7.4055,-7.4673,-7.5404,-7.6132,-7.6839,-7.7493,0.0,0.0,0.0,0.0,0.0,0.0,0.0,0.0,0.0,0.0,0.0,0.0,0.0,-8.6995,-8.6995,-8.6995,-8.6995,-8.6027,-8.5081,-8.4041,-8.3311,-8.2466,-8.173,-8.2004,-8.2306,-8.278,-8.2543,-8.2408,-8.2374,-8.1866,-8.1359,-8.0919,-8.119,-8.0987,-8.0581,-8.1088,-8.1426,-8.1526,-8.1039,-8.1632,-8.2528,-8.1448,-8.1359,-8.1624,-8.0631,-8.0001,-7.9537,-7.9041,-7.9372,-8.0167,-8.1161,-8.2519,-8.3645,-8.3645,-8.401,-8.4308,-8.4076,-8.3612,-8.3314,-8.3546,-8.3413,-8.3413,-8.391,-8.3465,-8.3037,-8.33,-8.2425,-8.1878,-8.2357,-8.2442,-8.2547,-8.2806,-8.3227,-8.3616,-8.3843,-8.449,-8.5397,-8.6628,-8.8053,-8.9089,-8.9542,-8.9575,-8.9575,-8.9575,-8.9575,-8.9575,-8.9575,-8.9575,-8.9575,-8.9575,-8.9575,-8.9575,-8.9575,-8.9575,-8.9575,-7.595,-7.6024,-7.6164,-7.6281,-7.5579,0.0,0.0,0.0,0.0,-7.286,-7.3518,-7.4261,-7.4873,-7.5644,-7.6314,-7.6707,-7.7093,0.0,0.0,0.0,0.0,0.0,0.0,0.0,0.0,0.0,0.0,0.0,0.0,0.0,-8.6995,-8.7288,-8.7225,-8.6794,-8.5861,-8.5141,-8.4471,-8.3601,-8.2741,-8.2103,-8.2306,-8.278,-8.349,-8.3016,-8.2678,-8.2374,-8.19,-8.1291,0.0,-8.0784,-8.0615,-8.0242,-8.0716,-8.0885,-8.0783,-8.0267,-8.0861,-8.1692,-8.0684,-8.0598,-8.0829,-7.9935,-7.9637,-7.9604,-7.9405,-7.9471,-7.9935,-8.1393,-8.2651,-8.3579,-8.3579,-8.3811,-8.3943,-8.3645,-8.3215,-8.2883,-8.2883,-8.2883,-8.3049,-8.3513,-8.3101,-8.2674,-8.2906,-8.2262,-8.178,-8.1999,-8.2052,-8.2191,-8.2353,-8.2871,-8.326,-8.3389,-8.4134,-8.4976,-8.5915,-8.747,-8.8603,-8.9154,-8.9186,-8.9316,-8.9575,-8.9575,-8.9575,-8.9575,-8.9575,-8.9575,-8.9575,-8.9575,-8.9575,-8.9575,-8.9575,-8.9737,0.0,-7.5188,-7.4954,-7.6432,-7.5026,-7.3406,-7.3982,0.0,0.0,0.0,0.0,-7.3976,-7.4804,-7.5528,-7.5985,-7.5972,-7.5948,0.0,0.0,0.0,0.0,0.0,0.0,0.0,0.0,0.0,0.0,0.0,0.0,0.0,-8.6999,-8.7696,-8.7559,-8.6492,-8.6217,-8.5966,-8.5746,-8.4422,-8.3634,-8.349,-8.2881,-8.2915,-8.3592,-8.3592,-8.3186,0.0,-8.2475,-8.2035,-8.1224,-8.0547,-8.0242,-8.0209,-8.0209,-8.0209,-8.0107,-7.9596,-7.989,-8.0387,-7.9787,-7.9571,-7.9637,-7.9637,-7.967,-7.9836,-8.0564,-8.0299,-8.0067,-8.1426,-8.232,-8.2883,-8.2883,-8.3413,-8.3745,-8.3049,-8.2883,-8.2883,-8.2883,-8.2883,-8.2883,-8.2883,-8.2883,-8.2656,-8.2083,-8.1967,-8.1734,-8.1144,-8.1608,-8.1802,-8.1187,-8.2288,-8.2904,-8.2321,-8.4037,-8.5235,-8.5268,-8.6012,-8.7049,-8.8409,-8.8506,-8.883,-8.9542,-8.9575,-8.9575,-8.9575,-8.9575,-8.9575,-8.9575,-8.9575,-8.9575,-8.9575,-8.9639,-8.9996,-7.3666,0.0,-7.4435,-7.406,-7.3495,-7.2919,0.0,-7.1855,-7.173,-7.2424,-7.317,0.0,0.0,-7.5456,-7.6178,-7.6701,0.0,0.0,0.0,0.0,0.0,0.0,0.0,0.0,0.0,0.0,0.0,0.0,0.0,-8.6935,-8.6863,-8.7006,-8.7161,-8.7201,-8.6274,-8.5426,-8.4506,-8.3837,-8.3496,-8.349,-8.393,-8.42,-8.437,-8.437,-8.3964,-8.3253,-8.3253,-8.2509,-8.1257,-8.1088,-8.0716,-8.0209,-8.0209,-8.0209,-8.0107,-7.9596,-7.989,-8.0321,-7.9189,-7.914,-7.9637,-7.9637,-8.0001,-8.0564,-8.1326,-8.1426,-8.1359,-8.1691,-8.232,-8.2883,-8.2883,-8.3016,-8.3115,-8.295,-8.2883,-8.2883,-8.2883,-8.2883,-8.2883,-8.2883,-8.2656,-8.2428,-8.2083,-8.1734,-8.1499,-8.1025,-8.1187,-8.1414,-8.1802,-8.2159,-8.2709,-8.3616,-8.4167,-8.4685,-8.5235,-8.6466,-8.7567,-8.8441,-8.8506,-8.883,-8.9542,-8.9575,-8.9575,-8.9575,-8.9575,-8.9575,-8.9575,-8.9575,-8.9575,-8.9607,-9.0125,-9.0449,-7.2455,-7.3189,-7.3796,-7.362,-7.3211,-7.2701,-7.2093,-7.1668,-7.1571,-7.2221,0.0,0.0,0.0,0.0,0.0,0.0,-7.8255,0.0,0.0,0.0,0.0,0.0,0.0,0.0,0.0,0.0,0.0,0.0,0.0,-8.6538,-8.6815,-8.6787,-8.6692,-8.6713,-8.6358,-8.5846,-8.5201,-8.4352,-8.3998,-8.4031,-8.4437,-8.464,-8.464,-8.464,-8.42,-8.349,-8.349,-8.2847,-8.1765,-8.1426,-8.1054,-8.0648,-8.031,-8.0107,-8.0006,-7.9596,-7.9551,-7.9608,-7.875,-7.9007,-7.9736,-8.0399,-8.0896,-8.1326,-8.2088,-8.2287,-8.2287,-8.2287,-8.2585,-8.2883,-8.2883,-8.2883,-8.2883,-8.2883,-8.2883,-8.2883,-8.2883,-8.2883,-8.2883,-8.2883,-8.2656,-8.228,-8.2083,-8.1734,-8.1479,-8.1479,-8.1511,-8.177,-8.2515,-8.2871,-8.3357,-8.4134,-8.449,-8.4847,-8.5268,-8.598,-8.6757,-8.7502,-8.7535,-8.7858,-8.8571,-8.8927,-8.9089,-8.9089,-8.9089,-8.9089,-8.9089,-8.9089,-8.9251,-8.9607,-8.9963,-9.0287,-7.1916,-7.26,-7.338,-7.3743,-7.3333,-7.2734,-7.2336,-7.1672,-7.1332,0.0,0.0,0.0,0.0,-7.6284,0.0,0.0,0.0,0.0,0.0,0.0,0.0,0.0,0.0,0.0,0.0,0.0,0.0,0.0,0.0,-8.6087,-8.6583,-8.6644,-8.6223,-8.5568,-8.6234,-8.6518,-8.6152,-8.5066,-8.464,-8.464,-8.464,-8.464,-8.464,-8.464,-8.4268,-8.3659,0.0,0.0,-8.2509,-8.1629,-8.1291,-8.1224,-8.0479,-8.0006,-7.9801,-7.9492,-7.9179,-7.883,-7.875,-7.9173,-8.0001,-8.1359,-8.1889,-8.2088,-8.2718,-8.2883,-8.2883,-8.2883,-8.2883,-8.2883,-8.2883,-8.2883,-8.2883,-8.2883,-8.2883,-8.2883,-8.2883,-8.2883,-8.2883,-8.2883,-8.2656,-8.2346,-8.2214,-8.1897,-8.1772,-8.2159,-8.2288,-8.2547,-8.326,-8.3843,-8.4231,-8.4361,-8.4911,-8.5268,-8.5268,-8.5268,-8.5559,-8.6207,-8.6336,-8.6757,-8.7567,-8.8085,-8.8409,-8.8506,-8.8409,-8.8409,-8.8506,-8.8506,-8.8927,-8.9737,-8.9737,-9.0093,-7.2596,-7.3729,-7.4203,-7.2171,-7.2633,-7.3126,-7.1531,-7.1029,-7.0991,0.0,0.0,0.0,0.0,-7.6579,-7.7707,0.0,0.0,0.0,0.0,0.0,0.0,0.0,0.0,0.0,0.0,0.0,0.0,0.0,0.0,-8.6397,-8.5703,-8.5976,-8.5655,-8.4588,-8.507,-8.5239,-8.489,-8.4713,-8.464,-8.464,-8.464,-8.464,-8.464,-8.464,-8.4573,-8.4403,0.0,-8.3422,-8.3219,-8.1832,-8.1291,-8.1224,-8.0479,-8.0006,-7.9801,-7.9492,-7.9179,-7.8896,-7.9347,-7.9935,-8.0664,-8.1525,-8.2221,-8.2751,-8.2883,-8.2883,-8.2883,-8.2883,-8.2883,-8.2883,-8.2883,-8.2883,-8.2883,-8.2883,-8.2883,-8.2883,-8.2883,-8.2883,-8.2883,-8.2883,-8.2428,-8.228,-8.2753,-8.2411,-8.2191,-8.2904,-8.3033,-8.326,-8.3972,-8.4134,-8.4426,-8.5041,-8.5203,-8.5268,-8.5268,-8.5268,-8.5332,-8.5462,-8.6045,-8.6984,-8.8279,-8.7858,-8.7858,-8.8506,-8.7891,-8.7891,-8.8506,-8.8506,-8.9186,-9.0449,-9.0449,-9.0838,-7.198,-7.3142,-7.3992,-7.2726,-7.4051,-7.5413,-7.4543,-7.4361,-7.4091,0.0,0.0,0.0,0.0,0.0,-7.9794,-8.242,0.0,0.0,0.0,0.0,0.0,0.0,0.0,0.0,0.0,0.0,0.0,0.0,0.0,0.0,-8.4651,-8.4344,-8.3955,-8.35,-8.4147,-8.4347,-8.4031,-8.4403,-8.464,-8.464,-8.464,-8.464,-8.464,-8.464,-8.464,-8.4573,0.0,-8.3727,-8.3964,-8.2069,-8.1528,-8.1799,-8.0444,-7.9801,-7.9492,-7.9074,-7.883,-7.8717,-7.9372,-8.0101,-8.0796,-8.1558,-8.2287,-8.2883,-8.2883,-8.2883,-8.2883,-8.2883,-8.2883,-8.2883,-8.2883,-8.2883,-8.2883,-8.2883,-8.2883,-8.2883,-8.2883,-8.2883,-8.2883,-8.2883,-8.2725,-8.2622,-8.295,-8.2867,-8.2936,-8.3616,-8.3746,-8.4005,-8.4685,-8.4782,-8.4911,-8.5235,-8.5268,-8.5268,-8.5268,-8.5268,-8.5268,-8.5268,-8.5624,-8.6272,-8.734,-8.666,-8.6628,-8.734,-8.7405,-8.7599,-8.7923,-8.8312,-8.9024,-9.006,-9.006,-9.0222,-7.1203,-7.2252,-7.3316,-7.3224,0.0,0.0,0.0,-7.6976,-7.6476,-7.5745,0.0,0.0,0.0,0.0,0.0,0.0,0.0,0.0,0.0,0.0,0.0,0.0,0.0,0.0,0.0,0.0,0.0,0.0,0.0,0.0,-8.3876,-8.3132,-8.271,-8.2786,-8.343,-8.3801,-8.3761,-8.4336,-8.464,-8.464,-8.464,-8.464,-8.464,-8.464,-8.464,-8.4573,-8.3828,-8.3828,-8.42,-8.2137,-8.1629,-8.2035,-8.0409,-7.9596,-7.9179,-7.8724,-7.8511,-7.8643,-7.9571,-8.0233,-8.0829,-8.1757,-8.2453,-8.2883,-8.2883,-8.2883,-8.2883,-8.2883,-8.2883,-8.2883,-8.2883,-8.2883,-8.2883,-8.2883,-8.2883,-8.2883,-8.2883,-8.2883,-8.295,-8.3115,-8.312,-8.3113,-8.3441,-8.3519,-8.3648,-8.4361,-8.4458,-8.4652,-8.5203,-8.5268,-8.5268,-8.5268,-8.5268,-8.5268,-8.5268,-8.5268,-8.5268,-8.5268,-8.5268,-8.5624,-8.6369,-8.5851,-8.5883,-8.6628,-8.7146,-8.7502,-8.7664,-8.8215,-8.8959,-8.9801,-8.9639,-8.9672,-7.0982,-7.1748,-7.2311,-7.2283,-7.3053,0.0,-7.6746,-7.6053,-7.5515,-7.7746,-7.8877,0.0,0.0,0.0,0.0,0.0,0.0,0.0,0.0,0.0,0.0,0.0,0.0,0.0,0.0,0.0,0.0,0.0,0.0,0.0,-8.4052,-8.3494,-8.3056,-8.282,-8.3327,-8.3828,-8.4539,-8.4606,-8.464,-8.464,-8.464,-8.464,-8.464,-8.464,-8.464,-8.4573,-8.3828,-8.3524,-8.3456,-8.19,-8.1325,-8.1291,-8.0207,-7.9459,-7.8936,-7.8617,-7.8511,-7.8709,-8.0134,-8.0664,-8.0929,-8.2353,-8.285,-8.2883,-8.2883,-8.2883,-8.2883,-8.2883,-8.2883,-8.2883,-8.2883,-8.2883,-8.2883,-8.2883,-8.2883,-8.2883,-8.2883,-8.2883,-8.3115,-8.3811,-8.3449,-8.3441,-8.4784,-8.4594,-8.4393,-8.5106,-8.5203,-8.5235,-8.5268,-8.5268,-8.5268,-8.5268,-8.5268,-8.5268,-8.5268,-8.5268,-8.5268,-8.5268,-8.5268,-8.5624,-8.6369,-8.6369,-8.666,-8.734,-8.7405,-8.7761,-8.8409,-8.8474,-8.9186,-9.0514,-8.9866,-8.9931,-7.0218,-7.121,-7.2206,-7.2206,-7.3245,0.0,0.0,-7.8361,-7.8938,-7.99,-8.1529,-8.2595,0.0,0.0,0.0,0.0,0.0,0.0,0.0,0.0,0.0,0.0,0.0,0.0,0.0,0.0,0.0,0.0,0.0,0.0,-8.2998,-8.3043,-8.2737,-8.1902,-8.2985,-8.3625,-8.393,-8.4403,-8.464,-8.464,-8.464,-8.464,-8.4606,-8.4133,-8.393,-8.3862,-8.2644,-8.2374,-8.2712,-8.1224,-8.0783,-8.0915,-7.9727,-7.9041,-7.8617,-7.8511,-7.8809,-7.9272,-7.9836,-8.0332,-8.0863,-8.1889,-8.2221,-8.2287,-8.2751,-8.2883,-8.2883,-8.2883,-8.2883,-8.2883,-8.2883,-8.2883,-8.2883,-8.2883,-8.2883,-8.2883,-8.2883,-8.3248,-8.3531,-8.3714,-8.4123,-8.4522,-8.487,-8.4836,-8.4976,-8.5235,-8.5268,-8.5268,-8.5268,-8.5268,-8.5268,-8.5268,-8.5689,-8.598,-8.598,-8.6369,-8.6628,-8.6628,-8.5786,-8.5624,-8.6369,-8.6401,-8.6725,-8.7405,-8.7858,-8.8215,-8.8506,-8.8959,-8.9445,-8.9963,-8.9704,-8.9737,-7.0105,-7.1129,-7.2322,-7.286,0.0,0.0,-7.8592,-8.0015,-8.1131,-8.2715,-8.3461,-8.3868,-8.3991,0.0,0.0,0.0,0.0,0.0,0.0,0.0,0.0,0.0,0.0,0.0,0.0,0.0,0.0,0.0,0.0,0.0,0.0,-8.2952,-8.2687,-8.1629,-8.2847,-8.3625,-8.3862,-8.437,-8.464,-8.464,-8.464,-8.464,-8.4606,-8.3828,-8.349,-8.3422,-8.2171,-8.1799,-8.1968,-8.0953,-8.0512,-8.0267,-7.9346,-7.8724,-7.8511,-7.8511,-7.9007,-7.967,-7.9902,-8.0432,-8.1161,-8.1889,-8.2154,-8.2221,-8.2751,-8.2883,-8.2883,-8.2883,-8.2883,-8.295,-8.3181,-8.3082,-8.2883,-8.2883,-8.3082,-8.3248,-8.3248,-8.3844,-8.4292,-8.4141,-8.4761,-8.5155,-8.5017,-8.5225,-8.5268,-8.5268,-8.5494,-8.5624,-8.5624,-8.5818,-8.5948,-8.5948,-8.6401,-8.6725,-8.6725,-8.7146,-8.7437,-8.7437,-8.6498,-8.6207,-8.6693,-8.6952,-8.7275,-8.7761,-8.8474,-8.883,-8.883,-8.9348,-8.9575,-8.9575,-8.9575,-8.9575,-7.086,-7.1514,-7.2629,0.0,0.0,0.0,-8.0131,-8.0439,-8.1215,-8.615,-8.4432,-8.2606,-8.4642,-8.3044,0.0,0.0,0.0,0.0,0.0,0.0,0.0,0.0,0.0,0.0,0.0,0.0,0.0,0.0,0.0,0.0,0.0,-8.3285,-8.2927,-8.2408,-8.3118,-8.3862,-8.4606,-8.4606,-8.4606,-8.4606,-8.4606,-8.4606,-8.4573,-8.3828,-8.349,-8.3422,-8.2712,-8.1968,-8.1257,-8.1257,-8.0544,-7.9388,-7.9041,-7.8724,-7.8511,-7.8511,-7.9007,-7.9736,-8.0432,-8.1161,-8.1923,-8.2651,-8.2883,-8.2883,-8.2883,-8.2883,-8.2883,-8.2883,-8.2916,-8.3082,-8.3811,-8.348,-8.2916,-8.2916,-8.348,-8.401,-8.401,-8.4606,-8.5218,-8.5558,-8.5451,-8.5318,-8.5669,-8.555,-8.5268,-8.5268,-8.5915,-8.6401,-8.6433,-8.7016,-8.7437,-8.7437,-8.7437,-8.7437,-8.7437,-8.7437,-8.7437,-8.7437,-8.7437,-8.7437,-8.7437,-8.8117,-8.8506,-8.8506,-8.9218,-8.9575,-8.9575,-8.9575,-8.9575,-8.9575,-8.9575,-8.9575,-6.8244,-7.1014,0.0,-7.3091,0.0,0.0,0.0,-8.126,0.0,0.0,-8.5375,-8.4764,-8.5709,0.0,0.0,0.0,0.0,0.0,0.0,0.0,0.0,0.0,0.0,0.0,0.0,0.0,0.0,0.0,0.0,0.0,0.0,-8.4452,-8.417,-8.3256,-8.3896,-8.4403,-8.464,-8.4099,-8.3828,-8.3828,-8.3321,-8.3321,-8.3795,-8.305,-8.2441,-8.19,-8.1156,-8.0716,-8.0513,-8.0104,-7.9556,-7.9041,-7.8724,-7.8511,-7.8511,-7.8511,-7.9306,-8.0399,-8.0598,-8.1161,-8.1923,-8.2651,-8.2552,-8.2221,-8.2751,-8.2883,-8.2883,-8.2883,-8.3281,-8.3711,-8.3943,-8.4241,-8.444,-8.444,-8.4606,-8.4771,-8.4771,-8.5335,-8.578,-8.5385,-8.5878,-8.6151,-8.5518,-8.555,-8.555,-8.53,-8.5915,-8.6595,-8.7049,-8.7308,-8.7437,-8.7437,-8.7891,-8.8182,-8.8182,-8.8636,-8.8927,-8.8927,-8.8927,-8.87,-8.8215,-8.8376,-8.8733,-8.9251,-8.9478,-8.9575,-8.9575,-8.9575,-8.9575,-8.9575,-8.9575,-8.9575,-7.1783,-7.463,0.0,-7.7246,-8.0023,-8.2924,-8.3637,0.0,0.0,0.0,0.0,-8.5541,-8.6408,0.0,0.0,0.0,0.0,0.0,0.0,0.0,0.0,0.0,0.0,0.0,0.0,0.0,0.0,0.0,0.0,0.0,0.0,-8.5198,-8.4899,-8.4148,-8.4412,-8.4471,-8.4167,-8.3727,-8.3355,-8.305,-8.2611,-8.2475,-8.2611,-8.2171,-8.1731,-8.1257,-8.0513,-8.0107,-8.0006,-7.9596,-7.9179,-7.8936,-7.8617,-7.8511,-7.8544,-7.8842,-7.9703,-8.073,-8.1028,-8.1624,-8.232,-8.2751,-8.2585,-8.232,-8.2751,-8.2883,-8.295,-8.3248,-8.3645,-8.4142,-8.4705,-8.5202,-8.5467,-8.5169,-8.5335,-8.5533,-8.5533,-8.6097,-8.6475,-8.5998,-8.636,-8.6633,-8.6065,-8.6098,-8.6195,-8.6077,-8.6757,-8.7502,-8.8182,-8.8279,-8.8279,-8.8279,-8.8668,-8.8927,-8.8927,-8.9316,-8.9575,-8.9575,-8.9575,-8.938,-8.8959,-8.8927,-8.9154,-8.9575,-8.9575,-8.9575,-8.9575,-8.9575,-8.9575,-8.9575,-8.9575,-8.9575,-7.8169,0.0,0.0,-8.3978,-8.4076,0.0,-8.5861,-8.6776,-8.7109,-8.6756,0.0,0.0,0.0,0.0,0.0,0.0,0.0,0.0,0.0,0.0,0.0,0.0,0.0,0.0,0.0,0.0,0.0,0.0,0.0,0.0,0.0,-8.5658,-8.5251,-8.4984,-8.4624,-8.4167,-8.3422,-8.3321,-8.2949,-8.2306,-8.2238,-8.1866,-8.119,-8.1257,-8.1257,-8.1156,-8.0479,-8.0006,-7.9699,-7.9492,-7.9146,-7.883,-7.8617,-7.8577,-7.8709,-7.9372,-8.0134,-8.0896,-8.1558,-8.2287,-8.2883,-8.2883,-8.2883,-8.2883,-8.2883,-8.295,-8.3148,-8.3811,-8.4109,-8.4506,-8.5832,-8.6229,-8.6097,-8.5467,-8.5798,-8.6262,-8.6262,-8.6792,-8.717,-8.6996,-8.6909,-8.6985,-8.6966,-8.6971,-8.7106,-8.7405,-8.8085,-8.8765,-8.9478,-8.9575,-8.9575,-8.9575,-8.9575,-8.9575,-8.9575,-8.9575,-8.9575,-8.9575,-8.9575,-8.9575,-8.9575,-8.9575,-8.9575,-8.9575,-8.9575,-8.9575,-8.9575,-8.9575,-8.9575,-8.9575,-8.9575,-8.9575,0.0,-7.6861,0.0,0.0,-8.3639,-8.5721,-8.6497,-8.6723,-8.6548,-8.5924,0.0,0.0,0.0,0.0,0.0,0.0,0.0,0.0,0.0,0.0,0.0,0.0,0.0,0.0,0.0,0.0,0.0,0.0,0.0,0.0,-8.6514,-8.6347,-8.5834,-8.4984,-8.4216,-8.3389,-8.2644,-8.2035,-8.1663,-8.1528,-8.0953,-8.0581,-8.0445,-8.1021,-8.0953,-8.0412,-8.0073,-7.9699,-7.9492,-7.9146,-7.883,-7.8617,-7.8511,-7.8875,-7.9405,-7.9571,-8.0432,-8.1591,-8.1724,-8.2287,-8.2883,-8.2883,-8.2883,-8.2883,-8.2883,-8.3314,-8.3811,-8.3976,-8.4838,-8.5765,-8.6097,-8.6593,-8.6991,-8.6858,-8.6925,-8.7024,-8.7024,-8.7157,-8.7335,-8.7689,-8.7876,-8.7953,-8.7684,-8.7941,-8.8169,-8.8279,-8.8409,-8.8765,-8.9478,-8.9575,-8.9575,-8.9575,-8.9575,-8.9575,-8.9575,-8.9575,-8.9575,-8.9575,-8.9575,-8.9575,-8.9575,-8.9575,-8.9575,-8.9575,-8.9575,-8.9575,-8.9575,-8.9575,-8.9575,-8.9575,-8.9575,-8.9575,0.0,0.0,0.0,-8.3561,0.0,-8.7296,-8.7354,-8.723,-8.6994,0.0,0.0,0.0,0.0,0.0,0.0,0.0,0.0,0.0,0.0,0.0,0.0,0.0,0.0,0.0,0.0,0.0,0.0,0.0,0.0,-8.727,-8.7987,-8.7421,-8.6657,-8.5724,-8.472,-8.3432,-8.1866,-8.1494,-8.1088,-8.075,-8.0378,-8.0209,-8.0209,-8.0581,-8.0445,-8.0006,-8.0275,-7.9898,-7.9179,-7.9302,-7.9056,-7.8511,-7.8511,-7.8974,-7.967,-8.0001,-8.0829,-8.1856,-8.2188,-8.2585,-8.2883,-8.2883,-8.2883,-8.2983,-8.3314,-8.3711,-8.4142,-8.4838,-8.56,-8.6262,-8.6593,-8.6991,-8.7289,-8.7289,-8.7289,-8.7289,-8.7289,-8.7521,-8.7885,-8.8041,-8.8372,-8.8589,-8.8688,-8.8858,-8.896,-8.8959,-8.9024,-8.9154,-8.9542,-8.9575,-8.9575,-8.9575,-8.9575,-8.9575,-8.9575,-8.9575,-8.9575,-8.9575,-8.9575,-8.9575,-8.9575,-8.9575,-8.9575,-8.9575,-8.9575,-8.9575,-8.9575,-8.9575,-8.9575,-8.9575,-8.9575,-8.9575,0.0,0.0,0.0,0.0,0.0,0.0,-8.7836,0.0,0.0,0.0,0.0,0.0,0.0,0.0,0.0,0.0,0.0,0.0,0.0,0.0,0.0,0.0,0.0,0.0,0.0,0.0,0.0,0.0,0.0,-8.801,-8.9314,-8.8469,-8.7425,-8.6355,-8.5359,-8.3697,-8.1291,-8.1426,-8.1122,-8.0378,-8.0242,-8.0209,-8.0209,-8.0209,-8.0006,-7.9835,-8.0371,-7.9957,-7.8969,-7.9628,-7.9455,-7.8709,-7.8709,-7.9239,-8.0067,-8.0531,-8.1227,-8.2088,-8.2684,-8.2883,-8.2883,-8.2883,-8.2883,-8.3049,-8.3778,-8.4109,-8.4473,-8.5798,-8.6262,-8.6494,-8.7123,-8.7289,-8.7289,-8.7289,-8.7289,-8.7322,-8.7422,-8.7919,-8.8382,-8.8647,-8.8811,-8.9097,-8.9567,-8.9577,-8.9445,-8.9575,-8.9575,-8.9575,-8.9575,-8.9575,-8.9575,-8.9575,-8.9575,-8.9575,-8.9575,-8.9575,-8.9575,-8.9575,-8.9575,-8.9575,-8.9575,-8.9575,-8.9575,-8.9575,-8.9575,-8.9575,-8.9575,-8.9575,-8.9575,-8.9575,-8.9575,-8.9575,0.0,0.0,0.0,0.0,0.0,0.0,0.0,0.0,0.0,0.0,0.0,0.0,0.0,0.0,0.0,0.0,0.0,0.0,0.0,0.0,0.0,0.0,0.0,0.0,0.0,0.0,0.0,0.0,-8.877,-8.9169,-8.9386,-8.8469,-8.7177,-8.5616,-8.4465,-8.3148,-8.1291,-8.1934,-8.1866,-8.1122,-8.0513,-8.0209,-8.0209,-8.0006,-7.9801,-7.9801,-7.9696,-7.9351,-7.8969,-7.9413,-7.9571,-7.9471,-7.9471,-8.0299,-8.1426,-8.0896,-8.1558,-8.2784,-8.2883,-8.2883,-8.2883,-8.2883,-8.2883,-8.3049,-8.3778,-8.444,-8.5136,-8.5931,-8.6627,-8.7157,-8.7256,-8.7289,-8.7289,-8.7289,-8.7289,-8.7455,-8.8051,-8.825,-8.868,-8.9972,-8.9808,-8.9567,-9.0321,-8.9512,-8.8862,-8.9478,-8.9575,-8.9575,-8.9575,-8.9575,-8.9575,-8.9575,-8.9575,-8.9575,-8.9575,-8.9575,-8.9575,-8.9575,-8.9575,-8.9575,-8.9575,-8.9575,-8.9575,-8.9575,-8.9575,-8.9575,-8.9575,-8.9575,-8.9575,-8.9575,-8.9575,-8.9575,0.0,0.0,0.0,0.0,0.0,0.0,0.0,0.0,0.0,0.0,0.0,0.0,0.0,0.0,0.0,0.0,0.0,0.0,0.0,0.0,0.0,0.0,0.0,0.0,0.0,0.0,0.0,0.0,-8.9459,-8.9603,-9.0038,-8.96,-8.8589,-8.6912,-8.5855,-8.4508,-8.271,-8.2513,-8.2035,-8.1291,-8.0547,-8.0209,-8.0209,-7.9904,-7.9699,-7.9629,-7.9719,-7.9335,-7.8717,-7.9736,-7.9968,-7.967,-8.0067,-8.0863,-8.1757,-8.1426,-8.1989,-8.2883,-8.2883,-8.2883,-8.2883,-8.2883,-8.3181,-8.3645,-8.4407,-8.5136,-8.5865,-8.6593,-8.7024,-8.7289,-8.7289,-8.7289,-8.7289,-8.7289,-8.7587,-8.7952,-8.825,-8.8316,-8.8493,-8.9182,-8.913,-8.8982,-8.9349,-8.8961,-8.8733,-8.9478,-8.9575,-8.9575,-8.9575,-8.9575,-8.9575,-8.9575,-8.9575,-8.9575,-8.9575,-8.9575,-8.9575,-8.9575,-8.9575,-8.9575,-8.9575,-8.9575,-8.9575,-8.9575,-8.9575,-8.9575,-8.9575,-8.9575,-8.9575,-8.9575,-8.9575,-8.9575,0.0,0.0,0.0,0.0,0.0,0.0,0.0,0.0,0.0,0.0,0.0,0.0,0.0,0.0,0.0,0.0,0.0,0.0,0.0,0.0,0.0,0.0,0.0,0.0,0.0,0.0,0.0,0.0,-9.0038,-8.9966,-9.0581,-9.04,-8.9456,-8.7764,-8.7002,-8.5715,-8.3919,-8.2915,-8.2208,-8.1562,-8.0547,-8.0107,-8.0107,-7.9699,-7.9492,-7.9317,-7.9641,-7.9222,-7.8643,-8.0101,-8.0366,-7.9968,-8.0697,-8.1426,-8.2055,-8.1856,-8.2254,-8.2883,-8.2883,-8.2883,-8.2883,-8.2883,-8.3413,-8.4142,-8.4904,-8.56,-8.6328,-8.7057,-8.7289,-8.7289,-8.7289,-8.7289,-8.7289,-8.7289,-8.7687,-8.8217,-8.8747,-8.8879,-8.8956,-8.9189,-8.8907,-8.8851,-8.9253,-8.8863,-8.8797,-8.9704,-8.9704,-8.9575,-8.9575,-8.9575,-8.9575,-8.9575,-8.9575,-8.9575,-8.9575,-8.9575,-8.9575,-8.9575,-8.9575,-8.9575,-8.9575,-8.9575,-8.9575,-8.9575,-8.9575,-8.9575,-8.9575,-8.9575,-8.9575,-8.9575,-8.9575,-8.9575,0.0,0.0,0.0,0.0,0.0,0.0,0.0,0.0,0.0,0.0,0.0,0.0,0.0,0.0,0.0,0.0,0.0,0.0,0.0,0.0,0.0,0.0,0.0,0.0,0.0,0.0,0.0,0.0,-9.0545,-9.0545,-9.0581,-8.9857,-8.8626,-8.6942,-8.6738,-8.5883,-8.4102,-8.3122,-8.257,-8.234,-8.0578,-7.9801,-7.9801,-7.9251,-7.8936,-7.8936,-7.8969,-7.8757,-7.8643,-8.0101,-8.0664,-8.0697,-8.1459,-8.2188,-8.2751,-8.2055,-8.2254,-8.2883,-8.2883,-8.2883,-8.2883,-8.2883,-8.3413,-8.4142,-8.4904,-8.56,-8.6328,-8.7057,-8.7289,-8.7289,-8.7289,-8.7289,-8.7289,-8.7289,-8.7322,-8.7885,-8.9972,-9.0403,-9.0602,-9.1331,-9.0401,-8.9895,-9.1303,-8.9773,-8.8959,-9.0352,-8.9996,-8.9575,-8.9575,-8.9575,-8.9575,-8.9575,-8.9575,-8.9575,-8.9575,-8.9575,-8.9575,-8.9575,-8.9575,-8.9575,-8.9575,-8.9575,-8.9575,-8.9575,-8.9575,-8.9575,-8.9575,-8.9575,-8.9575,-8.9575,-8.9575,-8.9575,0.0,0.0,0.0,0.0,0.0,0.0,0.0,0.0,0.0,0.0,0.0,0.0,0.0,0.0,0.0,0.0,0.0,0.0,0.0,0.0,0.0,0.0,0.0,0.0,0.0,0.0,0.0,0.0,0.0,-9.0581,-9.0581,-8.9821,-8.9083,-8.8518,-8.7288,-8.6096,-8.4838,-8.404,-8.3473,-8.3252,-8.1737,-8.0804,-8.0542,-7.9665,-7.9041,-7.8936,-7.8724,-7.8617,-7.8643,-8.0101,-8.0697,-8.0796,-8.2022,-8.2651,-8.2883,-8.2585,-8.2684,-8.2883,-8.2883,-8.2883,-8.2883,-8.2883,-8.3711,-8.4771,-8.5037,-8.5931,-8.6925,-8.719,-8.7289,-8.7289,-8.7289,-8.7289,-8.7389,-8.7852,-8.7952,-8.8415,-9.0138,-9.0536,-9.0313,-8.9709,-8.9464,-8.9669,-9.0294,-8.9674,-8.951,-9.0449,-9.0028,-8.9575,-8.9575,-8.9575,-8.9575,-8.9575,-8.9963,-9.0222,-9.0222,-9.0676,-9.0741,-9.0255,-9.0676,-9.0514,-8.9607,-9.0449,-9.0708,-9.0255,-9.0708,-9.0481,-8.9575,-9.0028,-8.9996,-8.9607,-9.0514,-9.0676,-6.8531,0.0,0.0,0.0,0.0,0.0,0.0,0.0,0.0,0.0,0.0,0.0,0.0,0.0,0.0,0.0,0.0,0.0,0.0,0.0,0.0,0.0,0.0,0.0,0.0,0.0,0.0,0.0,0.0,0.0,-9.0219,-8.9676,-8.9133,-8.8626,-8.7205,-8.6109,-8.5446,-8.4547,-8.4,-8.3886,-8.2043,-8.1125,-8.0868,-7.9632,-7.8969,-7.8724,-7.8617,-7.8511,-7.8643,-8.0101,-8.0697,-8.0829,-8.232,-8.2883,-8.2883,-8.2883,-8.2883,-8.2883,-8.2883,-8.2883,-8.295,-8.3181,-8.4109,-8.5169,-8.5401,-8.6328,-8.7289,-8.7289,-8.7289,-8.7289,-8.7289,-8.7289,-8.7389,-8.7852,-8.815,-8.8647,-8.9873,-9.0213,-9.0064,-8.9426,-8.9534,-8.9933,-9.039,-9.0031,-8.9899,-9.0838,-9.0384,-8.9834,-8.9607,-8.9996,-9.019,-8.9931,-9.0546,-9.0967,-9.0967,-9.1421,-9.1485,-9.1,-9.1421,-9.1259,-9.032,-9.1194,-9.1453,-9.0967,-9.1421,-9.1226,-9.0287,-9.0741,-9.0708,-9.032,-9.1226,-9.155,0.0,0.0,0.0,0.0,0.0,0.0,0.0,0.0,0.0,0.0,0.0,0.0,0.0,0.0,0.0,0.0,0.0,0.0,0.0,0.0,0.0,0.0,0.0,0.0,0.0,0.0,0.0,0.0,-9.0581,-9.0219,-8.9422,-8.935,-8.8589,-8.7032,-8.6271,-8.5814,-8.5609,-8.4658,-8.4202,-8.4086,-8.1723,-8.0638,-8.08,-7.9184,-7.8511,-7.8511,-7.8511,-7.8511,-7.8643,-8.0067,-8.0697,-8.0863,-8.232,-8.2883,-8.2883,-8.2883,-8.2883,-8.2883,-8.2883,-8.2883,-8.3016,-8.3778,-8.4506,-8.5235,-8.5964,-8.6693,-8.7289,-8.7289,-8.7289,-8.7289,-8.7289,-8.7289,-8.7289,-8.7289,-8.7852,-8.8548,-8.9277,-8.9792,-9.0269,-9.0961,-9.0616,-9.0555,-9.1988,-9.0812,-9.0093,-9.1518,-9.1064,-9.032,-8.9704,-9.0805,-9.1388,-9.0708,-9.1259,-9.1712,-9.1712,-9.1744,-9.1777,-9.1712,-9.1744,-9.1712,-9.168,-9.1712,-9.1744,-9.1712,-9.1744,-9.1744,-9.1744,-9.1712,-9.1712,-9.168,-9.1712,-9.2101,-6.5714,0.0,0.0,0.0,0.0,0.0,0.0,0.0,0.0,0.0,0.0,0.0,0.0,0.0,0.0,0.0,0.0,0.0,0.0,0.0,0.0,0.0,0.0,0.0,0.0,0.0,0.0,0.0,-9.0074,-8.964,-8.9386,-8.83,-8.7213,-8.6235,-8.6018,-8.5906,-8.5778,-8.5562,-8.5211,-8.487,-8.2926,-8.1816,-8.1318,-7.9598,-7.8724,-7.8511,-7.8511,-7.8511,-7.861,-7.9537,-8.0531,-8.1525,-8.1923,-8.2419,-8.2883,-8.2883,-8.2883,-8.2883,-8.2883,-8.2883,-8.3016,-8.3778,-8.4506,-8.5235,-8.5964,-8.6693,-8.7289,-8.7289,-8.7289,-8.7289,-8.7289,-8.7289,-8.7389,-8.7919,-8.8581,-8.9188,-8.9701,-9.0176,-9.0481,-9.0678,-9.0717,-9.0977,-9.1786,-9.1068,-9.0643,-9.155,-9.0643,-8.9963,-9.0287,-9.0643,-9.1,-9.1356,-9.2036,-9.2489,-9.2489,-9.2943,-9.3007,-9.2522,-9.2943,-9.2748,-9.1712,-9.2684,-9.3007,-9.2522,-9.2975,-9.3234,-9.3234,-9.2716,-9.223,-9.1712,-9.2263,-9.2878,-6.6154,-6.5979,-6.633,-6.7897,0.0,0.0,0.0,0.0,0.0,0.0,0.0,0.0,0.0,0.0,0.0,0.0,0.0,0.0,0.0,0.0,0.0,0.0,0.0,0.0,0.0,0.0,0.0,-9.0581,-8.9857,-8.9096,-8.8481,-8.7249,-8.6344,-8.5909,-8.5909,-8.5909,-8.5909,-8.5721,-8.5531,-8.5261,-8.3174,-8.2187,-8.2222,-7.9871,-7.8902,-7.9079,-7.8724,-7.8511,-7.8544,-7.8974,-8.0034,-8.1393,-8.2022,-8.2519,-8.2883,-8.2883,-8.2883,-8.2883,-8.2883,-8.2883,-8.3082,-8.4142,-8.4771,-8.5302,-8.6328,-8.6925,-8.7289,-8.7289,-8.7289,-8.7289,-8.7289,-8.7488,-8.7753,-8.7852,-8.868,-8.9419,-8.9478,-8.9886,-9.0222,-9.0389,-9.0392,-9.0747,-9.1485,-9.0838,-9.0514,-9.1518,-9.0967,-9.0481,-9.0579,-9.1388,-9.2004,-9.2133,-9.2781,-9.3234,-9.3234,-9.359,-9.3655,-9.3234,-9.359,-9.3428,-9.2586,-9.3364,-9.3623,-9.3234,-9.3623,-9.3817,-9.3817,-9.3428,-9.3007,-9.2619,-9.304,-9.3428,-6.6973,-6.6827,-6.7362,-6.954,-6.8628,0.0,-7.5774,-7.7452,0.0,0.0,0.0,0.0,0.0,0.0,0.0,0.0,0.0,0.0,0.0,0.0,0.0,0.0,0.0,0.0,0.0,-9.0581,-9.0545,-9.0473,-8.964,-8.8481,-8.7032,-8.6271,-8.5909,-8.5909,-8.5873,-8.5873,-8.5909,-8.5453,-8.5297,-8.5417,-8.2944,-8.2313,-8.3209,-8.0206,-7.9288,-7.9905,-7.9012,-7.8485,-7.8411,-7.8577,-7.9438,-8.0829,-8.2121,-8.2751,-8.2883,-8.2883,-8.2883,-8.2883,-8.2883,-8.295,-8.3248,-8.4672,-8.5169,-8.5467,-8.6858,-8.7289,-8.7289,-8.7289,-8.7289,-8.7289,-8.7289,-8.7786,-8.815,-8.7521,-8.8482,-8.9419,-8.905,-8.9235,-8.9669,-8.9968,-8.9902,-9.0125,-9.1453,-9.0579,-9.019,-9.1583,-9.1647,-9.1388,-9.0902,-9.2522,-9.3493,-9.2975,-9.3461,-9.3817,-9.3817,-9.3817,-9.3817,-9.3817,-9.3817,-9.3817,-9.3817,-9.3817,-9.3817,-9.3817,-9.3817,-9.3817,-9.3817,-9.3817,-9.3817,-9.3817,-9.3817,-9.3817,-6.8457,-6.7668,-6.763,-6.7477,-6.7085,0.0,-6.7776,-6.7948,0.0,0.0,0.0,0.0,0.0,0.0,0.0,0.0,0.0,0.0,0.0,0.0,0.0,0.0,0.0,0.0,0.0,-9.0581,-9.0328,-8.9676,-8.83,-8.7104,-8.6163,-8.5982,-8.5909,-8.5909,-8.5685,-8.5685,-8.5909,-8.5453,-8.5218,-8.5218,-8.3762,-8.3068,-8.3068,-8.1663,-8.0603,-7.9972,-7.923,-7.8384,-7.7715,-7.8908,-7.9902,-8.073,-8.0995,-8.1856,-8.2883,-8.2883,-8.2883,-8.2883,-8.2883,-8.3281,-8.3943,-8.4805,-8.55,-8.613,-8.6991,-8.7289,-8.7289,-8.7289,-8.7289,-8.7289,-8.7289,-8.7786,-8.8283,-8.815,-8.8999,-8.9808,-8.9399,-8.9735,-8.9903,-8.9674,-9.0028,-9.0676,-9.1518,-9.0967,-9.0902,-9.236,-9.155,-9.1194,-9.223,-9.2748,-9.3169,-9.3558,-9.372,-9.3817,-9.3817,-9.3817,-9.3817,-9.3817,-9.3817,-9.3817,-9.3817,-9.3817,-9.3817,-9.3817,-9.3817,-9.3817,-9.3817,-9.3817,-9.3817,-9.3817,-9.3817,-9.3817,-6.9527,-6.8547,-6.84,-6.7745,-6.7089,0.0,0.0,0.0,0.0,0.0,0.0,0.0,0.0,0.0,0.0,0.0,0.0,0.0,0.0,0.0,0.0,0.0,0.0,0.0,0.0,-9.0219,-8.9495,-8.83,-8.7467,-8.6706,-8.5945,-8.5909,-8.5909,-8.5909,-8.5608,-8.5572,-8.5685,-8.5297,-8.506,-8.506,-8.3798,-8.3454,-8.3748,-8.2257,-8.1569,-8.144,-8.0096,-7.9196,-7.8682,-7.9355,-8.0034,-8.0763,-8.1492,-8.2254,-8.2883,-8.2883,-8.2883,-8.2883,-8.2883,-8.338,-8.4142,-8.4871,-8.56,-8.6328,-8.7057,-8.7289,-8.7289,-8.7289,-8.7289,-8.7355,-8.7687,-8.8316,-8.8879,-8.8879,-8.9726,-9.0341,-8.9694,-8.9835,-8.9968,-8.9706,-9.0417,-9.1259,-9.1615,-9.1064,-9.1097,-9.2586,-9.2165,-9.1971,-9.2716,-9.3105,-9.3428,-9.3785,-9.3817,-9.3817,-9.3817,-9.3817,-9.3817,-9.3817,-9.3817,-9.3817,-9.3817,-9.3817,-9.3817,-9.3817,-9.3817,-9.3817,-9.3817,-9.3817,-9.3817,-9.3817,-9.3817,-9.3817,-7.0751,-6.9508,-6.9184,-6.8639,-6.7613,-6.6999,0.0,0.0,0.0,0.0,0.0,0.0,0.0,0.0,0.0,0.0,0.0,0.0,0.0,0.0,0.0,0.0,0.0,0.0,0.0,-8.8589,-8.7756,-8.7068,-8.6308,-8.5873,-8.5909,-8.5909,-8.5909,-8.5797,-8.5608,-8.5417,-8.5417,-8.506,-8.49,-8.49,-8.3918,-8.3833,-8.4527,-8.2926,-8.244,-8.2711,-8.092,-7.9971,-7.9701,-7.9595,-8.0143,-8.1125,-8.2266,-8.2784,-8.2883,-8.2883,-8.2883,-8.2883,-8.2883,-8.348,-8.4308,-8.4904,-8.5699,-8.6494,-8.709,-8.7289,-8.7289,-8.7289,-8.7289,-8.7422,-8.815,-8.8879,-8.9409,-8.9287,-9.0163,-9.0768,-8.9665,-8.9707,-8.9968,-8.9706,-9.0611,-9.1518,-9.1647,-9.1323,-9.1485,-9.2781,-9.2878,-9.2846,-9.2975,-9.3493,-9.3817,-9.3817,-9.3817,-9.3817,-9.3817,-9.3817,-9.3817,-9.3817,-9.3817,-9.3817,-9.3817,-9.3817,-9.3817,-9.3817,-9.3817,-9.3817,-9.3817,-9.3817,-9.3817,-9.3817,-9.3817,-9.3817,-7.2816,-7.0601,-6.9549,-6.8716,-6.7781,-6.663,-6.4605,0.0,-6.4677,-6.4383,0.0,0.0,0.0,0.0,0.0,0.0,0.0,0.0,0.0,0.0,0.0,0.0,0.0,0.0,0.0,0.0,-8.4171,-8.6815,-8.3772,-8.2976,-8.5764,-8.5909,-8.5797,-8.5572,-8.5339,-8.5218,-8.5218,-8.4855,-8.4738,-8.49,-8.4574,-8.4527,-8.461,-8.4326,-8.3402,-8.1757,-8.0879,-7.9729,-7.8757,-7.9306,-8.0615,-8.2132,-8.2,-8.232,-8.2883,-8.2883,-8.2883,-8.2883,-8.2883,-8.3811,-8.5003,-8.507,-8.603,-8.7157,-8.7256,-8.7289,-8.7289,-8.7289,-8.7289,-8.7422,-8.815,-8.8879,-8.9287,-8.9042,-8.9787,-9.0386,-8.9282,-8.9318,-8.9575,-8.9575,-9.019,-9.0935,-9.1583,-9.2165,-9.2813,-9.359,-9.3202,-9.3007,-9.3623,-9.3752,-9.3817,-9.3817,-9.3817,-9.3817,-9.3817,-9.3817,-9.3817,-9.3817,-9.3817,-9.3817,-9.3817,-9.3817,-9.3817,-9.3817,-9.3817,-9.3817,-9.3817,-9.3817,-9.3817,-9.3817,-9.3817,-9.3817,0.0,0.0,-7.2888,-6.913,-6.9321,-6.9332,-6.4842,-6.3579,-6.3392,-6.3539,0.0,0.0,0.0,0.0,0.0,0.0,0.0,0.0,0.0,0.0,0.0,0.0,0.0,0.0,0.0,0.0,0.0,0.0,0.0,-8.2505,-8.5728,-8.5909,-8.5797,-8.5495,-8.5261,-8.5139,-8.506,-8.4773,-8.461,-8.4738,-8.461,-8.461,-8.461,-8.461,-8.4158,-8.3279,-8.2397,-8.2152,-8.2394,-8.1457,-8.2509,-8.4387,-8.3029,-8.3032,-8.3708,-8.3108,-8.2883,-8.2883,-8.2883,-8.3877,-8.5235,-8.6097,-8.6792,-8.7289,-8.7289,-8.7289,-8.7289,-8.7289,-8.7289,-8.7521,-8.8647,-8.9056,-8.9273,-8.9973,-9.0252,-9.026,-8.9708,-8.961,-8.9575,-8.9575,-9.0481,-9.1356,-9.1615,-9.2295,-9.304,-9.372,-9.3558,-9.3493,-9.3785,-9.3817,-9.3817,-9.3817,-9.3817,-9.3817,-9.3817,-9.3817,-9.3817,-9.3817,-9.3817,-9.3817,-9.3817,-9.3817,-9.3817,-9.3817,-9.3817,-9.3817,-9.3817,-9.3817,-9.3817,-9.3817,-9.3817,-9.3817,-7.3734,0.0,0.0,0.0,0.0,-6.976,-6.4856,-6.3613,-6.3686,-6.431,-6.4273,0.0,0.0,0.0,0.0,0.0,0.0,0.0,0.0,0.0,0.0,0.0,0.0,0.0,0.0,0.0,0.0,0.0,0.0,0.0,-8.5692,-8.5909,-8.5797,-8.5495,-8.5261,-8.5139,-8.49,-8.4692,-8.461,-8.461,-8.461,-8.461,-8.461,-8.461,-8.4409,-8.4158,-8.37,-8.3941,-8.4798,-8.356,-8.4417,-8.6321,-8.4505,-8.4263,-8.4899,-8.3187,-8.2909,-8.3265,-8.2764,-8.3711,-8.5335,-8.6792,-8.7289,-8.7289,-8.7289,-8.7289,-8.7289,-8.7289,-8.7289,-8.762,-8.9045,-8.9165,-8.9281,-9.0604,-9.0454,-9.0066,-8.9968,-8.9706,-8.9706,-8.9936,-9.0841,-9.1847,-9.205,-9.2593,-9.3234,-9.3752,-9.3817,-9.3817,-9.3817,-9.3817,-9.3817,-9.3817,-9.3817,-9.3817,-9.3817,-9.3817,-9.3817,-9.3817,-9.3817,-9.3817,-9.3817,-9.3817,-9.3817,-9.3817,-9.3817,-9.3817,-9.3817,-9.3817,-9.3817,-9.3817,-9.3817,-9.3817,0.0,0.0,0.0,-6.9265,0.0,0.0,0.0,-6.409,-6.5228,-6.5264,-6.6476,-6.7283,-6.6549,-6.6439,-6.6219,-6.5485,0.0,0.0,0.0,0.0,0.0,0.0,0.0,0.0,0.0,0.0,0.0,0.0,0.0,0.0,-8.5547,-8.5909,-8.5797,-8.5495,-8.5261,-8.5139,-8.49,-8.4692,-8.461,-8.461,-8.461,-8.461,-8.461,-8.461,-8.4039,-8.3227,-8.3965,-8.4065,-8.388,-8.4604,-8.5984,-8.7515,-8.642,-8.613,-8.6043,-8.2999,-8.2996,-8.419,-8.2466,-8.3281,-8.5335,-8.6792,-8.7289,-8.7289,-8.7289,-8.7289,-8.7289,-8.7289,-8.7289,-8.762,-8.9045,-8.9165,-8.9156,-9.035,-9.0325,-8.9968,-8.9706,-8.9575,-8.9805,-9.0773,-9.1305,-9.205,-9.2941,-9.349,-9.3785,-9.3817,-9.3817,-9.3817,-9.3817,-9.3817,-9.3817,-9.3817,-9.3817,-9.3817,-9.3817,-9.3817,-9.3817,-9.3817,-9.3817,-9.3817,-9.3817,-9.3817,-9.3817,-9.3817,-9.3817,-9.3817,-9.3817,-9.3817,-9.3817,-9.3817,-9.3817,-9.3817,0.0,0.0,-8.2745,-7.4136,0.0,0.0,0.0,0.0,0.0,-6.5301,-6.6145,-6.699,-6.7247,-6.6843,-6.6586,-6.6843,-6.688,0.0,0.0,0.0,0.0,0.0,0.0,0.0,0.0,0.0,0.0,0.0,0.0,0.0,0.0,-8.5909,-8.5797,-8.5495,-8.5261,-8.5139,-8.49,-8.4692,-8.461,-8.461,-8.461,-8.461,-8.4646,-8.5145,-8.5193,-8.494,-8.5721,-8.6293,-8.6646,-8.6219,-8.7093,-8.8596,-8.6811,-8.6707,-8.7303,-8.4751,-8.4251,-8.4933,-8.5888,-8.5692,-8.5451,-8.7625,-8.8324,-8.8209,-8.7493,-8.7812,-8.8209,-8.7493,-8.7289,-8.774,-8.9527,-8.9287,-8.9032,-9.0823,-9.0422,-8.9706,-8.9575,-8.9575,-8.9706,-9.0066,-9.0974,-9.1814,-9.2183,-9.3118,-9.3817,-9.3817,-9.3817,-9.3817,-9.3817,-9.3817,-9.3817,-9.3817,-9.3817,-9.3817,-9.3817,-9.3817,-9.3817,-9.3817,-9.3817,-9.3817,-9.3817,-9.3817,-9.3817,-9.3817,-9.3817,-9.3817,-9.3817,-9.3817,-9.3817,-9.3817,-9.3817,-9.3817,-8.5704,-8.7231,0.0,-7.8706,-7.8096,0.0,-6.8915,0.0,-6.8311,0.0,-6.8238,-6.8972,-7.1505,-6.9669,0.0,0.0,-6.7963,0.0,0.0,0.0,0.0,0.0,0.0,0.0,0.0,0.0,0.0,0.0,0.0,0.0,0.0,0.0,-8.5685,-8.5495,-8.5218,-8.506,-8.49,-8.4692,-8.461,-8.461,-8.461,-8.461,-8.4646,-8.5145,-8.5538,-8.5823,-8.6573,-8.7358,-8.8107,-8.771,-8.8224,-8.911,-8.7796,-8.7438,-8.7386,-8.5342,-8.457,-8.488,-8.7191,-8.7253,-8.6567,-8.8761,-8.9457,-8.9347,-8.8632,-8.8632,-8.8712,-8.8094,-8.7895,-8.8395,-8.9951,-9.006,-8.9949,-9.1231,-9.0773,-9.0066,-8.9706,-8.9575,-8.9706,-9.0066,-9.0974,-9.1814,-9.2183,-9.3118,-9.3817,-9.3817,-9.3817,-9.3817,-9.3817,-9.3817,-9.3817,-9.3817,-9.3817,-9.3817,-9.3817,-9.3817,-9.3817,-9.3817,-9.3817,-9.3817,-9.3817,-9.3817,-9.3817,-9.3817,-9.3817,-9.3817,-9.3817,-9.3817,-9.3817,-9.3817,-9.3817,-9.3817]}]]